<?xml version="1.0" encoding="UTF-8" standalone="no" ?>
<gpx xmlns="http://www.topografix.com/GPX/1/1" xmlns:xsi="http://www.w3.org/2001/XMLSchema-instance" xsi:schemaLocation="http://www.topografix.com/GPX/1/1 http://www.topografix.com/GPX/1/1/gpx.xsd" version="1.1" creator="VisuGPX - https://www.visugpx.com">
  <metadata>
    <name>Champagnat Cyclisme sur route</name>
  </metadata>
  <trk>
    <name><![CDATA[Champagnat Cyclisme sur route_1]]></name>
    <trkseg>
      <trkpt lat="46.48264" lon="5.36827">
        <ele>264.6</ele>
        <time>2022-07-07T05:27:39Z</time>
      </trkpt>
      <trkpt lat="46.48255" lon="5.36816">
        <ele>263.8</ele>
        <time>2022-07-07T05:27:40Z</time>
      </trkpt>
      <trkpt lat="46.48245" lon="5.36806">
        <ele>262.8</ele>
        <time>2022-07-07T05:27:41Z</time>
      </trkpt>
      <trkpt lat="46.48224" lon="5.36789">
        <ele>260.8</ele>
        <time>2022-07-07T05:27:43Z</time>
      </trkpt>
      <trkpt lat="46.48214" lon="5.3678">
        <ele>260.4</ele>
        <time>2022-07-07T05:27:44Z</time>
      </trkpt>
      <trkpt lat="46.48203" lon="5.36771">
        <ele>259.4</ele>
        <time>2022-07-07T05:27:45Z</time>
      </trkpt>
      <trkpt lat="46.48182" lon="5.36753">
        <ele>258</ele>
        <time>2022-07-07T05:27:47Z</time>
      </trkpt>
      <trkpt lat="46.48161" lon="5.36735">
        <ele>256.8</ele>
        <time>2022-07-07T05:27:49Z</time>
      </trkpt>
      <trkpt lat="46.48151" lon="5.36728">
        <ele>255.6</ele>
        <time>2022-07-07T05:27:50Z</time>
      </trkpt>
      <trkpt lat="46.48133" lon="5.36714">
        <ele>254.2</ele>
        <time>2022-07-07T05:27:52Z</time>
      </trkpt>
      <trkpt lat="46.48118" lon="5.36702">
        <ele>252.6</ele>
        <time>2022-07-07T05:27:54Z</time>
      </trkpt>
      <trkpt lat="46.48113" lon="5.36696">
        <ele>252.2</ele>
        <time>2022-07-07T05:27:55Z</time>
      </trkpt>
      <trkpt lat="46.4811" lon="5.3669">
        <ele>251.4</ele>
        <time>2022-07-07T05:27:56Z</time>
      </trkpt>
      <trkpt lat="46.4811" lon="5.36682">
        <ele>250.8</ele>
        <time>2022-07-07T05:27:57Z</time>
      </trkpt>
      <trkpt lat="46.48112" lon="5.36675">
        <ele>250.4</ele>
        <time>2022-07-07T05:27:58Z</time>
      </trkpt>
      <trkpt lat="46.4813" lon="5.36657">
        <ele>248.8</ele>
        <time>2022-07-07T05:28:01Z</time>
      </trkpt>
      <trkpt lat="46.48136" lon="5.3665">
        <ele>248.4</ele>
        <time>2022-07-07T05:28:02Z</time>
      </trkpt>
      <trkpt lat="46.48142" lon="5.36644">
        <ele>247.6</ele>
        <time>2022-07-07T05:28:03Z</time>
      </trkpt>
      <trkpt lat="46.48163" lon="5.3662">
        <ele>246.6</ele>
        <time>2022-07-07T05:28:06Z</time>
      </trkpt>
      <trkpt lat="46.48176" lon="5.3661">
        <ele>246.2</ele>
        <time>2022-07-07T05:28:08Z</time>
      </trkpt>
      <trkpt lat="46.48183" lon="5.36606">
        <ele>246.2</ele>
        <time>2022-07-07T05:28:09Z</time>
      </trkpt>
      <trkpt lat="46.48197" lon="5.366">
        <ele>246</ele>
        <time>2022-07-07T05:28:11Z</time>
      </trkpt>
      <trkpt lat="46.48206" lon="5.36598">
        <ele>245.8</ele>
        <time>2022-07-07T05:28:12Z</time>
      </trkpt>
      <trkpt lat="46.48215" lon="5.36589">
        <ele>245.8</ele>
        <time>2022-07-07T05:28:14Z</time>
      </trkpt>
      <trkpt lat="46.48223" lon="5.36572">
        <ele>245.6</ele>
        <time>2022-07-07T05:28:16Z</time>
      </trkpt>
      <trkpt lat="46.48226" lon="5.36563">
        <ele>245.4</ele>
        <time>2022-07-07T05:28:17Z</time>
      </trkpt>
      <trkpt lat="46.48231" lon="5.36555">
        <ele>245.2</ele>
        <time>2022-07-07T05:28:18Z</time>
      </trkpt>
      <trkpt lat="46.48242" lon="5.36542">
        <ele>244.8</ele>
        <time>2022-07-07T05:28:20Z</time>
      </trkpt>
      <trkpt lat="46.48267" lon="5.36515">
        <ele>244.4</ele>
        <time>2022-07-07T05:28:24Z</time>
      </trkpt>
      <trkpt lat="46.48303" lon="5.36475">
        <ele>243.2</ele>
        <time>2022-07-07T05:28:30Z</time>
      </trkpt>
      <trkpt lat="46.48341" lon="5.36433">
        <ele>242</ele>
        <time>2022-07-07T05:28:36Z</time>
      </trkpt>
      <trkpt lat="46.48366" lon="5.36405">
        <ele>241</ele>
        <time>2022-07-07T05:28:40Z</time>
      </trkpt>
      <trkpt lat="46.48372" lon="5.36398">
        <ele>240.8</ele>
        <time>2022-07-07T05:28:41Z</time>
      </trkpt>
      <trkpt lat="46.48404" lon="5.36366">
        <ele>239.8</ele>
        <time>2022-07-07T05:28:46Z</time>
      </trkpt>
      <trkpt lat="46.48411" lon="5.3636">
        <ele>239.2</ele>
        <time>2022-07-07T05:28:47Z</time>
      </trkpt>
      <trkpt lat="46.48417" lon="5.36357">
        <ele>239.2</ele>
        <time>2022-07-07T05:28:48Z</time>
      </trkpt>
      <trkpt lat="46.48425" lon="5.36353">
        <ele>239</ele>
        <time>2022-07-07T05:28:49Z</time>
      </trkpt>
      <trkpt lat="46.4844" lon="5.36348">
        <ele>238.6</ele>
        <time>2022-07-07T05:28:51Z</time>
      </trkpt>
      <trkpt lat="46.48454" lon="5.36346">
        <ele>238.2</ele>
        <time>2022-07-07T05:28:53Z</time>
      </trkpt>
      <trkpt lat="46.48509" lon="5.36337">
        <ele>237.6</ele>
        <time>2022-07-07T05:29:01Z</time>
      </trkpt>
      <trkpt lat="46.48516" lon="5.36336">
        <ele>237.6</ele>
        <time>2022-07-07T05:29:02Z</time>
      </trkpt>
      <trkpt lat="46.48523" lon="5.36334">
        <ele>237.6</ele>
        <time>2022-07-07T05:29:03Z</time>
      </trkpt>
      <trkpt lat="46.48578" lon="5.36325">
        <ele>236.8</ele>
        <time>2022-07-07T05:29:11Z</time>
      </trkpt>
      <trkpt lat="46.48586" lon="5.36324">
        <ele>236.6</ele>
        <time>2022-07-07T05:29:12Z</time>
      </trkpt>
      <trkpt lat="46.48601" lon="5.36322">
        <ele>236.4</ele>
        <time>2022-07-07T05:29:14Z</time>
      </trkpt>
      <trkpt lat="46.48609" lon="5.3632">
        <ele>236.2</ele>
        <time>2022-07-07T05:29:15Z</time>
      </trkpt>
      <trkpt lat="46.48616" lon="5.36317">
        <ele>236</ele>
        <time>2022-07-07T05:29:16Z</time>
      </trkpt>
      <trkpt lat="46.48624" lon="5.36311">
        <ele>235.8</ele>
        <time>2022-07-07T05:29:17Z</time>
      </trkpt>
      <trkpt lat="46.48635" lon="5.36292">
        <ele>235.4</ele>
        <time>2022-07-07T05:29:19Z</time>
      </trkpt>
      <trkpt lat="46.48641" lon="5.36253">
        <ele>233.8</ele>
        <time>2022-07-07T05:29:22Z</time>
      </trkpt>
      <trkpt lat="46.48643" lon="5.3624">
        <ele>233.6</ele>
        <time>2022-07-07T05:29:23Z</time>
      </trkpt>
      <trkpt lat="46.48646" lon="5.36201">
        <ele>232.6</ele>
        <time>2022-07-07T05:29:26Z</time>
      </trkpt>
      <trkpt lat="46.48648" lon="5.36163">
        <ele>231.6</ele>
        <time>2022-07-07T05:29:29Z</time>
      </trkpt>
      <trkpt lat="46.48653" lon="5.36126">
        <ele>231</ele>
        <time>2022-07-07T05:29:32Z</time>
      </trkpt>
      <trkpt lat="46.4866" lon="5.36091">
        <ele>230.4</ele>
        <time>2022-07-07T05:29:35Z</time>
      </trkpt>
      <trkpt lat="46.4867" lon="5.36049">
        <ele>230.2</ele>
        <time>2022-07-07T05:29:39Z</time>
      </trkpt>
      <trkpt lat="46.48678" lon="5.36004">
        <ele>230.2</ele>
        <time>2022-07-07T05:29:44Z</time>
      </trkpt>
      <trkpt lat="46.48684" lon="5.3596">
        <ele>231.6</ele>
        <time>2022-07-07T05:29:49Z</time>
      </trkpt>
      <trkpt lat="46.4869" lon="5.3592">
        <ele>231.8</ele>
        <time>2022-07-07T05:29:53Z</time>
      </trkpt>
      <trkpt lat="46.48699" lon="5.35891">
        <ele>231.8</ele>
        <time>2022-07-07T05:29:56Z</time>
      </trkpt>
      <trkpt lat="46.48727" lon="5.35823">
        <ele>231</ele>
        <time>2022-07-07T05:30:03Z</time>
      </trkpt>
      <trkpt lat="46.48731" lon="5.35813">
        <ele>231</ele>
        <time>2022-07-07T05:30:04Z</time>
      </trkpt>
      <trkpt lat="46.48743" lon="5.35785">
        <ele>230.4</ele>
        <time>2022-07-07T05:30:07Z</time>
      </trkpt>
      <trkpt lat="46.48758" lon="5.35751">
        <ele>229.4</ele>
        <time>2022-07-07T05:30:11Z</time>
      </trkpt>
      <trkpt lat="46.48768" lon="5.35729">
        <ele>228.8</ele>
        <time>2022-07-07T05:30:13Z</time>
      </trkpt>
      <trkpt lat="46.48795" lon="5.3567">
        <ele>228.4</ele>
        <time>2022-07-07T05:30:20Z</time>
      </trkpt>
      <trkpt lat="46.48815" lon="5.35624">
        <ele>228.4</ele>
        <time>2022-07-07T05:30:26Z</time>
      </trkpt>
      <trkpt lat="46.48829" lon="5.35592">
        <ele>228.4</ele>
        <time>2022-07-07T05:30:30Z</time>
      </trkpt>
      <trkpt lat="46.48836" lon="5.35577">
        <ele>228.4</ele>
        <time>2022-07-07T05:30:32Z</time>
      </trkpt>
      <trkpt lat="46.4884" lon="5.3557">
        <ele>228.4</ele>
        <time>2022-07-07T05:30:33Z</time>
      </trkpt>
      <trkpt lat="46.48849" lon="5.35561">
        <ele>228.4</ele>
        <time>2022-07-07T05:30:35Z</time>
      </trkpt>
      <trkpt lat="46.48883" lon="5.35558">
        <ele>228.4</ele>
        <time>2022-07-07T05:30:40Z</time>
      </trkpt>
      <trkpt lat="46.48927" lon="5.35557">
        <ele>228.2</ele>
        <time>2022-07-07T05:30:46Z</time>
      </trkpt>
      <trkpt lat="46.48984" lon="5.35554">
        <ele>226.8</ele>
        <time>2022-07-07T05:30:53Z</time>
      </trkpt>
      <trkpt lat="46.48992" lon="5.35554">
        <ele>226.6</ele>
        <time>2022-07-07T05:30:54Z</time>
      </trkpt>
      <trkpt lat="46.49036" lon="5.35553">
        <ele>225.8</ele>
        <time>2022-07-07T05:31:00Z</time>
      </trkpt>
      <trkpt lat="46.4905" lon="5.35552">
        <ele>225.6</ele>
        <time>2022-07-07T05:31:02Z</time>
      </trkpt>
      <trkpt lat="46.49057" lon="5.35551">
        <ele>225.6</ele>
        <time>2022-07-07T05:31:03Z</time>
      </trkpt>
      <trkpt lat="46.49093" lon="5.35549">
        <ele>226.4</ele>
        <time>2022-07-07T05:31:09Z</time>
      </trkpt>
      <trkpt lat="46.49121" lon="5.35547">
        <ele>227</ele>
        <time>2022-07-07T05:31:14Z</time>
      </trkpt>
      <trkpt lat="46.49137" lon="5.35546">
        <ele>227.4</ele>
        <time>2022-07-07T05:31:17Z</time>
      </trkpt>
      <trkpt lat="46.49158" lon="5.35546">
        <ele>228</ele>
        <time>2022-07-07T05:31:21Z</time>
      </trkpt>
      <trkpt lat="46.49164" lon="5.35545">
        <ele>228</ele>
        <time>2022-07-07T05:31:22Z</time>
      </trkpt>
      <trkpt lat="46.49185" lon="5.35543">
        <ele>228.4</ele>
        <time>2022-07-07T05:31:26Z</time>
      </trkpt>
      <trkpt lat="46.49211" lon="5.35541">
        <ele>229.2</ele>
        <time>2022-07-07T05:31:30Z</time>
      </trkpt>
      <trkpt lat="46.49218" lon="5.3554">
        <ele>229.2</ele>
        <time>2022-07-07T05:31:31Z</time>
      </trkpt>
      <trkpt lat="46.49225" lon="5.3554">
        <ele>229.4</ele>
        <time>2022-07-07T05:31:32Z</time>
      </trkpt>
      <trkpt lat="46.49239" lon="5.35538">
        <ele>229.6</ele>
        <time>2022-07-07T05:31:34Z</time>
      </trkpt>
      <trkpt lat="46.49245" lon="5.35537">
        <ele>229.6</ele>
        <time>2022-07-07T05:31:35Z</time>
      </trkpt>
      <trkpt lat="46.49295" lon="5.35534">
        <ele>229.8</ele>
        <time>2022-07-07T05:31:42Z</time>
      </trkpt>
      <trkpt lat="46.4931" lon="5.35534">
        <ele>229.8</ele>
        <time>2022-07-07T05:31:45Z</time>
      </trkpt>
      <trkpt lat="46.49327" lon="5.35535">
        <ele>229.8</ele>
        <time>2022-07-07T05:31:47Z</time>
      </trkpt>
      <trkpt lat="46.49368" lon="5.35534">
        <ele>229.4</ele>
        <time>2022-07-07T05:31:53Z</time>
      </trkpt>
      <trkpt lat="46.49412" lon="5.35542">
        <ele>228.4</ele>
        <time>2022-07-07T05:31:59Z</time>
      </trkpt>
      <trkpt lat="46.49419" lon="5.35545">
        <ele>228.2</ele>
        <time>2022-07-07T05:32:00Z</time>
      </trkpt>
      <trkpt lat="46.49475" lon="5.35568">
        <ele>227.4</ele>
        <time>2022-07-07T05:32:08Z</time>
      </trkpt>
      <trkpt lat="46.49524" lon="5.3559">
        <ele>227</ele>
        <time>2022-07-07T05:32:15Z</time>
      </trkpt>
      <trkpt lat="46.49531" lon="5.35593">
        <ele>226.8</ele>
        <time>2022-07-07T05:32:16Z</time>
      </trkpt>
      <trkpt lat="46.4958" lon="5.35611">
        <ele>225.8</ele>
        <time>2022-07-07T05:32:23Z</time>
      </trkpt>
      <trkpt lat="46.49596" lon="5.35616">
        <ele>225.6</ele>
        <time>2022-07-07T05:32:25Z</time>
      </trkpt>
      <trkpt lat="46.49625" lon="5.35625">
        <ele>224.8</ele>
        <time>2022-07-07T05:32:29Z</time>
      </trkpt>
      <trkpt lat="46.49653" lon="5.35634">
        <ele>224.4</ele>
        <time>2022-07-07T05:32:33Z</time>
      </trkpt>
      <trkpt lat="46.49686" lon="5.35645">
        <ele>223.6</ele>
        <time>2022-07-07T05:32:38Z</time>
      </trkpt>
      <trkpt lat="46.49689" lon="5.35646">
        <ele>223.6</ele>
        <time>2022-07-07T05:32:39Z</time>
      </trkpt>
      <trkpt lat="46.49693" lon="5.35646">
        <ele>223.4</ele>
        <time>2022-07-07T05:32:40Z</time>
      </trkpt>
      <trkpt lat="46.49696" lon="5.35644">
        <ele>223.2</ele>
        <time>2022-07-07T05:32:41Z</time>
      </trkpt>
      <trkpt lat="46.49701" lon="5.35636">
        <ele>223</ele>
        <time>2022-07-07T05:32:43Z</time>
      </trkpt>
      <trkpt lat="46.49703" lon="5.3563">
        <ele>222.8</ele>
        <time>2022-07-07T05:32:44Z</time>
      </trkpt>
      <trkpt lat="46.49705" lon="5.35624">
        <ele>222.6</ele>
        <time>2022-07-07T05:32:45Z</time>
      </trkpt>
      <trkpt lat="46.49706" lon="5.35612">
        <ele>222.4</ele>
        <time>2022-07-07T05:32:46Z</time>
      </trkpt>
      <trkpt lat="46.49712" lon="5.35562">
        <ele>222.2</ele>
        <time>2022-07-07T05:32:51Z</time>
      </trkpt>
      <trkpt lat="46.49723" lon="5.35481">
        <ele>221.8</ele>
        <time>2022-07-07T05:32:59Z</time>
      </trkpt>
      <trkpt lat="46.49724" lon="5.3547">
        <ele>221.8</ele>
        <time>2022-07-07T05:33:00Z</time>
      </trkpt>
      <trkpt lat="46.49729" lon="5.35428">
        <ele>221.4</ele>
        <time>2022-07-07T05:33:04Z</time>
      </trkpt>
      <trkpt lat="46.49736" lon="5.35363">
        <ele>220.6</ele>
        <time>2022-07-07T05:33:10Z</time>
      </trkpt>
      <trkpt lat="46.49736" lon="5.35342">
        <ele>220.2</ele>
        <time>2022-07-07T05:33:12Z</time>
      </trkpt>
      <trkpt lat="46.49733" lon="5.35312">
        <ele>220</ele>
        <time>2022-07-07T05:33:15Z</time>
      </trkpt>
      <trkpt lat="46.4972" lon="5.35251">
        <ele>220</ele>
        <time>2022-07-07T05:33:22Z</time>
      </trkpt>
      <trkpt lat="46.49705" lon="5.35175">
        <ele>221</ele>
        <time>2022-07-07T05:33:31Z</time>
      </trkpt>
      <trkpt lat="46.49703" lon="5.35163">
        <ele>221</ele>
        <time>2022-07-07T05:33:32Z</time>
      </trkpt>
      <trkpt lat="46.49693" lon="5.35115">
        <ele>220.8</ele>
        <time>2022-07-07T05:33:37Z</time>
      </trkpt>
      <trkpt lat="46.49677" lon="5.35042">
        <ele>220.6</ele>
        <time>2022-07-07T05:33:45Z</time>
      </trkpt>
      <trkpt lat="46.49666" lon="5.34986">
        <ele>221.4</ele>
        <time>2022-07-07T05:33:52Z</time>
      </trkpt>
      <trkpt lat="46.49661" lon="5.3497">
        <ele>221.6</ele>
        <time>2022-07-07T05:33:54Z</time>
      </trkpt>
      <trkpt lat="46.49657" lon="5.34948">
        <ele>221.6</ele>
        <time>2022-07-07T05:33:57Z</time>
      </trkpt>
      <trkpt lat="46.49649" lon="5.34903">
        <ele>222.2</ele>
        <time>2022-07-07T05:34:03Z</time>
      </trkpt>
      <trkpt lat="46.49646" lon="5.34888">
        <ele>222.4</ele>
        <time>2022-07-07T05:34:05Z</time>
      </trkpt>
      <trkpt lat="46.49633" lon="5.34814">
        <ele>222.8</ele>
        <time>2022-07-07T05:34:14Z</time>
      </trkpt>
      <trkpt lat="46.49629" lon="5.34757">
        <ele>222.4</ele>
        <time>2022-07-07T05:34:19Z</time>
      </trkpt>
      <trkpt lat="46.4963" lon="5.34694">
        <ele>221</ele>
        <time>2022-07-07T05:34:24Z</time>
      </trkpt>
      <trkpt lat="46.49631" lon="5.34682">
        <ele>220.6</ele>
        <time>2022-07-07T05:34:25Z</time>
      </trkpt>
      <trkpt lat="46.49635" lon="5.34643">
        <ele>219.6</ele>
        <time>2022-07-07T05:34:28Z</time>
      </trkpt>
      <trkpt lat="46.4964" lon="5.34605">
        <ele>218.4</ele>
        <time>2022-07-07T05:34:31Z</time>
      </trkpt>
      <trkpt lat="46.49642" lon="5.34589">
        <ele>218</ele>
        <time>2022-07-07T05:34:32Z</time>
      </trkpt>
      <trkpt lat="46.49644" lon="5.34575">
        <ele>217.4</ele>
        <time>2022-07-07T05:34:33Z</time>
      </trkpt>
      <trkpt lat="46.4965" lon="5.34538">
        <ele>216.2</ele>
        <time>2022-07-07T05:34:36Z</time>
      </trkpt>
      <trkpt lat="46.49659" lon="5.345">
        <ele>215.4</ele>
        <time>2022-07-07T05:34:39Z</time>
      </trkpt>
      <trkpt lat="46.4967" lon="5.3446">
        <ele>215.2</ele>
        <time>2022-07-07T05:34:43Z</time>
      </trkpt>
      <trkpt lat="46.49682" lon="5.34424">
        <ele>215.8</ele>
        <time>2022-07-07T05:34:47Z</time>
      </trkpt>
      <trkpt lat="46.49694" lon="5.34375">
        <ele>217</ele>
        <time>2022-07-07T05:34:53Z</time>
      </trkpt>
      <trkpt lat="46.49697" lon="5.34359">
        <ele>217.4</ele>
        <time>2022-07-07T05:34:55Z</time>
      </trkpt>
      <trkpt lat="46.49706" lon="5.3433">
        <ele>218</ele>
        <time>2022-07-07T05:34:59Z</time>
      </trkpt>
      <trkpt lat="46.49713" lon="5.34316">
        <ele>218.6</ele>
        <time>2022-07-07T05:35:01Z</time>
      </trkpt>
      <trkpt lat="46.49723" lon="5.34293">
        <ele>219.4</ele>
        <time>2022-07-07T05:35:04Z</time>
      </trkpt>
      <trkpt lat="46.49726" lon="5.34285">
        <ele>219.6</ele>
        <time>2022-07-07T05:35:05Z</time>
      </trkpt>
      <trkpt lat="46.49734" lon="5.34271">
        <ele>219.8</ele>
        <time>2022-07-07T05:35:07Z</time>
      </trkpt>
      <trkpt lat="46.49747" lon="5.34249">
        <ele>220</ele>
        <time>2022-07-07T05:35:10Z</time>
      </trkpt>
      <trkpt lat="46.49777" lon="5.34201">
        <ele>220.4</ele>
        <time>2022-07-07T05:35:17Z</time>
      </trkpt>
      <trkpt lat="46.49781" lon="5.34195">
        <ele>220.4</ele>
        <time>2022-07-07T05:35:18Z</time>
      </trkpt>
      <trkpt lat="46.49808" lon="5.34149">
        <ele>220.8</ele>
        <time>2022-07-07T05:35:25Z</time>
      </trkpt>
      <trkpt lat="46.49838" lon="5.34103">
        <ele>221</ele>
        <time>2022-07-07T05:35:32Z</time>
      </trkpt>
      <trkpt lat="46.49859" lon="5.34068">
        <ele>221</ele>
        <time>2022-07-07T05:35:37Z</time>
      </trkpt>
      <trkpt lat="46.49869" lon="5.34055">
        <ele>221</ele>
        <time>2022-07-07T05:35:39Z</time>
      </trkpt>
      <trkpt lat="46.49889" lon="5.34032">
        <ele>220.8</ele>
        <time>2022-07-07T05:35:43Z</time>
      </trkpt>
      <trkpt lat="46.49904" lon="5.34016">
        <ele>220.6</ele>
        <time>2022-07-07T05:35:46Z</time>
      </trkpt>
      <trkpt lat="46.49936" lon="5.33981">
        <ele>221</ele>
        <time>2022-07-07T05:35:53Z</time>
      </trkpt>
      <trkpt lat="46.49948" lon="5.33967">
        <ele>221.4</ele>
        <time>2022-07-07T05:35:56Z</time>
      </trkpt>
      <trkpt lat="46.49953" lon="5.33962">
        <ele>221.6</ele>
        <time>2022-07-07T05:35:57Z</time>
      </trkpt>
      <trkpt lat="46.49957" lon="5.33957">
        <ele>221.6</ele>
        <time>2022-07-07T05:35:58Z</time>
      </trkpt>
      <trkpt lat="46.49996" lon="5.33915">
        <ele>222.4</ele>
        <time>2022-07-07T05:36:06Z</time>
      </trkpt>
      <trkpt lat="46.5003" lon="5.33875">
        <ele>222.8</ele>
        <time>2022-07-07T05:36:13Z</time>
      </trkpt>
      <trkpt lat="46.50077" lon="5.33823">
        <ele>222.4</ele>
        <time>2022-07-07T05:36:21Z</time>
      </trkpt>
      <trkpt lat="46.50107" lon="5.3379">
        <ele>221.4</ele>
        <time>2022-07-07T05:36:26Z</time>
      </trkpt>
      <trkpt lat="46.50119" lon="5.33778">
        <ele>221</ele>
        <time>2022-07-07T05:36:28Z</time>
      </trkpt>
      <trkpt lat="46.50143" lon="5.33752">
        <ele>220.4</ele>
        <time>2022-07-07T05:36:32Z</time>
      </trkpt>
      <trkpt lat="46.50165" lon="5.33729">
        <ele>220.2</ele>
        <time>2022-07-07T05:36:36Z</time>
      </trkpt>
      <trkpt lat="46.50171" lon="5.33723">
        <ele>220.2</ele>
        <time>2022-07-07T05:36:37Z</time>
      </trkpt>
      <trkpt lat="46.502" lon="5.33692">
        <ele>220.6</ele>
        <time>2022-07-07T05:36:43Z</time>
      </trkpt>
      <trkpt lat="46.50208" lon="5.33684">
        <ele>220.6</ele>
        <time>2022-07-07T05:36:44Z</time>
      </trkpt>
      <trkpt lat="46.50252" lon="5.33636">
        <ele>220.8</ele>
        <time>2022-07-07T05:36:52Z</time>
      </trkpt>
      <trkpt lat="46.50285" lon="5.336">
        <ele>220.6</ele>
        <time>2022-07-07T05:36:58Z</time>
      </trkpt>
      <trkpt lat="46.50325" lon="5.33558">
        <ele>219.8</ele>
        <time>2022-07-07T05:37:05Z</time>
      </trkpt>
      <trkpt lat="46.5037" lon="5.3351">
        <ele>219.2</ele>
        <time>2022-07-07T05:37:13Z</time>
      </trkpt>
      <trkpt lat="46.5038" lon="5.33499">
        <ele>219.2</ele>
        <time>2022-07-07T05:37:15Z</time>
      </trkpt>
      <trkpt lat="46.50416" lon="5.3346">
        <ele>218.8</ele>
        <time>2022-07-07T05:37:21Z</time>
      </trkpt>
      <trkpt lat="46.50426" lon="5.33447">
        <ele>218.6</ele>
        <time>2022-07-07T05:37:23Z</time>
      </trkpt>
      <trkpt lat="46.50443" lon="5.33425">
        <ele>217.8</ele>
        <time>2022-07-07T05:37:26Z</time>
      </trkpt>
      <trkpt lat="46.50452" lon="5.33408">
        <ele>217.6</ele>
        <time>2022-07-07T05:37:28Z</time>
      </trkpt>
      <trkpt lat="46.50462" lon="5.33378">
        <ele>217.2</ele>
        <time>2022-07-07T05:37:31Z</time>
      </trkpt>
      <trkpt lat="46.50469" lon="5.33346">
        <ele>216.8</ele>
        <time>2022-07-07T05:37:34Z</time>
      </trkpt>
      <trkpt lat="46.50469" lon="5.33336">
        <ele>216.6</ele>
        <time>2022-07-07T05:37:35Z</time>
      </trkpt>
      <trkpt lat="46.50469" lon="5.33318">
        <ele>216.6</ele>
        <time>2022-07-07T05:37:37Z</time>
      </trkpt>
      <trkpt lat="46.50469" lon="5.33308">
        <ele>216.6</ele>
        <time>2022-07-07T05:37:38Z</time>
      </trkpt>
      <trkpt lat="46.50468" lon="5.33277">
        <ele>216.4</ele>
        <time>2022-07-07T05:37:41Z</time>
      </trkpt>
      <trkpt lat="46.50466" lon="5.33255">
        <ele>216.4</ele>
        <time>2022-07-07T05:37:43Z</time>
      </trkpt>
      <trkpt lat="46.50467" lon="5.33216">
        <ele>216.6</ele>
        <time>2022-07-07T05:37:47Z</time>
      </trkpt>
      <trkpt lat="46.50466" lon="5.33207">
        <ele>216.6</ele>
        <time>2022-07-07T05:37:48Z</time>
      </trkpt>
      <trkpt lat="46.50464" lon="5.33198">
        <ele>216.6</ele>
        <time>2022-07-07T05:37:49Z</time>
      </trkpt>
      <trkpt lat="46.50461" lon="5.33159">
        <ele>216.8</ele>
        <time>2022-07-07T05:37:53Z</time>
      </trkpt>
      <trkpt lat="46.50462" lon="5.33148">
        <ele>216.8</ele>
        <time>2022-07-07T05:37:54Z</time>
      </trkpt>
      <trkpt lat="46.50468" lon="5.33087">
        <ele>216.4</ele>
        <time>2022-07-07T05:37:59Z</time>
      </trkpt>
      <trkpt lat="46.50468" lon="5.33044">
        <ele>215.2</ele>
        <time>2022-07-07T05:38:02Z</time>
      </trkpt>
      <trkpt lat="46.50468" lon="5.3303">
        <ele>214.8</ele>
        <time>2022-07-07T05:38:03Z</time>
      </trkpt>
      <trkpt lat="46.5047" lon="5.33003">
        <ele>214.2</ele>
        <time>2022-07-07T05:38:05Z</time>
      </trkpt>
      <trkpt lat="46.50472" lon="5.32974">
        <ele>213.2</ele>
        <time>2022-07-07T05:38:07Z</time>
      </trkpt>
      <trkpt lat="46.50472" lon="5.32945">
        <ele>212.4</ele>
        <time>2022-07-07T05:38:09Z</time>
      </trkpt>
      <trkpt lat="46.50473" lon="5.3293">
        <ele>211.6</ele>
        <time>2022-07-07T05:38:10Z</time>
      </trkpt>
      <trkpt lat="46.50474" lon="5.32899">
        <ele>210.4</ele>
        <time>2022-07-07T05:38:13Z</time>
      </trkpt>
      <trkpt lat="46.50475" lon="5.32858">
        <ele>209.4</ele>
        <time>2022-07-07T05:38:15Z</time>
      </trkpt>
      <trkpt lat="46.50476" lon="5.32822">
        <ele>208.2</ele>
        <time>2022-07-07T05:38:17Z</time>
      </trkpt>
      <trkpt lat="46.50477" lon="5.32765">
        <ele>206.6</ele>
        <time>2022-07-07T05:38:21Z</time>
      </trkpt>
      <trkpt lat="46.50478" lon="5.32724">
        <ele>205.2</ele>
        <time>2022-07-07T05:38:24Z</time>
      </trkpt>
      <trkpt lat="46.50478" lon="5.3271">
        <ele>205</ele>
        <time>2022-07-07T05:38:25Z</time>
      </trkpt>
      <trkpt lat="46.50479" lon="5.32648">
        <ele>204.2</ele>
        <time>2022-07-07T05:38:30Z</time>
      </trkpt>
      <trkpt lat="46.5048" lon="5.32621">
        <ele>203.8</ele>
        <time>2022-07-07T05:38:32Z</time>
      </trkpt>
      <trkpt lat="46.50477" lon="5.32557">
        <ele>203</ele>
        <time>2022-07-07T05:38:37Z</time>
      </trkpt>
      <trkpt lat="46.50476" lon="5.32531">
        <ele>202.8</ele>
        <time>2022-07-07T05:38:39Z</time>
      </trkpt>
      <trkpt lat="46.50472" lon="5.32468">
        <ele>202</ele>
        <time>2022-07-07T05:38:44Z</time>
      </trkpt>
      <trkpt lat="46.50466" lon="5.32423">
        <ele>201.4</ele>
        <time>2022-07-07T05:38:48Z</time>
      </trkpt>
      <trkpt lat="46.50456" lon="5.32376">
        <ele>201</ele>
        <time>2022-07-07T05:38:52Z</time>
      </trkpt>
      <trkpt lat="46.50446" lon="5.3233">
        <ele>200.6</ele>
        <time>2022-07-07T05:38:56Z</time>
      </trkpt>
      <trkpt lat="46.50435" lon="5.32265">
        <ele>200.4</ele>
        <time>2022-07-07T05:39:02Z</time>
      </trkpt>
      <trkpt lat="46.50434" lon="5.32185">
        <ele>200.2</ele>
        <time>2022-07-07T05:39:09Z</time>
      </trkpt>
      <trkpt lat="46.50436" lon="5.32099">
        <ele>200</ele>
        <time>2022-07-07T05:39:16Z</time>
      </trkpt>
      <trkpt lat="46.50436" lon="5.32087">
        <ele>200</ele>
        <time>2022-07-07T05:39:17Z</time>
      </trkpt>
      <trkpt lat="46.50438" lon="5.32016">
        <ele>198.8</ele>
        <time>2022-07-07T05:39:23Z</time>
      </trkpt>
      <trkpt lat="46.50439" lon="5.31969">
        <ele>198</ele>
        <time>2022-07-07T05:39:27Z</time>
      </trkpt>
      <trkpt lat="46.5044" lon="5.31935">
        <ele>197.8</ele>
        <time>2022-07-07T05:39:30Z</time>
      </trkpt>
      <trkpt lat="46.5044" lon="5.31879">
        <ele>197.4</ele>
        <time>2022-07-07T05:39:35Z</time>
      </trkpt>
      <trkpt lat="46.50439" lon="5.31868">
        <ele>197.4</ele>
        <time>2022-07-07T05:39:36Z</time>
      </trkpt>
      <trkpt lat="46.50434" lon="5.31836">
        <ele>197.2</ele>
        <time>2022-07-07T05:39:39Z</time>
      </trkpt>
      <trkpt lat="46.50413" lon="5.31756">
        <ele>196.8</ele>
        <time>2022-07-07T05:39:47Z</time>
      </trkpt>
      <trkpt lat="46.50389" lon="5.31701">
        <ele>196.8</ele>
        <time>2022-07-07T05:39:53Z</time>
      </trkpt>
      <trkpt lat="46.50356" lon="5.31654">
        <ele>196.2</ele>
        <time>2022-07-07T05:39:59Z</time>
      </trkpt>
      <trkpt lat="46.5035" lon="5.31648">
        <ele>196.2</ele>
        <time>2022-07-07T05:40:00Z</time>
      </trkpt>
      <trkpt lat="46.50322" lon="5.31628">
        <ele>195.8</ele>
        <time>2022-07-07T05:40:04Z</time>
      </trkpt>
      <trkpt lat="46.50315" lon="5.31623">
        <ele>195.8</ele>
        <time>2022-07-07T05:40:05Z</time>
      </trkpt>
      <trkpt lat="46.50263" lon="5.3158">
        <ele>195.6</ele>
        <time>2022-07-07T05:40:13Z</time>
      </trkpt>
      <trkpt lat="46.50229" lon="5.31537">
        <ele>195.6</ele>
        <time>2022-07-07T05:40:19Z</time>
      </trkpt>
      <trkpt lat="46.50212" lon="5.315">
        <ele>196</ele>
        <time>2022-07-07T05:40:24Z</time>
      </trkpt>
      <trkpt lat="46.502" lon="5.31464">
        <ele>196.8</ele>
        <time>2022-07-07T05:40:29Z</time>
      </trkpt>
      <trkpt lat="46.50193" lon="5.31443">
        <ele>197.4</ele>
        <time>2022-07-07T05:40:32Z</time>
      </trkpt>
      <trkpt lat="46.50189" lon="5.31431">
        <ele>198.4</ele>
        <time>2022-07-07T05:40:34Z</time>
      </trkpt>
      <trkpt lat="46.5018" lon="5.31406">
        <ele>199.4</ele>
        <time>2022-07-07T05:40:38Z</time>
      </trkpt>
      <trkpt lat="46.50176" lon="5.31394">
        <ele>200</ele>
        <time>2022-07-07T05:40:40Z</time>
      </trkpt>
      <trkpt lat="46.50174" lon="5.31388">
        <ele>200.2</ele>
        <time>2022-07-07T05:40:41Z</time>
      </trkpt>
      <trkpt lat="46.5017" lon="5.31374">
        <ele>200.6</ele>
        <time>2022-07-07T05:40:44Z</time>
      </trkpt>
      <trkpt lat="46.50167" lon="5.31365">
        <ele>200.8</ele>
        <time>2022-07-07T05:40:45Z</time>
      </trkpt>
      <trkpt lat="46.50165" lon="5.31361">
        <ele>201</ele>
        <time>2022-07-07T05:40:46Z</time>
      </trkpt>
      <trkpt lat="46.50159" lon="5.31342">
        <ele>201.8</ele>
        <time>2022-07-07T05:40:49Z</time>
      </trkpt>
      <trkpt lat="46.50153" lon="5.31323">
        <ele>202.4</ele>
        <time>2022-07-07T05:40:52Z</time>
      </trkpt>
      <trkpt lat="46.50143" lon="5.31295">
        <ele>202.8</ele>
        <time>2022-07-07T05:40:56Z</time>
      </trkpt>
      <trkpt lat="46.50138" lon="5.31279">
        <ele>203</ele>
        <time>2022-07-07T05:40:58Z</time>
      </trkpt>
      <trkpt lat="46.50118" lon="5.31221">
        <ele>203.2</ele>
        <time>2022-07-07T05:41:05Z</time>
      </trkpt>
      <trkpt lat="46.5009" lon="5.31142">
        <ele>201.8</ele>
        <time>2022-07-07T05:41:13Z</time>
      </trkpt>
      <trkpt lat="46.50087" lon="5.31132">
        <ele>201.6</ele>
        <time>2022-07-07T05:41:14Z</time>
      </trkpt>
      <trkpt lat="46.50064" lon="5.31068">
        <ele>201</ele>
        <time>2022-07-07T05:41:21Z</time>
      </trkpt>
      <trkpt lat="46.50048" lon="5.31021">
        <ele>201.6</ele>
        <time>2022-07-07T05:41:27Z</time>
      </trkpt>
      <trkpt lat="46.50041" lon="5.31003">
        <ele>202.6</ele>
        <time>2022-07-07T05:41:30Z</time>
      </trkpt>
      <trkpt lat="46.50039" lon="5.30997">
        <ele>202.8</ele>
        <time>2022-07-07T05:41:31Z</time>
      </trkpt>
      <trkpt lat="46.50032" lon="5.30974">
        <ele>203.8</ele>
        <time>2022-07-07T05:41:35Z</time>
      </trkpt>
      <trkpt lat="46.50026" lon="5.30956">
        <ele>204.6</ele>
        <time>2022-07-07T05:41:38Z</time>
      </trkpt>
      <trkpt lat="46.50022" lon="5.30944">
        <ele>205.2</ele>
        <time>2022-07-07T05:41:40Z</time>
      </trkpt>
      <trkpt lat="46.50018" lon="5.30933">
        <ele>205.8</ele>
        <time>2022-07-07T05:41:42Z</time>
      </trkpt>
      <trkpt lat="46.50013" lon="5.30921">
        <ele>206.6</ele>
        <time>2022-07-07T05:41:44Z</time>
      </trkpt>
      <trkpt lat="46.50009" lon="5.30911">
        <ele>207</ele>
        <time>2022-07-07T05:41:46Z</time>
      </trkpt>
      <trkpt lat="46.50005" lon="5.309">
        <ele>207.4</ele>
        <time>2022-07-07T05:41:48Z</time>
      </trkpt>
      <trkpt lat="46.50002" lon="5.30894">
        <ele>207.8</ele>
        <time>2022-07-07T05:41:49Z</time>
      </trkpt>
      <trkpt lat="46.49995" lon="5.30874">
        <ele>209</ele>
        <time>2022-07-07T05:41:53Z</time>
      </trkpt>
      <trkpt lat="46.49984" lon="5.30844">
        <ele>210.2</ele>
        <time>2022-07-07T05:41:59Z</time>
      </trkpt>
      <trkpt lat="46.4998" lon="5.3083">
        <ele>210.8</ele>
        <time>2022-07-07T05:42:01Z</time>
      </trkpt>
      <trkpt lat="46.49975" lon="5.30812">
        <ele>211.2</ele>
        <time>2022-07-07T05:42:04Z</time>
      </trkpt>
      <trkpt lat="46.49967" lon="5.30779">
        <ele>212.2</ele>
        <time>2022-07-07T05:42:09Z</time>
      </trkpt>
      <trkpt lat="46.49957" lon="5.30724">
        <ele>213</ele>
        <time>2022-07-07T05:42:17Z</time>
      </trkpt>
      <trkpt lat="46.49948" lon="5.30677">
        <ele>213.2</ele>
        <time>2022-07-07T05:42:23Z</time>
      </trkpt>
      <trkpt lat="46.49939" lon="5.30631">
        <ele>212.6</ele>
        <time>2022-07-07T05:42:28Z</time>
      </trkpt>
      <trkpt lat="46.49933" lon="5.30564">
        <ele>211.2</ele>
        <time>2022-07-07T05:42:34Z</time>
      </trkpt>
      <trkpt lat="46.49935" lon="5.30541">
        <ele>210.6</ele>
        <time>2022-07-07T05:42:36Z</time>
      </trkpt>
      <trkpt lat="46.49942" lon="5.30507">
        <ele>210</ele>
        <time>2022-07-07T05:42:39Z</time>
      </trkpt>
      <trkpt lat="46.49946" lon="5.30496">
        <ele>209.8</ele>
        <time>2022-07-07T05:42:40Z</time>
      </trkpt>
      <trkpt lat="46.49959" lon="5.30468">
        <ele>209</ele>
        <time>2022-07-07T05:42:43Z</time>
      </trkpt>
      <trkpt lat="46.49965" lon="5.30459">
        <ele>208.4</ele>
        <time>2022-07-07T05:42:44Z</time>
      </trkpt>
      <trkpt lat="46.49988" lon="5.30436">
        <ele>208</ele>
        <time>2022-07-07T05:42:47Z</time>
      </trkpt>
      <trkpt lat="46.50003" lon="5.30423">
        <ele>207.2</ele>
        <time>2022-07-07T05:42:49Z</time>
      </trkpt>
      <trkpt lat="46.50032" lon="5.304">
        <ele>206</ele>
        <time>2022-07-07T05:42:53Z</time>
      </trkpt>
      <trkpt lat="46.50039" lon="5.30393">
        <ele>205.6</ele>
        <time>2022-07-07T05:42:54Z</time>
      </trkpt>
      <trkpt lat="46.50058" lon="5.3037">
        <ele>205</ele>
        <time>2022-07-07T05:42:57Z</time>
      </trkpt>
      <trkpt lat="46.50063" lon="5.30361">
        <ele>204.8</ele>
        <time>2022-07-07T05:42:58Z</time>
      </trkpt>
      <trkpt lat="46.50071" lon="5.30343">
        <ele>204.6</ele>
        <time>2022-07-07T05:43:00Z</time>
      </trkpt>
      <trkpt lat="46.50075" lon="5.30334">
        <ele>204.4</ele>
        <time>2022-07-07T05:43:01Z</time>
      </trkpt>
      <trkpt lat="46.50085" lon="5.30289">
        <ele>204.4</ele>
        <time>2022-07-07T05:43:06Z</time>
      </trkpt>
      <trkpt lat="46.50089" lon="5.30235">
        <ele>205.4</ele>
        <time>2022-07-07T05:43:12Z</time>
      </trkpt>
      <trkpt lat="46.50089" lon="5.30226">
        <ele>205.8</ele>
        <time>2022-07-07T05:43:13Z</time>
      </trkpt>
      <trkpt lat="46.50091" lon="5.30207">
        <ele>206.2</ele>
        <time>2022-07-07T05:43:15Z</time>
      </trkpt>
      <trkpt lat="46.50091" lon="5.30198">
        <ele>206.4</ele>
        <time>2022-07-07T05:43:16Z</time>
      </trkpt>
      <trkpt lat="46.50091" lon="5.30188">
        <ele>206.4</ele>
        <time>2022-07-07T05:43:17Z</time>
      </trkpt>
      <trkpt lat="46.50091" lon="5.30178">
        <ele>206.6</ele>
        <time>2022-07-07T05:43:18Z</time>
      </trkpt>
      <trkpt lat="46.50091" lon="5.30158">
        <ele>206.8</ele>
        <time>2022-07-07T05:43:20Z</time>
      </trkpt>
      <trkpt lat="46.50092" lon="5.30119">
        <ele>207.2</ele>
        <time>2022-07-07T05:43:24Z</time>
      </trkpt>
      <trkpt lat="46.50092" lon="5.30102">
        <ele>207.6</ele>
        <time>2022-07-07T05:43:26Z</time>
      </trkpt>
      <trkpt lat="46.50092" lon="5.30074">
        <ele>208</ele>
        <time>2022-07-07T05:43:29Z</time>
      </trkpt>
      <trkpt lat="46.50092" lon="5.30065">
        <ele>208.2</ele>
        <time>2022-07-07T05:43:30Z</time>
      </trkpt>
      <trkpt lat="46.50086" lon="5.29989">
        <ele>208.6</ele>
        <time>2022-07-07T05:43:38Z</time>
      </trkpt>
      <trkpt lat="46.50076" lon="5.29949">
        <ele>208.6</ele>
        <time>2022-07-07T05:43:43Z</time>
      </trkpt>
      <trkpt lat="46.50066" lon="5.29927">
        <ele>208.6</ele>
        <time>2022-07-07T05:43:45Z</time>
      </trkpt>
      <trkpt lat="46.50054" lon="5.29906">
        <ele>208.2</ele>
        <time>2022-07-07T05:43:48Z</time>
      </trkpt>
      <trkpt lat="46.50044" lon="5.29893">
        <ele>207.8</ele>
        <time>2022-07-07T05:43:50Z</time>
      </trkpt>
      <trkpt lat="46.50027" lon="5.29876">
        <ele>207.4</ele>
        <time>2022-07-07T05:43:53Z</time>
      </trkpt>
      <trkpt lat="46.50023" lon="5.29869">
        <ele>207.2</ele>
        <time>2022-07-07T05:43:54Z</time>
      </trkpt>
      <trkpt lat="46.50021" lon="5.29859">
        <ele>207</ele>
        <time>2022-07-07T05:43:55Z</time>
      </trkpt>
      <trkpt lat="46.50021" lon="5.2985">
        <ele>207</ele>
        <time>2022-07-07T05:43:56Z</time>
      </trkpt>
      <trkpt lat="46.50023" lon="5.2984">
        <ele>206.8</ele>
        <time>2022-07-07T05:43:57Z</time>
      </trkpt>
      <trkpt lat="46.5003" lon="5.29825">
        <ele>206.8</ele>
        <time>2022-07-07T05:43:59Z</time>
      </trkpt>
      <trkpt lat="46.5004" lon="5.29812">
        <ele>206.8</ele>
        <time>2022-07-07T05:44:01Z</time>
      </trkpt>
      <trkpt lat="46.5005" lon="5.29802">
        <ele>206.8</ele>
        <time>2022-07-07T05:44:03Z</time>
      </trkpt>
      <trkpt lat="46.50062" lon="5.29796">
        <ele>206.8</ele>
        <time>2022-07-07T05:44:05Z</time>
      </trkpt>
      <trkpt lat="46.50097" lon="5.29784">
        <ele>207</ele>
        <time>2022-07-07T05:44:11Z</time>
      </trkpt>
      <trkpt lat="46.5012" lon="5.29777">
        <ele>207.8</ele>
        <time>2022-07-07T05:44:15Z</time>
      </trkpt>
      <trkpt lat="46.5013" lon="5.29775">
        <ele>208</ele>
        <time>2022-07-07T05:44:17Z</time>
      </trkpt>
      <trkpt lat="46.50156" lon="5.2977">
        <ele>209.2</ele>
        <time>2022-07-07T05:44:22Z</time>
      </trkpt>
      <trkpt lat="46.50165" lon="5.29769">
        <ele>209.6</ele>
        <time>2022-07-07T05:44:24Z</time>
      </trkpt>
      <trkpt lat="46.5018" lon="5.29768">
        <ele>210</ele>
        <time>2022-07-07T05:44:27Z</time>
      </trkpt>
      <trkpt lat="46.50198" lon="5.2977">
        <ele>210.6</ele>
        <time>2022-07-07T05:44:30Z</time>
      </trkpt>
      <trkpt lat="46.50209" lon="5.29771">
        <ele>211</ele>
        <time>2022-07-07T05:44:32Z</time>
      </trkpt>
      <trkpt lat="46.50243" lon="5.29768">
        <ele>211.6</ele>
        <time>2022-07-07T05:44:38Z</time>
      </trkpt>
      <trkpt lat="46.50279" lon="5.29756">
        <ele>211.8</ele>
        <time>2022-07-07T05:44:45Z</time>
      </trkpt>
      <trkpt lat="46.50309" lon="5.29744">
        <ele>212.2</ele>
        <time>2022-07-07T05:44:50Z</time>
      </trkpt>
      <trkpt lat="46.5033" lon="5.29736">
        <ele>212.2</ele>
        <time>2022-07-07T05:44:54Z</time>
      </trkpt>
      <trkpt lat="46.50373" lon="5.29717">
        <ele>212.6</ele>
        <time>2022-07-07T05:45:02Z</time>
      </trkpt>
      <trkpt lat="46.50419" lon="5.29689">
        <ele>212.8</ele>
        <time>2022-07-07T05:45:10Z</time>
      </trkpt>
      <trkpt lat="46.50448" lon="5.29669">
        <ele>212.8</ele>
        <time>2022-07-07T05:45:15Z</time>
      </trkpt>
      <trkpt lat="46.50472" lon="5.29653">
        <ele>212.8</ele>
        <time>2022-07-07T05:45:19Z</time>
      </trkpt>
      <trkpt lat="46.50525" lon="5.29616">
        <ele>212.6</ele>
        <time>2022-07-07T05:45:28Z</time>
      </trkpt>
      <trkpt lat="46.50566" lon="5.29584">
        <ele>212.4</ele>
        <time>2022-07-07T05:45:35Z</time>
      </trkpt>
      <trkpt lat="46.50611" lon="5.2955">
        <ele>212.2</ele>
        <time>2022-07-07T05:45:43Z</time>
      </trkpt>
      <trkpt lat="46.50648" lon="5.29526">
        <ele>212</ele>
        <time>2022-07-07T05:45:49Z</time>
      </trkpt>
      <trkpt lat="46.50656" lon="5.29525">
        <ele>211.8</ele>
        <time>2022-07-07T05:45:50Z</time>
      </trkpt>
      <trkpt lat="46.50662" lon="5.29526">
        <ele>211.8</ele>
        <time>2022-07-07T05:45:51Z</time>
      </trkpt>
      <trkpt lat="46.50686" lon="5.29533">
        <ele>211.6</ele>
        <time>2022-07-07T05:45:54Z</time>
      </trkpt>
      <trkpt lat="46.50715" lon="5.29547">
        <ele>211</ele>
        <time>2022-07-07T05:45:58Z</time>
      </trkpt>
      <trkpt lat="46.50747" lon="5.2956">
        <ele>210.2</ele>
        <time>2022-07-07T05:46:02Z</time>
      </trkpt>
      <trkpt lat="46.50755" lon="5.29563">
        <ele>210</ele>
        <time>2022-07-07T05:46:03Z</time>
      </trkpt>
      <trkpt lat="46.50789" lon="5.29567">
        <ele>209</ele>
        <time>2022-07-07T05:46:07Z</time>
      </trkpt>
      <trkpt lat="46.50798" lon="5.29567">
        <ele>208.4</ele>
        <time>2022-07-07T05:46:08Z</time>
      </trkpt>
      <trkpt lat="46.50836" lon="5.29569">
        <ele>207.2</ele>
        <time>2022-07-07T05:46:12Z</time>
      </trkpt>
      <trkpt lat="46.50845" lon="5.2957">
        <ele>206.6</ele>
        <time>2022-07-07T05:46:13Z</time>
      </trkpt>
      <trkpt lat="46.50862" lon="5.29572">
        <ele>206</ele>
        <time>2022-07-07T05:46:15Z</time>
      </trkpt>
      <trkpt lat="46.50883" lon="5.29572">
        <ele>204.8</ele>
        <time>2022-07-07T05:46:17Z</time>
      </trkpt>
      <trkpt lat="46.50901" lon="5.2957">
        <ele>204</ele>
        <time>2022-07-07T05:46:19Z</time>
      </trkpt>
      <trkpt lat="46.50914" lon="5.29565">
        <ele>203.4</ele>
        <time>2022-07-07T05:46:20Z</time>
      </trkpt>
      <trkpt lat="46.50934" lon="5.29552">
        <ele>202.4</ele>
        <time>2022-07-07T05:46:22Z</time>
      </trkpt>
      <trkpt lat="46.50954" lon="5.29537">
        <ele>201.4</ele>
        <time>2022-07-07T05:46:24Z</time>
      </trkpt>
      <trkpt lat="46.50974" lon="5.29521">
        <ele>200</ele>
        <time>2022-07-07T05:46:26Z</time>
      </trkpt>
      <trkpt lat="46.50995" lon="5.29504">
        <ele>198.8</ele>
        <time>2022-07-07T05:46:28Z</time>
      </trkpt>
      <trkpt lat="46.51015" lon="5.29488">
        <ele>197.8</ele>
        <time>2022-07-07T05:46:30Z</time>
      </trkpt>
      <trkpt lat="46.51035" lon="5.29472">
        <ele>196.4</ele>
        <time>2022-07-07T05:46:32Z</time>
      </trkpt>
      <trkpt lat="46.51044" lon="5.29466">
        <ele>195</ele>
        <time>2022-07-07T05:46:33Z</time>
      </trkpt>
      <trkpt lat="46.51066" lon="5.29453">
        <ele>193.4</ele>
        <time>2022-07-07T05:46:35Z</time>
      </trkpt>
      <trkpt lat="46.51076" lon="5.29447">
        <ele>192.8</ele>
        <time>2022-07-07T05:46:36Z</time>
      </trkpt>
      <trkpt lat="46.51094" lon="5.2944">
        <ele>192.4</ele>
        <time>2022-07-07T05:46:38Z</time>
      </trkpt>
      <trkpt lat="46.51115" lon="5.29433">
        <ele>190.8</ele>
        <time>2022-07-07T05:46:40Z</time>
      </trkpt>
      <trkpt lat="46.51125" lon="5.29431">
        <ele>190.6</ele>
        <time>2022-07-07T05:46:41Z</time>
      </trkpt>
      <trkpt lat="46.51149" lon="5.29424">
        <ele>189.8</ele>
        <time>2022-07-07T05:46:44Z</time>
      </trkpt>
      <trkpt lat="46.51187" lon="5.29413">
        <ele>189.6</ele>
        <time>2022-07-07T05:46:48Z</time>
      </trkpt>
      <trkpt lat="46.51246" lon="5.29399">
        <ele>188.8</ele>
        <time>2022-07-07T05:46:55Z</time>
      </trkpt>
      <trkpt lat="46.51256" lon="5.29396">
        <ele>188.6</ele>
        <time>2022-07-07T05:46:56Z</time>
      </trkpt>
      <trkpt lat="46.51273" lon="5.29391">
        <ele>188.4</ele>
        <time>2022-07-07T05:46:58Z</time>
      </trkpt>
      <trkpt lat="46.51296" lon="5.29379">
        <ele>188.4</ele>
        <time>2022-07-07T05:47:01Z</time>
      </trkpt>
      <trkpt lat="46.51346" lon="5.2935">
        <ele>188.2</ele>
        <time>2022-07-07T05:47:08Z</time>
      </trkpt>
      <trkpt lat="46.51353" lon="5.29345">
        <ele>188.2</ele>
        <time>2022-07-07T05:47:09Z</time>
      </trkpt>
      <trkpt lat="46.5136" lon="5.29339">
        <ele>188.2</ele>
        <time>2022-07-07T05:47:10Z</time>
      </trkpt>
      <trkpt lat="46.5137" lon="5.29324">
        <ele>188</ele>
        <time>2022-07-07T05:47:12Z</time>
      </trkpt>
      <trkpt lat="46.51375" lon="5.29317">
        <ele>188</ele>
        <time>2022-07-07T05:47:13Z</time>
      </trkpt>
      <trkpt lat="46.51401" lon="5.29268">
        <ele>188</ele>
        <time>2022-07-07T05:47:19Z</time>
      </trkpt>
      <trkpt lat="46.51434" lon="5.29216">
        <ele>188.2</ele>
        <time>2022-07-07T05:47:26Z</time>
      </trkpt>
      <trkpt lat="46.51437" lon="5.29208">
        <ele>188.2</ele>
        <time>2022-07-07T05:47:27Z</time>
      </trkpt>
      <trkpt lat="46.51446" lon="5.29181">
        <ele>188.2</ele>
        <time>2022-07-07T05:47:30Z</time>
      </trkpt>
      <trkpt lat="46.51461" lon="5.29101">
        <ele>188</ele>
        <time>2022-07-07T05:47:38Z</time>
      </trkpt>
      <trkpt lat="46.5147" lon="5.2905">
        <ele>187.8</ele>
        <time>2022-07-07T05:47:43Z</time>
      </trkpt>
      <trkpt lat="46.51472" lon="5.29039">
        <ele>187.6</ele>
        <time>2022-07-07T05:47:44Z</time>
      </trkpt>
      <trkpt lat="46.51474" lon="5.29029">
        <ele>187.6</ele>
        <time>2022-07-07T05:47:45Z</time>
      </trkpt>
      <trkpt lat="46.51486" lon="5.28952">
        <ele>186.6</ele>
        <time>2022-07-07T05:47:52Z</time>
      </trkpt>
      <trkpt lat="46.51499" lon="5.28875">
        <ele>186</ele>
        <time>2022-07-07T05:47:59Z</time>
      </trkpt>
      <trkpt lat="46.51506" lon="5.28834">
        <ele>185.6</ele>
        <time>2022-07-07T05:48:03Z</time>
      </trkpt>
      <trkpt lat="46.51508" lon="5.28814">
        <ele>185.6</ele>
        <time>2022-07-07T05:48:05Z</time>
      </trkpt>
      <trkpt lat="46.51509" lon="5.28804">
        <ele>185.6</ele>
        <time>2022-07-07T05:48:06Z</time>
      </trkpt>
      <trkpt lat="46.51505" lon="5.28756">
        <ele>185.8</ele>
        <time>2022-07-07T05:48:11Z</time>
      </trkpt>
      <trkpt lat="46.51491" lon="5.28699">
        <ele>186</ele>
        <time>2022-07-07T05:48:17Z</time>
      </trkpt>
      <trkpt lat="46.51469" lon="5.28634">
        <ele>185.6</ele>
        <time>2022-07-07T05:48:24Z</time>
      </trkpt>
      <trkpt lat="46.51445" lon="5.28561">
        <ele>185.4</ele>
        <time>2022-07-07T05:48:32Z</time>
      </trkpt>
      <trkpt lat="46.51442" lon="5.28553">
        <ele>185.4</ele>
        <time>2022-07-07T05:48:33Z</time>
      </trkpt>
      <trkpt lat="46.5142" lon="5.28483">
        <ele>185.8</ele>
        <time>2022-07-07T05:48:41Z</time>
      </trkpt>
      <trkpt lat="46.51419" lon="5.28474">
        <ele>185.8</ele>
        <time>2022-07-07T05:48:42Z</time>
      </trkpt>
      <trkpt lat="46.51419" lon="5.28465">
        <ele>185.8</ele>
        <time>2022-07-07T05:48:43Z</time>
      </trkpt>
      <trkpt lat="46.51421" lon="5.28441">
        <ele>186</ele>
        <time>2022-07-07T05:48:46Z</time>
      </trkpt>
      <trkpt lat="46.51427" lon="5.28425">
        <ele>186.2</ele>
        <time>2022-07-07T05:48:48Z</time>
      </trkpt>
      <trkpt lat="46.5143" lon="5.28419">
        <ele>186.4</ele>
        <time>2022-07-07T05:48:49Z</time>
      </trkpt>
      <trkpt lat="46.51434" lon="5.28412">
        <ele>186.6</ele>
        <time>2022-07-07T05:48:50Z</time>
      </trkpt>
      <trkpt lat="46.51438" lon="5.28405">
        <ele>186.8</ele>
        <time>2022-07-07T05:48:51Z</time>
      </trkpt>
      <trkpt lat="46.51462" lon="5.28363">
        <ele>188</ele>
        <time>2022-07-07T05:48:58Z</time>
      </trkpt>
      <trkpt lat="46.51465" lon="5.28357">
        <ele>188</ele>
        <time>2022-07-07T05:48:59Z</time>
      </trkpt>
      <trkpt lat="46.51477" lon="5.28333">
        <ele>188.8</ele>
        <time>2022-07-07T05:49:03Z</time>
      </trkpt>
      <trkpt lat="46.51486" lon="5.28315">
        <ele>189.4</ele>
        <time>2022-07-07T05:49:06Z</time>
      </trkpt>
      <trkpt lat="46.51492" lon="5.28304">
        <ele>190</ele>
        <time>2022-07-07T05:49:08Z</time>
      </trkpt>
      <trkpt lat="46.51508" lon="5.28273">
        <ele>191.2</ele>
        <time>2022-07-07T05:49:14Z</time>
      </trkpt>
      <trkpt lat="46.51511" lon="5.28266">
        <ele>191.4</ele>
        <time>2022-07-07T05:49:15Z</time>
      </trkpt>
      <trkpt lat="46.51524" lon="5.28241">
        <ele>192.4</ele>
        <time>2022-07-07T05:49:19Z</time>
      </trkpt>
      <trkpt lat="46.51534" lon="5.28218">
        <ele>193.2</ele>
        <time>2022-07-07T05:49:23Z</time>
      </trkpt>
      <trkpt lat="46.51537" lon="5.28212">
        <ele>193.4</ele>
        <time>2022-07-07T05:49:24Z</time>
      </trkpt>
      <trkpt lat="46.51544" lon="5.2819">
        <ele>194.4</ele>
        <time>2022-07-07T05:49:28Z</time>
      </trkpt>
      <trkpt lat="46.51549" lon="5.28171">
        <ele>195.2</ele>
        <time>2022-07-07T05:49:31Z</time>
      </trkpt>
      <trkpt lat="46.51556" lon="5.28146">
        <ele>195.8</ele>
        <time>2022-07-07T05:49:35Z</time>
      </trkpt>
      <trkpt lat="46.51566" lon="5.28115">
        <ele>196.8</ele>
        <time>2022-07-07T05:49:40Z</time>
      </trkpt>
      <trkpt lat="46.51567" lon="5.28108">
        <ele>196.8</ele>
        <time>2022-07-07T05:49:41Z</time>
      </trkpt>
      <trkpt lat="46.51579" lon="5.28072">
        <ele>198.2</ele>
        <time>2022-07-07T05:49:47Z</time>
      </trkpt>
      <trkpt lat="46.51583" lon="5.28058">
        <ele>198.4</ele>
        <time>2022-07-07T05:49:49Z</time>
      </trkpt>
      <trkpt lat="46.51594" lon="5.28029">
        <ele>199.4</ele>
        <time>2022-07-07T05:49:54Z</time>
      </trkpt>
      <trkpt lat="46.51605" lon="5.28008">
        <ele>199.8</ele>
        <time>2022-07-07T05:49:58Z</time>
      </trkpt>
      <trkpt lat="46.51612" lon="5.27999">
        <ele>200.4</ele>
        <time>2022-07-07T05:50:00Z</time>
      </trkpt>
      <trkpt lat="46.51627" lon="5.2798">
        <ele>201.4</ele>
        <time>2022-07-07T05:50:04Z</time>
      </trkpt>
      <trkpt lat="46.51637" lon="5.27971">
        <ele>201.6</ele>
        <time>2022-07-07T05:50:06Z</time>
      </trkpt>
      <trkpt lat="46.51674" lon="5.27933">
        <ele>201.6</ele>
        <time>2022-07-07T05:50:14Z</time>
      </trkpt>
      <trkpt lat="46.5172" lon="5.27887">
        <ele>201.2</ele>
        <time>2022-07-07T05:50:22Z</time>
      </trkpt>
      <trkpt lat="46.51725" lon="5.27881">
        <ele>201.2</ele>
        <time>2022-07-07T05:50:23Z</time>
      </trkpt>
      <trkpt lat="46.51767" lon="5.27838">
        <ele>200.2</ele>
        <time>2022-07-07T05:50:30Z</time>
      </trkpt>
      <trkpt lat="46.51788" lon="5.27817">
        <ele>199</ele>
        <time>2022-07-07T05:50:33Z</time>
      </trkpt>
      <trkpt lat="46.51816" lon="5.27788">
        <ele>197.6</ele>
        <time>2022-07-07T05:50:37Z</time>
      </trkpt>
      <trkpt lat="46.51823" lon="5.27781">
        <ele>197.4</ele>
        <time>2022-07-07T05:50:38Z</time>
      </trkpt>
      <trkpt lat="46.51844" lon="5.27759">
        <ele>196.4</ele>
        <time>2022-07-07T05:50:41Z</time>
      </trkpt>
      <trkpt lat="46.51866" lon="5.27736">
        <ele>195.2</ele>
        <time>2022-07-07T05:50:44Z</time>
      </trkpt>
      <trkpt lat="46.51881" lon="5.27721">
        <ele>194.4</ele>
        <time>2022-07-07T05:50:46Z</time>
      </trkpt>
      <trkpt lat="46.51897" lon="5.27705">
        <ele>193.6</ele>
        <time>2022-07-07T05:50:48Z</time>
      </trkpt>
      <trkpt lat="46.51919" lon="5.27681">
        <ele>192.6</ele>
        <time>2022-07-07T05:50:51Z</time>
      </trkpt>
      <trkpt lat="46.51943" lon="5.27654">
        <ele>191.6</ele>
        <time>2022-07-07T05:50:54Z</time>
      </trkpt>
      <trkpt lat="46.5195" lon="5.27644">
        <ele>191.2</ele>
        <time>2022-07-07T05:50:55Z</time>
      </trkpt>
      <trkpt lat="46.5197" lon="5.27619">
        <ele>190</ele>
        <time>2022-07-07T05:50:58Z</time>
      </trkpt>
      <trkpt lat="46.51997" lon="5.27583">
        <ele>188.6</ele>
        <time>2022-07-07T05:51:02Z</time>
      </trkpt>
      <trkpt lat="46.52011" lon="5.27565">
        <ele>188.4</ele>
        <time>2022-07-07T05:51:04Z</time>
      </trkpt>
      <trkpt lat="46.5205" lon="5.27514">
        <ele>188.2</ele>
        <time>2022-07-07T05:51:11Z</time>
      </trkpt>
      <trkpt lat="46.52078" lon="5.27478">
        <ele>189</ele>
        <time>2022-07-07T05:51:17Z</time>
      </trkpt>
      <trkpt lat="46.52093" lon="5.27455">
        <ele>189.8</ele>
        <time>2022-07-07T05:51:21Z</time>
      </trkpt>
      <trkpt lat="46.521" lon="5.27444">
        <ele>190.2</ele>
        <time>2022-07-07T05:51:23Z</time>
      </trkpt>
      <trkpt lat="46.52111" lon="5.27422">
        <ele>190.8</ele>
        <time>2022-07-07T05:51:27Z</time>
      </trkpt>
      <trkpt lat="46.52113" lon="5.27414">
        <ele>191</ele>
        <time>2022-07-07T05:51:28Z</time>
      </trkpt>
      <trkpt lat="46.52115" lon="5.27408">
        <ele>191.2</ele>
        <time>2022-07-07T05:51:29Z</time>
      </trkpt>
      <trkpt lat="46.52117" lon="5.27402">
        <ele>191.6</ele>
        <time>2022-07-07T05:51:30Z</time>
      </trkpt>
      <trkpt lat="46.5212" lon="5.2739">
        <ele>192</ele>
        <time>2022-07-07T05:51:32Z</time>
      </trkpt>
      <trkpt lat="46.52121" lon="5.27385">
        <ele>192</ele>
        <time>2022-07-07T05:51:33Z</time>
      </trkpt>
      <trkpt lat="46.52123" lon="5.27378">
        <ele>192.2</ele>
        <time>2022-07-07T05:51:34Z</time>
      </trkpt>
      <trkpt lat="46.52123" lon="5.27373">
        <ele>192.6</ele>
        <time>2022-07-07T05:51:35Z</time>
      </trkpt>
      <trkpt lat="46.52121" lon="5.2736">
        <ele>193</ele>
        <time>2022-07-07T05:51:37Z</time>
      </trkpt>
      <trkpt lat="46.5212" lon="5.27354">
        <ele>193</ele>
        <time>2022-07-07T05:51:38Z</time>
      </trkpt>
      <trkpt lat="46.52117" lon="5.27341">
        <ele>193.6</ele>
        <time>2022-07-07T05:51:40Z</time>
      </trkpt>
      <trkpt lat="46.52112" lon="5.27332">
        <ele>194.2</ele>
        <time>2022-07-07T05:51:42Z</time>
      </trkpt>
      <trkpt lat="46.5211" lon="5.27327">
        <ele>194.2</ele>
        <time>2022-07-07T05:51:43Z</time>
      </trkpt>
      <trkpt lat="46.52094" lon="5.27312">
        <ele>195</ele>
        <time>2022-07-07T05:51:47Z</time>
      </trkpt>
      <trkpt lat="46.52089" lon="5.27309">
        <ele>195.4</ele>
        <time>2022-07-07T05:51:48Z</time>
      </trkpt>
      <trkpt lat="46.52068" lon="5.27294">
        <ele>196.2</ele>
        <time>2022-07-07T05:51:52Z</time>
      </trkpt>
      <trkpt lat="46.52063" lon="5.2729">
        <ele>196.4</ele>
        <time>2022-07-07T05:51:53Z</time>
      </trkpt>
      <trkpt lat="46.52048" lon="5.27277">
        <ele>196.8</ele>
        <time>2022-07-07T05:51:56Z</time>
      </trkpt>
      <trkpt lat="46.52039" lon="5.27269">
        <ele>197.4</ele>
        <time>2022-07-07T05:51:58Z</time>
      </trkpt>
      <trkpt lat="46.52028" lon="5.27252">
        <ele>198</ele>
        <time>2022-07-07T05:52:01Z</time>
      </trkpt>
      <trkpt lat="46.52022" lon="5.27241">
        <ele>198.4</ele>
        <time>2022-07-07T05:52:03Z</time>
      </trkpt>
      <trkpt lat="46.52017" lon="5.27222">
        <ele>199.2</ele>
        <time>2022-07-07T05:52:06Z</time>
      </trkpt>
      <trkpt lat="46.52016" lon="5.27215">
        <ele>199.4</ele>
        <time>2022-07-07T05:52:07Z</time>
      </trkpt>
      <trkpt lat="46.52015" lon="5.27209">
        <ele>199.4</ele>
        <time>2022-07-07T05:52:08Z</time>
      </trkpt>
      <trkpt lat="46.52009" lon="5.27184">
        <ele>200.4</ele>
        <time>2022-07-07T05:52:12Z</time>
      </trkpt>
      <trkpt lat="46.52007" lon="5.27176">
        <ele>201</ele>
        <time>2022-07-07T05:52:14Z</time>
      </trkpt>
      <trkpt lat="46.52004" lon="5.27155">
        <ele>201.6</ele>
        <time>2022-07-07T05:52:17Z</time>
      </trkpt>
      <trkpt lat="46.52" lon="5.27125">
        <ele>202.4</ele>
        <time>2022-07-07T05:52:22Z</time>
      </trkpt>
      <trkpt lat="46.51999" lon="5.27119">
        <ele>202.8</ele>
        <time>2022-07-07T05:52:23Z</time>
      </trkpt>
      <trkpt lat="46.51996" lon="5.2709">
        <ele>204</ele>
        <time>2022-07-07T05:52:28Z</time>
      </trkpt>
      <trkpt lat="46.51993" lon="5.27072">
        <ele>204.4</ele>
        <time>2022-07-07T05:52:31Z</time>
      </trkpt>
      <trkpt lat="46.51992" lon="5.27066">
        <ele>204.4</ele>
        <time>2022-07-07T05:52:32Z</time>
      </trkpt>
      <trkpt lat="46.5199" lon="5.27048">
        <ele>205.2</ele>
        <time>2022-07-07T05:52:35Z</time>
      </trkpt>
      <trkpt lat="46.51989" lon="5.27042">
        <ele>205.4</ele>
        <time>2022-07-07T05:52:36Z</time>
      </trkpt>
      <trkpt lat="46.51988" lon="5.27029">
        <ele>205.6</ele>
        <time>2022-07-07T05:52:38Z</time>
      </trkpt>
      <trkpt lat="46.51986" lon="5.26999">
        <ele>206.2</ele>
        <time>2022-07-07T05:52:43Z</time>
      </trkpt>
      <trkpt lat="46.51983" lon="5.26973">
        <ele>206.8</ele>
        <time>2022-07-07T05:52:47Z</time>
      </trkpt>
      <trkpt lat="46.51979" lon="5.26953">
        <ele>207.4</ele>
        <time>2022-07-07T05:52:50Z</time>
      </trkpt>
      <trkpt lat="46.51975" lon="5.26933">
        <ele>207.6</ele>
        <time>2022-07-07T05:52:53Z</time>
      </trkpt>
      <trkpt lat="46.51963" lon="5.26897">
        <ele>207.8</ele>
        <time>2022-07-07T05:52:58Z</time>
      </trkpt>
      <trkpt lat="46.51954" lon="5.26873">
        <ele>207.8</ele>
        <time>2022-07-07T05:53:01Z</time>
      </trkpt>
      <trkpt lat="46.51951" lon="5.26863">
        <ele>207.8</ele>
        <time>2022-07-07T05:53:02Z</time>
      </trkpt>
      <trkpt lat="46.51949" lon="5.26853">
        <ele>207.8</ele>
        <time>2022-07-07T05:53:03Z</time>
      </trkpt>
      <trkpt lat="46.51949" lon="5.2683">
        <ele>207.2</ele>
        <time>2022-07-07T05:53:05Z</time>
      </trkpt>
      <trkpt lat="46.51956" lon="5.26809">
        <ele>206.6</ele>
        <time>2022-07-07T05:53:07Z</time>
      </trkpt>
      <trkpt lat="46.51961" lon="5.26799">
        <ele>206.6</ele>
        <time>2022-07-07T05:53:08Z</time>
      </trkpt>
      <trkpt lat="46.51967" lon="5.2679">
        <ele>206</ele>
        <time>2022-07-07T05:53:09Z</time>
      </trkpt>
      <trkpt lat="46.51982" lon="5.26775">
        <ele>205.2</ele>
        <time>2022-07-07T05:53:11Z</time>
      </trkpt>
      <trkpt lat="46.51994" lon="5.26765">
        <ele>204.6</ele>
        <time>2022-07-07T05:53:13Z</time>
      </trkpt>
      <trkpt lat="46.52021" lon="5.26741">
        <ele>203.2</ele>
        <time>2022-07-07T05:53:16Z</time>
      </trkpt>
      <trkpt lat="46.52046" lon="5.2672">
        <ele>202</ele>
        <time>2022-07-07T05:53:19Z</time>
      </trkpt>
      <trkpt lat="46.52062" lon="5.26705">
        <ele>200.6</ele>
        <time>2022-07-07T05:53:21Z</time>
      </trkpt>
      <trkpt lat="46.52088" lon="5.26683">
        <ele>199.6</ele>
        <time>2022-07-07T05:53:24Z</time>
      </trkpt>
      <trkpt lat="46.52097" lon="5.26675">
        <ele>198.8</ele>
        <time>2022-07-07T05:53:25Z</time>
      </trkpt>
      <trkpt lat="46.52106" lon="5.26667">
        <ele>198.4</ele>
        <time>2022-07-07T05:53:26Z</time>
      </trkpt>
      <trkpt lat="46.52123" lon="5.26649">
        <ele>197.2</ele>
        <time>2022-07-07T05:53:28Z</time>
      </trkpt>
      <trkpt lat="46.5213" lon="5.26639">
        <ele>197</ele>
        <time>2022-07-07T05:53:29Z</time>
      </trkpt>
      <trkpt lat="46.52136" lon="5.26627">
        <ele>196.2</ele>
        <time>2022-07-07T05:53:30Z</time>
      </trkpt>
      <trkpt lat="46.52156" lon="5.26595">
        <ele>195</ele>
        <time>2022-07-07T05:53:33Z</time>
      </trkpt>
      <trkpt lat="46.52174" lon="5.26564">
        <ele>194.2</ele>
        <time>2022-07-07T05:53:36Z</time>
      </trkpt>
      <trkpt lat="46.5218" lon="5.26555">
        <ele>194</ele>
        <time>2022-07-07T05:53:37Z</time>
      </trkpt>
      <trkpt lat="46.52195" lon="5.26541">
        <ele>193.6</ele>
        <time>2022-07-07T05:53:39Z</time>
      </trkpt>
      <trkpt lat="46.52203" lon="5.26535">
        <ele>193.4</ele>
        <time>2022-07-07T05:53:40Z</time>
      </trkpt>
      <trkpt lat="46.52228" lon="5.26522">
        <ele>192.6</ele>
        <time>2022-07-07T05:53:43Z</time>
      </trkpt>
      <trkpt lat="46.52244" lon="5.26514">
        <ele>192</ele>
        <time>2022-07-07T05:53:45Z</time>
      </trkpt>
      <trkpt lat="46.52269" lon="5.26502">
        <ele>191.4</ele>
        <time>2022-07-07T05:53:48Z</time>
      </trkpt>
      <trkpt lat="46.52313" lon="5.26483">
        <ele>190.2</ele>
        <time>2022-07-07T05:53:53Z</time>
      </trkpt>
      <trkpt lat="46.52349" lon="5.26467">
        <ele>189</ele>
        <time>2022-07-07T05:53:57Z</time>
      </trkpt>
      <trkpt lat="46.52367" lon="5.26456">
        <ele>188.2</ele>
        <time>2022-07-07T05:53:59Z</time>
      </trkpt>
      <trkpt lat="46.52375" lon="5.26449">
        <ele>187.6</ele>
        <time>2022-07-07T05:54:00Z</time>
      </trkpt>
      <trkpt lat="46.52382" lon="5.2644">
        <ele>187.4</ele>
        <time>2022-07-07T05:54:01Z</time>
      </trkpt>
      <trkpt lat="46.52395" lon="5.26419">
        <ele>186.8</ele>
        <time>2022-07-07T05:54:03Z</time>
      </trkpt>
      <trkpt lat="46.524" lon="5.26408">
        <ele>186.2</ele>
        <time>2022-07-07T05:54:04Z</time>
      </trkpt>
      <trkpt lat="46.52423" lon="5.26349">
        <ele>185</ele>
        <time>2022-07-07T05:54:09Z</time>
      </trkpt>
      <trkpt lat="46.52452" lon="5.26271">
        <ele>184.4</ele>
        <time>2022-07-07T05:54:16Z</time>
      </trkpt>
      <trkpt lat="46.52464" lon="5.2624">
        <ele>184.2</ele>
        <time>2022-07-07T05:54:19Z</time>
      </trkpt>
      <trkpt lat="46.5249" lon="5.26171">
        <ele>184</ele>
        <time>2022-07-07T05:54:26Z</time>
      </trkpt>
      <trkpt lat="46.52494" lon="5.26161">
        <ele>184</ele>
        <time>2022-07-07T05:54:27Z</time>
      </trkpt>
      <trkpt lat="46.52497" lon="5.26152">
        <ele>184</ele>
        <time>2022-07-07T05:54:28Z</time>
      </trkpt>
      <trkpt lat="46.52509" lon="5.26127">
        <ele>184</ele>
        <time>2022-07-07T05:54:31Z</time>
      </trkpt>
      <trkpt lat="46.52514" lon="5.2612">
        <ele>184</ele>
        <time>2022-07-07T05:54:32Z</time>
      </trkpt>
      <trkpt lat="46.52519" lon="5.26116">
        <ele>184</ele>
        <time>2022-07-07T05:54:33Z</time>
      </trkpt>
      <trkpt lat="46.52534" lon="5.26114">
        <ele>183.8</ele>
        <time>2022-07-07T05:54:35Z</time>
      </trkpt>
      <trkpt lat="46.52552" lon="5.26118">
        <ele>183.8</ele>
        <time>2022-07-07T05:54:38Z</time>
      </trkpt>
      <trkpt lat="46.52558" lon="5.26124">
        <ele>183.8</ele>
        <time>2022-07-07T05:54:39Z</time>
      </trkpt>
      <trkpt lat="46.52562" lon="5.26132">
        <ele>183.8</ele>
        <time>2022-07-07T05:54:40Z</time>
      </trkpt>
      <trkpt lat="46.52579" lon="5.26162">
        <ele>184</ele>
        <time>2022-07-07T05:54:44Z</time>
      </trkpt>
      <trkpt lat="46.52615" lon="5.2621">
        <ele>184</ele>
        <time>2022-07-07T05:54:51Z</time>
      </trkpt>
      <trkpt lat="46.52652" lon="5.26238">
        <ele>184.6</ele>
        <time>2022-07-07T05:54:57Z</time>
      </trkpt>
      <trkpt lat="46.52677" lon="5.26252">
        <ele>185</ele>
        <time>2022-07-07T05:55:01Z</time>
      </trkpt>
      <trkpt lat="46.52701" lon="5.26262">
        <ele>185.8</ele>
        <time>2022-07-07T05:55:05Z</time>
      </trkpt>
      <trkpt lat="46.52707" lon="5.26265">
        <ele>186</ele>
        <time>2022-07-07T05:55:06Z</time>
      </trkpt>
      <trkpt lat="46.52719" lon="5.26272">
        <ele>186.2</ele>
        <time>2022-07-07T05:55:08Z</time>
      </trkpt>
      <trkpt lat="46.52756" lon="5.26288">
        <ele>186.8</ele>
        <time>2022-07-07T05:55:14Z</time>
      </trkpt>
      <trkpt lat="46.52808" lon="5.2631">
        <ele>187.2</ele>
        <time>2022-07-07T05:55:23Z</time>
      </trkpt>
      <trkpt lat="46.5282" lon="5.26311">
        <ele>187.2</ele>
        <time>2022-07-07T05:55:25Z</time>
      </trkpt>
      <trkpt lat="46.52845" lon="5.26309">
        <ele>187.4</ele>
        <time>2022-07-07T05:55:29Z</time>
      </trkpt>
      <trkpt lat="46.52883" lon="5.26309">
        <ele>187.6</ele>
        <time>2022-07-07T05:55:35Z</time>
      </trkpt>
      <trkpt lat="46.52896" lon="5.26313">
        <ele>187.6</ele>
        <time>2022-07-07T05:55:37Z</time>
      </trkpt>
      <trkpt lat="46.52947" lon="5.2634">
        <ele>187.2</ele>
        <time>2022-07-07T05:55:45Z</time>
      </trkpt>
      <trkpt lat="46.53001" lon="5.26372">
        <ele>186.4</ele>
        <time>2022-07-07T05:55:54Z</time>
      </trkpt>
      <trkpt lat="46.53007" lon="5.26376">
        <ele>186.4</ele>
        <time>2022-07-07T05:55:55Z</time>
      </trkpt>
      <trkpt lat="46.53032" lon="5.2639">
        <ele>186</ele>
        <time>2022-07-07T05:55:59Z</time>
      </trkpt>
      <trkpt lat="46.5307" lon="5.26412">
        <ele>185.6</ele>
        <time>2022-07-07T05:56:05Z</time>
      </trkpt>
      <trkpt lat="46.53102" lon="5.26428">
        <ele>185.6</ele>
        <time>2022-07-07T05:56:10Z</time>
      </trkpt>
      <trkpt lat="46.53121" lon="5.26433">
        <ele>185.6</ele>
        <time>2022-07-07T05:56:13Z</time>
      </trkpt>
      <trkpt lat="46.53168" lon="5.26439">
        <ele>185.4</ele>
        <time>2022-07-07T05:56:20Z</time>
      </trkpt>
      <trkpt lat="46.53174" lon="5.2644">
        <ele>185.4</ele>
        <time>2022-07-07T05:56:21Z</time>
      </trkpt>
      <trkpt lat="46.53234" lon="5.26449">
        <ele>185.2</ele>
        <time>2022-07-07T05:56:30Z</time>
      </trkpt>
      <trkpt lat="46.53241" lon="5.2645">
        <ele>185.2</ele>
        <time>2022-07-07T05:56:31Z</time>
      </trkpt>
      <trkpt lat="46.53295" lon="5.26459">
        <ele>187.4</ele>
        <time>2022-07-07T05:56:39Z</time>
      </trkpt>
      <trkpt lat="46.53309" lon="5.26461">
        <ele>185</ele>
        <time>2022-07-07T05:56:42Z</time>
      </trkpt>
      <trkpt lat="46.53363" lon="5.26468">
        <ele>184.8</ele>
        <time>2022-07-07T05:56:49Z</time>
      </trkpt>
      <trkpt lat="46.53376" lon="5.26468">
        <ele>184.8</ele>
        <time>2022-07-07T05:56:51Z</time>
      </trkpt>
      <trkpt lat="46.53422" lon="5.26466">
        <ele>184.8</ele>
        <time>2022-07-07T05:56:58Z</time>
      </trkpt>
      <trkpt lat="46.53479" lon="5.2647">
        <ele>185</ele>
        <time>2022-07-07T05:57:07Z</time>
      </trkpt>
      <trkpt lat="46.53485" lon="5.2647">
        <ele>185</ele>
        <time>2022-07-07T05:57:08Z</time>
      </trkpt>
      <trkpt lat="46.5354" lon="5.26478">
        <ele>184.4</ele>
        <time>2022-07-07T05:57:17Z</time>
      </trkpt>
      <trkpt lat="46.53546" lon="5.26479">
        <ele>184.4</ele>
        <time>2022-07-07T05:57:18Z</time>
      </trkpt>
      <trkpt lat="46.53558" lon="5.26481">
        <ele>184.4</ele>
        <time>2022-07-07T05:57:20Z</time>
      </trkpt>
      <trkpt lat="46.53583" lon="5.26479">
        <ele>184.4</ele>
        <time>2022-07-07T05:57:24Z</time>
      </trkpt>
      <trkpt lat="46.53632" lon="5.26481">
        <ele>185</ele>
        <time>2022-07-07T05:57:32Z</time>
      </trkpt>
      <trkpt lat="46.53673" lon="5.26482">
        <ele>185.2</ele>
        <time>2022-07-07T05:57:39Z</time>
      </trkpt>
      <trkpt lat="46.53689" lon="5.26478">
        <ele>185.8</ele>
        <time>2022-07-07T05:57:42Z</time>
      </trkpt>
      <trkpt lat="46.53704" lon="5.26472">
        <ele>185.8</ele>
        <time>2022-07-07T05:57:45Z</time>
      </trkpt>
      <trkpt lat="46.5374" lon="5.26455">
        <ele>186</ele>
        <time>2022-07-07T05:57:52Z</time>
      </trkpt>
      <trkpt lat="46.53752" lon="5.26451">
        <ele>186.2</ele>
        <time>2022-07-07T05:57:54Z</time>
      </trkpt>
      <trkpt lat="46.53776" lon="5.26442">
        <ele>186.6</ele>
        <time>2022-07-07T05:57:59Z</time>
      </trkpt>
      <trkpt lat="46.53784" lon="5.26439">
        <ele>187</ele>
        <time>2022-07-07T05:58:01Z</time>
      </trkpt>
      <trkpt lat="46.53794" lon="5.26443">
        <ele>187.2</ele>
        <time>2022-07-07T05:58:03Z</time>
      </trkpt>
      <trkpt lat="46.53803" lon="5.26455">
        <ele>187</ele>
        <time>2022-07-07T05:58:05Z</time>
      </trkpt>
      <trkpt lat="46.53806" lon="5.26463">
        <ele>186.8</ele>
        <time>2022-07-07T05:58:06Z</time>
      </trkpt>
      <trkpt lat="46.53809" lon="5.26471">
        <ele>186.8</ele>
        <time>2022-07-07T05:58:07Z</time>
      </trkpt>
      <trkpt lat="46.53812" lon="5.26488">
        <ele>186.8</ele>
        <time>2022-07-07T05:58:09Z</time>
      </trkpt>
      <trkpt lat="46.53812" lon="5.26497">
        <ele>186.8</ele>
        <time>2022-07-07T05:58:10Z</time>
      </trkpt>
      <trkpt lat="46.53823" lon="5.26578">
        <ele>186</ele>
        <time>2022-07-07T05:58:19Z</time>
      </trkpt>
      <trkpt lat="46.53826" lon="5.26587">
        <ele>186</ele>
        <time>2022-07-07T05:58:20Z</time>
      </trkpt>
      <trkpt lat="46.53829" lon="5.26595">
        <ele>185.8</ele>
        <time>2022-07-07T05:58:21Z</time>
      </trkpt>
      <trkpt lat="46.53836" lon="5.26627">
        <ele>185</ele>
        <time>2022-07-07T05:58:24Z</time>
      </trkpt>
      <trkpt lat="46.53839" lon="5.26635">
        <ele>185</ele>
        <time>2022-07-07T05:58:25Z</time>
      </trkpt>
      <trkpt lat="46.53841" lon="5.2664">
        <ele>184.8</ele>
        <time>2022-07-07T05:58:26Z</time>
      </trkpt>
      <trkpt lat="46.53845" lon="5.26642">
        <ele>184.6</ele>
        <time>2022-07-07T05:58:27Z</time>
      </trkpt>
      <trkpt lat="46.53853" lon="5.26639">
        <ele>184.2</ele>
        <time>2022-07-07T05:58:29Z</time>
      </trkpt>
      <trkpt lat="46.53858" lon="5.26635">
        <ele>184</ele>
        <time>2022-07-07T05:58:30Z</time>
      </trkpt>
      <trkpt lat="46.53862" lon="5.2663">
        <ele>183.8</ele>
        <time>2022-07-07T05:58:31Z</time>
      </trkpt>
      <trkpt lat="46.53871" lon="5.26612">
        <ele>183.8</ele>
        <time>2022-07-07T05:58:34Z</time>
      </trkpt>
      <trkpt lat="46.53891" lon="5.26574">
        <ele>184.4</ele>
        <time>2022-07-07T05:58:41Z</time>
      </trkpt>
      <trkpt lat="46.53899" lon="5.26556">
        <ele>184.8</ele>
        <time>2022-07-07T05:58:44Z</time>
      </trkpt>
      <trkpt lat="46.53902" lon="5.26544">
        <ele>185.2</ele>
        <time>2022-07-07T05:58:46Z</time>
      </trkpt>
      <trkpt lat="46.53908" lon="5.26527">
        <ele>186.2</ele>
        <time>2022-07-07T05:58:49Z</time>
      </trkpt>
      <trkpt lat="46.53913" lon="5.26514">
        <ele>186.4</ele>
        <time>2022-07-07T05:58:51Z</time>
      </trkpt>
      <trkpt lat="46.5392" lon="5.26495">
        <ele>187.2</ele>
        <time>2022-07-07T05:58:54Z</time>
      </trkpt>
      <trkpt lat="46.53925" lon="5.26481">
        <ele>187.8</ele>
        <time>2022-07-07T05:58:56Z</time>
      </trkpt>
      <trkpt lat="46.53927" lon="5.26474">
        <ele>188.2</ele>
        <time>2022-07-07T05:58:57Z</time>
      </trkpt>
      <trkpt lat="46.5394" lon="5.26435">
        <ele>189</ele>
        <time>2022-07-07T05:59:03Z</time>
      </trkpt>
      <trkpt lat="46.53944" lon="5.26422">
        <ele>189.2</ele>
        <time>2022-07-07T05:59:05Z</time>
      </trkpt>
      <trkpt lat="46.53946" lon="5.26415">
        <ele>189.4</ele>
        <time>2022-07-07T05:59:06Z</time>
      </trkpt>
      <trkpt lat="46.53955" lon="5.26389">
        <ele>189.8</ele>
        <time>2022-07-07T05:59:10Z</time>
      </trkpt>
      <trkpt lat="46.53968" lon="5.2635">
        <ele>190.4</ele>
        <time>2022-07-07T05:59:16Z</time>
      </trkpt>
      <trkpt lat="46.53973" lon="5.26337">
        <ele>190.6</ele>
        <time>2022-07-07T05:59:18Z</time>
      </trkpt>
      <trkpt lat="46.53975" lon="5.26331">
        <ele>190.8</ele>
        <time>2022-07-07T05:59:19Z</time>
      </trkpt>
      <trkpt lat="46.53982" lon="5.26314">
        <ele>191.6</ele>
        <time>2022-07-07T05:59:22Z</time>
      </trkpt>
      <trkpt lat="46.53984" lon="5.26308">
        <ele>191.8</ele>
        <time>2022-07-07T05:59:23Z</time>
      </trkpt>
      <trkpt lat="46.53993" lon="5.26284">
        <ele>192.6</ele>
        <time>2022-07-07T05:59:27Z</time>
      </trkpt>
      <trkpt lat="46.53994" lon="5.26278">
        <ele>192.6</ele>
        <time>2022-07-07T05:59:28Z</time>
      </trkpt>
      <trkpt lat="46.53996" lon="5.26272">
        <ele>192.8</ele>
        <time>2022-07-07T05:59:29Z</time>
      </trkpt>
      <trkpt lat="46.53997" lon="5.26266">
        <ele>192.8</ele>
        <time>2022-07-07T05:59:30Z</time>
      </trkpt>
      <trkpt lat="46.54" lon="5.26256">
        <ele>193.6</ele>
        <time>2022-07-07T05:59:32Z</time>
      </trkpt>
      <trkpt lat="46.54004" lon="5.26245">
        <ele>194</ele>
        <time>2022-07-07T05:59:34Z</time>
      </trkpt>
      <trkpt lat="46.54017" lon="5.26229">
        <ele>194.8</ele>
        <time>2022-07-07T05:59:38Z</time>
      </trkpt>
      <trkpt lat="46.54021" lon="5.26226">
        <ele>195</ele>
        <time>2022-07-07T05:59:39Z</time>
      </trkpt>
      <trkpt lat="46.54035" lon="5.26215">
        <ele>196.2</ele>
        <time>2022-07-07T05:59:43Z</time>
      </trkpt>
      <trkpt lat="46.54048" lon="5.26207">
        <ele>197</ele>
        <time>2022-07-07T05:59:46Z</time>
      </trkpt>
      <trkpt lat="46.54058" lon="5.26204">
        <ele>197.4</ele>
        <time>2022-07-07T05:59:48Z</time>
      </trkpt>
      <trkpt lat="46.54077" lon="5.26194">
        <ele>198</ele>
        <time>2022-07-07T05:59:52Z</time>
      </trkpt>
      <trkpt lat="46.54091" lon="5.26186">
        <ele>198.4</ele>
        <time>2022-07-07T05:59:55Z</time>
      </trkpt>
      <trkpt lat="46.54096" lon="5.26182">
        <ele>198.4</ele>
        <time>2022-07-07T05:59:56Z</time>
      </trkpt>
      <trkpt lat="46.54104" lon="5.26175">
        <ele>198.6</ele>
        <time>2022-07-07T05:59:58Z</time>
      </trkpt>
      <trkpt lat="46.5411" lon="5.26168">
        <ele>198.6</ele>
        <time>2022-07-07T06:00:00Z</time>
      </trkpt>
      <trkpt lat="46.54114" lon="5.26163">
        <ele>198.6</ele>
        <time>2022-07-07T06:00:01Z</time>
      </trkpt>
      <trkpt lat="46.54126" lon="5.2615">
        <ele>198.8</ele>
        <time>2022-07-07T06:00:04Z</time>
      </trkpt>
      <trkpt lat="46.54136" lon="5.26145">
        <ele>199</ele>
        <time>2022-07-07T06:00:06Z</time>
      </trkpt>
      <trkpt lat="46.54152" lon="5.2614">
        <ele>199.4</ele>
        <time>2022-07-07T06:00:09Z</time>
      </trkpt>
      <trkpt lat="46.54175" lon="5.26135">
        <ele>199.6</ele>
        <time>2022-07-07T06:00:13Z</time>
      </trkpt>
      <trkpt lat="46.54189" lon="5.26137">
        <ele>199.4</ele>
        <time>2022-07-07T06:00:15Z</time>
      </trkpt>
      <trkpt lat="46.54202" lon="5.26146">
        <ele>199</ele>
        <time>2022-07-07T06:00:17Z</time>
      </trkpt>
      <trkpt lat="46.54222" lon="5.26169">
        <ele>198.2</ele>
        <time>2022-07-07T06:00:20Z</time>
      </trkpt>
      <trkpt lat="46.54228" lon="5.26177">
        <ele>198</ele>
        <time>2022-07-07T06:00:21Z</time>
      </trkpt>
      <trkpt lat="46.54235" lon="5.26186">
        <ele>197.2</ele>
        <time>2022-07-07T06:00:22Z</time>
      </trkpt>
      <trkpt lat="46.54243" lon="5.26192">
        <ele>196.8</ele>
        <time>2022-07-07T06:00:23Z</time>
      </trkpt>
      <trkpt lat="46.54252" lon="5.26199">
        <ele>196.2</ele>
        <time>2022-07-07T06:00:24Z</time>
      </trkpt>
      <trkpt lat="46.54258" lon="5.26202">
        <ele>195.2</ele>
        <time>2022-07-07T06:00:25Z</time>
      </trkpt>
      <trkpt lat="46.54265" lon="5.26203">
        <ele>195</ele>
        <time>2022-07-07T06:00:26Z</time>
      </trkpt>
      <trkpt lat="46.54282" lon="5.26199">
        <ele>194.4</ele>
        <time>2022-07-07T06:00:28Z</time>
      </trkpt>
      <trkpt lat="46.54291" lon="5.26194">
        <ele>193.8</ele>
        <time>2022-07-07T06:00:29Z</time>
      </trkpt>
      <trkpt lat="46.54319" lon="5.2618">
        <ele>192.2</ele>
        <time>2022-07-07T06:00:32Z</time>
      </trkpt>
      <trkpt lat="46.54347" lon="5.26166">
        <ele>191.2</ele>
        <time>2022-07-07T06:00:35Z</time>
      </trkpt>
      <trkpt lat="46.54356" lon="5.26161">
        <ele>191</ele>
        <time>2022-07-07T06:00:36Z</time>
      </trkpt>
      <trkpt lat="46.54382" lon="5.26143">
        <ele>189.4</ele>
        <time>2022-07-07T06:00:39Z</time>
      </trkpt>
      <trkpt lat="46.54399" lon="5.26129">
        <ele>189</ele>
        <time>2022-07-07T06:00:41Z</time>
      </trkpt>
      <trkpt lat="46.54431" lon="5.26101">
        <ele>188.2</ele>
        <time>2022-07-07T06:00:45Z</time>
      </trkpt>
      <trkpt lat="46.54445" lon="5.26087">
        <ele>187.6</ele>
        <time>2022-07-07T06:00:47Z</time>
      </trkpt>
      <trkpt lat="46.54477" lon="5.2606">
        <ele>187.4</ele>
        <time>2022-07-07T06:00:52Z</time>
      </trkpt>
      <trkpt lat="46.54513" lon="5.26035">
        <ele>187.8</ele>
        <time>2022-07-07T06:00:58Z</time>
      </trkpt>
      <trkpt lat="46.54556" lon="5.26017">
        <ele>188</ele>
        <time>2022-07-07T06:01:05Z</time>
      </trkpt>
      <trkpt lat="46.54601" lon="5.26007">
        <ele>188.8</ele>
        <time>2022-07-07T06:01:13Z</time>
      </trkpt>
      <trkpt lat="46.54647" lon="5.26002">
        <ele>189.4</ele>
        <time>2022-07-07T06:01:20Z</time>
      </trkpt>
      <trkpt lat="46.54659" lon="5.26">
        <ele>189.4</ele>
        <time>2022-07-07T06:01:22Z</time>
      </trkpt>
      <trkpt lat="46.54706" lon="5.25994">
        <ele>189.4</ele>
        <time>2022-07-07T06:01:29Z</time>
      </trkpt>
      <trkpt lat="46.54743" lon="5.25993">
        <ele>188.6</ele>
        <time>2022-07-07T06:01:34Z</time>
      </trkpt>
      <trkpt lat="46.54759" lon="5.25996">
        <ele>188.2</ele>
        <time>2022-07-07T06:01:36Z</time>
      </trkpt>
      <trkpt lat="46.54784" lon="5.26004">
        <ele>187.6</ele>
        <time>2022-07-07T06:01:39Z</time>
      </trkpt>
      <trkpt lat="46.54808" lon="5.26014">
        <ele>187</ele>
        <time>2022-07-07T06:01:42Z</time>
      </trkpt>
      <trkpt lat="46.54838" lon="5.26026">
        <ele>185.8</ele>
        <time>2022-07-07T06:01:46Z</time>
      </trkpt>
      <trkpt lat="46.54879" lon="5.26037">
        <ele>185.8</ele>
        <time>2022-07-07T06:01:52Z</time>
      </trkpt>
      <trkpt lat="46.54913" lon="5.26039">
        <ele>187</ele>
        <time>2022-07-07T06:01:58Z</time>
      </trkpt>
      <trkpt lat="46.54918" lon="5.26039">
        <ele>187.2</ele>
        <time>2022-07-07T06:01:59Z</time>
      </trkpt>
      <trkpt lat="46.54937" lon="5.2604">
        <ele>188</ele>
        <time>2022-07-07T06:02:03Z</time>
      </trkpt>
      <trkpt lat="46.5495" lon="5.2604">
        <ele>188.8</ele>
        <time>2022-07-07T06:02:06Z</time>
      </trkpt>
      <trkpt lat="46.54957" lon="5.26041">
        <ele>189.4</ele>
        <time>2022-07-07T06:02:08Z</time>
      </trkpt>
      <trkpt lat="46.54969" lon="5.26042">
        <ele>190.6</ele>
        <time>2022-07-07T06:02:11Z</time>
      </trkpt>
      <trkpt lat="46.54979" lon="5.26044">
        <ele>191.2</ele>
        <time>2022-07-07T06:02:14Z</time>
      </trkpt>
      <trkpt lat="46.54983" lon="5.26044">
        <ele>191.6</ele>
        <time>2022-07-07T06:02:15Z</time>
      </trkpt>
      <trkpt lat="46.54998" lon="5.26046">
        <ele>192.8</ele>
        <time>2022-07-07T06:02:19Z</time>
      </trkpt>
      <trkpt lat="46.55011" lon="5.26047">
        <ele>193.8</ele>
        <time>2022-07-07T06:02:22Z</time>
      </trkpt>
      <trkpt lat="46.55015" lon="5.26048">
        <ele>194</ele>
        <time>2022-07-07T06:02:23Z</time>
      </trkpt>
      <trkpt lat="46.55031" lon="5.26049">
        <ele>195.2</ele>
        <time>2022-07-07T06:02:27Z</time>
      </trkpt>
      <trkpt lat="46.55041" lon="5.26052">
        <ele>195.6</ele>
        <time>2022-07-07T06:02:29Z</time>
      </trkpt>
      <trkpt lat="46.55052" lon="5.26056">
        <ele>196.4</ele>
        <time>2022-07-07T06:02:32Z</time>
      </trkpt>
      <trkpt lat="46.55075" lon="5.2606">
        <ele>197.4</ele>
        <time>2022-07-07T06:02:37Z</time>
      </trkpt>
      <trkpt lat="46.55079" lon="5.26061">
        <ele>197.8</ele>
        <time>2022-07-07T06:02:38Z</time>
      </trkpt>
      <trkpt lat="46.55101" lon="5.2607">
        <ele>199</ele>
        <time>2022-07-07T06:02:43Z</time>
      </trkpt>
      <trkpt lat="46.55118" lon="5.26079">
        <ele>199.4</ele>
        <time>2022-07-07T06:02:47Z</time>
      </trkpt>
      <trkpt lat="46.55134" lon="5.26089">
        <ele>200</ele>
        <time>2022-07-07T06:02:51Z</time>
      </trkpt>
      <trkpt lat="46.55162" lon="5.26106">
        <ele>201</ele>
        <time>2022-07-07T06:02:58Z</time>
      </trkpt>
      <trkpt lat="46.5519" lon="5.26124">
        <ele>202</ele>
        <time>2022-07-07T06:03:05Z</time>
      </trkpt>
      <trkpt lat="46.55199" lon="5.2613">
        <ele>202.2</ele>
        <time>2022-07-07T06:03:07Z</time>
      </trkpt>
      <trkpt lat="46.55206" lon="5.26134">
        <ele>202.6</ele>
        <time>2022-07-07T06:03:09Z</time>
      </trkpt>
      <trkpt lat="46.55224" lon="5.26141">
        <ele>202.6</ele>
        <time>2022-07-07T06:03:12Z</time>
      </trkpt>
      <trkpt lat="46.55228" lon="5.26141">
        <ele>202.6</ele>
        <time>2022-07-07T06:03:13Z</time>
      </trkpt>
      <trkpt lat="46.55234" lon="5.26141">
        <ele>202.6</ele>
        <time>2022-07-07T06:03:14Z</time>
      </trkpt>
      <trkpt lat="46.55247" lon="5.26138">
        <ele>202.6</ele>
        <time>2022-07-07T06:03:16Z</time>
      </trkpt>
      <trkpt lat="46.55253" lon="5.26135">
        <ele>202.6</ele>
        <time>2022-07-07T06:03:17Z</time>
      </trkpt>
      <trkpt lat="46.55286" lon="5.26125">
        <ele>202</ele>
        <time>2022-07-07T06:03:22Z</time>
      </trkpt>
      <trkpt lat="46.55328" lon="5.2613">
        <ele>201.4</ele>
        <time>2022-07-07T06:03:28Z</time>
      </trkpt>
      <trkpt lat="46.55371" lon="5.26147">
        <ele>201.2</ele>
        <time>2022-07-07T06:03:35Z</time>
      </trkpt>
      <trkpt lat="46.55376" lon="5.26151">
        <ele>201.2</ele>
        <time>2022-07-07T06:03:36Z</time>
      </trkpt>
      <trkpt lat="46.55391" lon="5.26162">
        <ele>201.2</ele>
        <time>2022-07-07T06:03:39Z</time>
      </trkpt>
      <trkpt lat="46.55412" lon="5.2618">
        <ele>201.4</ele>
        <time>2022-07-07T06:03:45Z</time>
      </trkpt>
      <trkpt lat="46.55414" lon="5.26182">
        <ele>201.6</ele>
        <time>2022-07-07T06:03:47Z</time>
      </trkpt>
      <trkpt lat="46.55415" lon="5.26182">
        <ele>201.6</ele>
        <time>2022-07-07T06:03:48Z</time>
      </trkpt>
      <trkpt lat="46.55415" lon="5.26182">
        <ele>201.6</ele>
        <time>2022-07-07T06:03:49Z</time>
      </trkpt>
      <trkpt lat="46.55417" lon="5.26183">
        <ele>202.2</ele>
        <time>2022-07-07T06:04:16Z</time>
      </trkpt>
      <trkpt lat="46.55423" lon="5.26186">
        <ele>202.4</ele>
        <time>2022-07-07T06:04:18Z</time>
      </trkpt>
      <trkpt lat="46.55432" lon="5.26192">
        <ele>202.4</ele>
        <time>2022-07-07T06:04:20Z</time>
      </trkpt>
      <trkpt lat="46.55442" lon="5.262">
        <ele>202.2</ele>
        <time>2022-07-07T06:04:22Z</time>
      </trkpt>
      <trkpt lat="46.55482" lon="5.26216">
        <ele>201.4</ele>
        <time>2022-07-07T06:04:28Z</time>
      </trkpt>
      <trkpt lat="46.55488" lon="5.26216">
        <ele>201.4</ele>
        <time>2022-07-07T06:04:29Z</time>
      </trkpt>
      <trkpt lat="46.55514" lon="5.26213">
        <ele>201.4</ele>
        <time>2022-07-07T06:04:33Z</time>
      </trkpt>
      <trkpt lat="46.55564" lon="5.2621">
        <ele>201.8</ele>
        <time>2022-07-07T06:04:41Z</time>
      </trkpt>
      <trkpt lat="46.55603" lon="5.26219">
        <ele>202.2</ele>
        <time>2022-07-07T06:04:47Z</time>
      </trkpt>
      <trkpt lat="46.55642" lon="5.26215">
        <ele>202</ele>
        <time>2022-07-07T06:04:53Z</time>
      </trkpt>
      <trkpt lat="46.55699" lon="5.26212">
        <ele>201.6</ele>
        <time>2022-07-07T06:05:02Z</time>
      </trkpt>
      <trkpt lat="46.55706" lon="5.26211">
        <ele>201.8</ele>
        <time>2022-07-07T06:05:03Z</time>
      </trkpt>
      <trkpt lat="46.55762" lon="5.26208">
        <ele>202</ele>
        <time>2022-07-07T06:05:12Z</time>
      </trkpt>
      <trkpt lat="46.55818" lon="5.26205">
        <ele>202.6</ele>
        <time>2022-07-07T06:05:21Z</time>
      </trkpt>
      <trkpt lat="46.55824" lon="5.26205">
        <ele>202.6</ele>
        <time>2022-07-07T06:05:22Z</time>
      </trkpt>
      <trkpt lat="46.55859" lon="5.26204">
        <ele>202.4</ele>
        <time>2022-07-07T06:05:27Z</time>
      </trkpt>
      <trkpt lat="46.55909" lon="5.26202">
        <ele>201.6</ele>
        <time>2022-07-07T06:05:33Z</time>
      </trkpt>
      <trkpt lat="46.55918" lon="5.26202">
        <ele>201.2</ele>
        <time>2022-07-07T06:05:34Z</time>
      </trkpt>
      <trkpt lat="46.55938" lon="5.26202">
        <ele>199.8</ele>
        <time>2022-07-07T06:05:36Z</time>
      </trkpt>
      <trkpt lat="46.55958" lon="5.262">
        <ele>198.6</ele>
        <time>2022-07-07T06:05:38Z</time>
      </trkpt>
      <trkpt lat="46.55982" lon="5.262">
        <ele>197.6</ele>
        <time>2022-07-07T06:05:41Z</time>
      </trkpt>
      <trkpt lat="46.56002" lon="5.26199">
        <ele>196.2</ele>
        <time>2022-07-07T06:05:43Z</time>
      </trkpt>
      <trkpt lat="46.56027" lon="5.262">
        <ele>195.2</ele>
        <time>2022-07-07T06:05:45Z</time>
      </trkpt>
      <trkpt lat="46.56049" lon="5.26201">
        <ele>194.2</ele>
        <time>2022-07-07T06:05:47Z</time>
      </trkpt>
      <trkpt lat="46.56068" lon="5.26204">
        <ele>192.8</ele>
        <time>2022-07-07T06:05:49Z</time>
      </trkpt>
      <trkpt lat="46.56087" lon="5.26208">
        <ele>191.8</ele>
        <time>2022-07-07T06:05:51Z</time>
      </trkpt>
      <trkpt lat="46.56096" lon="5.26211">
        <ele>191.2</ele>
        <time>2022-07-07T06:05:52Z</time>
      </trkpt>
      <trkpt lat="46.56113" lon="5.26216">
        <ele>190.2</ele>
        <time>2022-07-07T06:05:54Z</time>
      </trkpt>
      <trkpt lat="46.56131" lon="5.26218">
        <ele>188.8</ele>
        <time>2022-07-07T06:05:56Z</time>
      </trkpt>
      <trkpt lat="46.56147" lon="5.26215">
        <ele>188.4</ele>
        <time>2022-07-07T06:05:58Z</time>
      </trkpt>
      <trkpt lat="46.56162" lon="5.26207">
        <ele>188.4</ele>
        <time>2022-07-07T06:06:00Z</time>
      </trkpt>
      <trkpt lat="46.56195" lon="5.26177">
        <ele>188</ele>
        <time>2022-07-07T06:06:05Z</time>
      </trkpt>
      <trkpt lat="46.56202" lon="5.2617">
        <ele>187.8</ele>
        <time>2022-07-07T06:06:06Z</time>
      </trkpt>
      <trkpt lat="46.5625" lon="5.26124">
        <ele>187.4</ele>
        <time>2022-07-07T06:06:13Z</time>
      </trkpt>
      <trkpt lat="46.56257" lon="5.26117">
        <ele>187.4</ele>
        <time>2022-07-07T06:06:14Z</time>
      </trkpt>
      <trkpt lat="46.56305" lon="5.26072">
        <ele>187</ele>
        <time>2022-07-07T06:06:21Z</time>
      </trkpt>
      <trkpt lat="46.56338" lon="5.2604">
        <ele>186.8</ele>
        <time>2022-07-07T06:06:26Z</time>
      </trkpt>
      <trkpt lat="46.56346" lon="5.26033">
        <ele>186.8</ele>
        <time>2022-07-07T06:06:27Z</time>
      </trkpt>
      <trkpt lat="46.56396" lon="5.25985">
        <ele>186.4</ele>
        <time>2022-07-07T06:06:35Z</time>
      </trkpt>
      <trkpt lat="46.56408" lon="5.25973">
        <ele>186.4</ele>
        <time>2022-07-07T06:06:37Z</time>
      </trkpt>
      <trkpt lat="46.56449" lon="5.25934">
        <ele>186.2</ele>
        <time>2022-07-07T06:06:44Z</time>
      </trkpt>
      <trkpt lat="46.56499" lon="5.25886">
        <ele>186</ele>
        <time>2022-07-07T06:06:52Z</time>
      </trkpt>
      <trkpt lat="46.5651" lon="5.25875">
        <ele>186.2</ele>
        <time>2022-07-07T06:06:54Z</time>
      </trkpt>
      <trkpt lat="46.56557" lon="5.2583">
        <ele>186.2</ele>
        <time>2022-07-07T06:07:02Z</time>
      </trkpt>
      <trkpt lat="46.56568" lon="5.25818">
        <ele>186.2</ele>
        <time>2022-07-07T06:07:04Z</time>
      </trkpt>
      <trkpt lat="46.56613" lon="5.25767">
        <ele>186.2</ele>
        <time>2022-07-07T06:07:12Z</time>
      </trkpt>
      <trkpt lat="46.56624" lon="5.25754">
        <ele>186.2</ele>
        <time>2022-07-07T06:07:14Z</time>
      </trkpt>
      <trkpt lat="46.56669" lon="5.257">
        <ele>186.2</ele>
        <time>2022-07-07T06:07:22Z</time>
      </trkpt>
      <trkpt lat="46.5668" lon="5.25687">
        <ele>186.2</ele>
        <time>2022-07-07T06:07:24Z</time>
      </trkpt>
      <trkpt lat="46.56703" lon="5.25659">
        <ele>185.8</ele>
        <time>2022-07-07T06:07:28Z</time>
      </trkpt>
      <trkpt lat="46.56731" lon="5.25626">
        <ele>185.6</ele>
        <time>2022-07-07T06:07:33Z</time>
      </trkpt>
      <trkpt lat="46.56759" lon="5.25581">
        <ele>185.2</ele>
        <time>2022-07-07T06:07:39Z</time>
      </trkpt>
      <trkpt lat="46.56783" lon="5.25527">
        <ele>184.8</ele>
        <time>2022-07-07T06:07:45Z</time>
      </trkpt>
      <trkpt lat="46.56787" lon="5.25517">
        <ele>184.8</ele>
        <time>2022-07-07T06:07:46Z</time>
      </trkpt>
      <trkpt lat="46.56809" lon="5.25457">
        <ele>183.6</ele>
        <time>2022-07-07T06:07:52Z</time>
      </trkpt>
      <trkpt lat="46.56811" lon="5.25446">
        <ele>183.4</ele>
        <time>2022-07-07T06:07:53Z</time>
      </trkpt>
      <trkpt lat="46.56813" lon="5.25435">
        <ele>183.2</ele>
        <time>2022-07-07T06:07:54Z</time>
      </trkpt>
      <trkpt lat="46.56814" lon="5.25402">
        <ele>183</ele>
        <time>2022-07-07T06:07:57Z</time>
      </trkpt>
      <trkpt lat="46.56806" lon="5.25352">
        <ele>182.6</ele>
        <time>2022-07-07T06:08:02Z</time>
      </trkpt>
      <trkpt lat="46.56793" lon="5.25303">
        <ele>182.8</ele>
        <time>2022-07-07T06:08:07Z</time>
      </trkpt>
      <trkpt lat="46.56784" lon="5.25265">
        <ele>183</ele>
        <time>2022-07-07T06:08:11Z</time>
      </trkpt>
      <trkpt lat="46.56783" lon="5.25249">
        <ele>183</ele>
        <time>2022-07-07T06:08:13Z</time>
      </trkpt>
      <trkpt lat="46.56785" lon="5.25189">
        <ele>183.6</ele>
        <time>2022-07-07T06:08:19Z</time>
      </trkpt>
      <trkpt lat="46.56797" lon="5.25137">
        <ele>184</ele>
        <time>2022-07-07T06:08:25Z</time>
      </trkpt>
      <trkpt lat="46.56807" lon="5.25095">
        <ele>184.6</ele>
        <time>2022-07-07T06:08:30Z</time>
      </trkpt>
      <trkpt lat="46.56807" lon="5.25088">
        <ele>184.8</ele>
        <time>2022-07-07T06:08:31Z</time>
      </trkpt>
      <trkpt lat="46.5681" lon="5.25024">
        <ele>185.4</ele>
        <time>2022-07-07T06:08:38Z</time>
      </trkpt>
      <trkpt lat="46.56811" lon="5.25015">
        <ele>185.4</ele>
        <time>2022-07-07T06:08:39Z</time>
      </trkpt>
      <trkpt lat="46.56813" lon="5.25006">
        <ele>185.4</ele>
        <time>2022-07-07T06:08:40Z</time>
      </trkpt>
      <trkpt lat="46.56821" lon="5.24982">
        <ele>185.6</ele>
        <time>2022-07-07T06:08:43Z</time>
      </trkpt>
      <trkpt lat="46.56828" lon="5.24967">
        <ele>185.8</ele>
        <time>2022-07-07T06:08:45Z</time>
      </trkpt>
      <trkpt lat="46.56842" lon="5.24947">
        <ele>185.8</ele>
        <time>2022-07-07T06:08:48Z</time>
      </trkpt>
      <trkpt lat="46.56884" lon="5.24884">
        <ele>186</ele>
        <time>2022-07-07T06:08:57Z</time>
      </trkpt>
      <trkpt lat="46.56888" lon="5.24875">
        <ele>186</ele>
        <time>2022-07-07T06:08:58Z</time>
      </trkpt>
      <trkpt lat="46.56909" lon="5.24817">
        <ele>185.4</ele>
        <time>2022-07-07T06:09:04Z</time>
      </trkpt>
      <trkpt lat="46.56934" lon="5.24745">
        <ele>185</ele>
        <time>2022-07-07T06:09:12Z</time>
      </trkpt>
      <trkpt lat="46.56954" lon="5.24689">
        <ele>185.4</ele>
        <time>2022-07-07T06:09:19Z</time>
      </trkpt>
      <trkpt lat="46.56968" lon="5.24653">
        <ele>186</ele>
        <time>2022-07-07T06:09:25Z</time>
      </trkpt>
      <trkpt lat="46.56976" lon="5.24644">
        <ele>186.6</ele>
        <time>2022-07-07T06:09:29Z</time>
      </trkpt>
      <trkpt lat="46.56984" lon="5.24645">
        <ele>186.8</ele>
        <time>2022-07-07T06:09:31Z</time>
      </trkpt>
      <trkpt lat="46.56994" lon="5.2465">
        <ele>187</ele>
        <time>2022-07-07T06:09:33Z</time>
      </trkpt>
      <trkpt lat="46.57041" lon="5.24668">
        <ele>186.8</ele>
        <time>2022-07-07T06:09:40Z</time>
      </trkpt>
      <trkpt lat="46.57097" lon="5.24687">
        <ele>185.6</ele>
        <time>2022-07-07T06:09:48Z</time>
      </trkpt>
      <trkpt lat="46.57128" lon="5.24695">
        <ele>185.4</ele>
        <time>2022-07-07T06:09:52Z</time>
      </trkpt>
      <trkpt lat="46.57143" lon="5.24694">
        <ele>185.2</ele>
        <time>2022-07-07T06:09:54Z</time>
      </trkpt>
      <trkpt lat="46.57159" lon="5.2469">
        <ele>184.4</ele>
        <time>2022-07-07T06:09:56Z</time>
      </trkpt>
      <trkpt lat="46.57189" lon="5.24679">
        <ele>183.6</ele>
        <time>2022-07-07T06:10:00Z</time>
      </trkpt>
      <trkpt lat="46.57197" lon="5.24676">
        <ele>183.4</ele>
        <time>2022-07-07T06:10:01Z</time>
      </trkpt>
      <trkpt lat="46.57255" lon="5.24655">
        <ele>182.2</ele>
        <time>2022-07-07T06:10:09Z</time>
      </trkpt>
      <trkpt lat="46.57262" lon="5.24653">
        <ele>182</ele>
        <time>2022-07-07T06:10:10Z</time>
      </trkpt>
      <trkpt lat="46.57276" lon="5.24656">
        <ele>181.8</ele>
        <time>2022-07-07T06:10:12Z</time>
      </trkpt>
      <trkpt lat="46.57285" lon="5.2467">
        <ele>181.6</ele>
        <time>2022-07-07T06:10:14Z</time>
      </trkpt>
      <trkpt lat="46.57288" lon="5.24679">
        <ele>181.4</ele>
        <time>2022-07-07T06:10:15Z</time>
      </trkpt>
      <trkpt lat="46.57297" lon="5.24705">
        <ele>181.2</ele>
        <time>2022-07-07T06:10:18Z</time>
      </trkpt>
      <trkpt lat="46.57306" lon="5.2472">
        <ele>181.2</ele>
        <time>2022-07-07T06:10:20Z</time>
      </trkpt>
      <trkpt lat="46.57316" lon="5.24733">
        <ele>181.4</ele>
        <time>2022-07-07T06:10:22Z</time>
      </trkpt>
      <trkpt lat="46.57333" lon="5.24749">
        <ele>181.4</ele>
        <time>2022-07-07T06:10:25Z</time>
      </trkpt>
      <trkpt lat="46.57375" lon="5.24795">
        <ele>181.8</ele>
        <time>2022-07-07T06:10:33Z</time>
      </trkpt>
      <trkpt lat="46.57398" lon="5.24846">
        <ele>181.4</ele>
        <time>2022-07-07T06:10:39Z</time>
      </trkpt>
      <trkpt lat="46.57424" lon="5.24902">
        <ele>181.4</ele>
        <time>2022-07-07T06:10:46Z</time>
      </trkpt>
      <trkpt lat="46.57453" lon="5.24966">
        <ele>181.8</ele>
        <time>2022-07-07T06:10:54Z</time>
      </trkpt>
      <trkpt lat="46.57484" lon="5.25038">
        <ele>182</ele>
        <time>2022-07-07T06:11:03Z</time>
      </trkpt>
      <trkpt lat="46.57491" lon="5.25055">
        <ele>182</ele>
        <time>2022-07-07T06:11:05Z</time>
      </trkpt>
      <trkpt lat="46.57521" lon="5.25105">
        <ele>182.2</ele>
        <time>2022-07-07T06:11:12Z</time>
      </trkpt>
      <trkpt lat="46.57547" lon="5.2513">
        <ele>182.2</ele>
        <time>2022-07-07T06:11:17Z</time>
      </trkpt>
      <trkpt lat="46.57552" lon="5.25133">
        <ele>182.4</ele>
        <time>2022-07-07T06:11:18Z</time>
      </trkpt>
      <trkpt lat="46.57588" lon="5.25145">
        <ele>183.4</ele>
        <time>2022-07-07T06:11:24Z</time>
      </trkpt>
      <trkpt lat="46.57612" lon="5.25142">
        <ele>184.2</ele>
        <time>2022-07-07T06:11:28Z</time>
      </trkpt>
      <trkpt lat="46.57618" lon="5.25139">
        <ele>184.2</ele>
        <time>2022-07-07T06:11:29Z</time>
      </trkpt>
      <trkpt lat="46.57624" lon="5.25136">
        <ele>184.4</ele>
        <time>2022-07-07T06:11:30Z</time>
      </trkpt>
      <trkpt lat="46.57658" lon="5.25118">
        <ele>185.6</ele>
        <time>2022-07-07T06:11:36Z</time>
      </trkpt>
      <trkpt lat="46.57669" lon="5.25112">
        <ele>185.8</ele>
        <time>2022-07-07T06:11:38Z</time>
      </trkpt>
      <trkpt lat="46.57697" lon="5.25099">
        <ele>186.8</ele>
        <time>2022-07-07T06:11:43Z</time>
      </trkpt>
      <trkpt lat="46.57708" lon="5.25097">
        <ele>187.2</ele>
        <time>2022-07-07T06:11:45Z</time>
      </trkpt>
      <trkpt lat="46.57721" lon="5.25095">
        <ele>187.6</ele>
        <time>2022-07-07T06:11:47Z</time>
      </trkpt>
      <trkpt lat="46.57726" lon="5.25095">
        <ele>187.8</ele>
        <time>2022-07-07T06:11:48Z</time>
      </trkpt>
      <trkpt lat="46.57745" lon="5.25096">
        <ele>188.2</ele>
        <time>2022-07-07T06:11:51Z</time>
      </trkpt>
      <trkpt lat="46.57768" lon="5.25096">
        <ele>189</ele>
        <time>2022-07-07T06:11:55Z</time>
      </trkpt>
      <trkpt lat="46.57794" lon="5.25098">
        <ele>189.6</ele>
        <time>2022-07-07T06:11:59Z</time>
      </trkpt>
      <trkpt lat="46.57849" lon="5.251">
        <ele>189.6</ele>
        <time>2022-07-07T06:12:07Z</time>
      </trkpt>
      <trkpt lat="46.57856" lon="5.251">
        <ele>189.6</ele>
        <time>2022-07-07T06:12:08Z</time>
      </trkpt>
      <trkpt lat="46.57912" lon="5.25099">
        <ele>188.8</ele>
        <time>2022-07-07T06:12:15Z</time>
      </trkpt>
      <trkpt lat="46.57926" lon="5.25099">
        <ele>188.6</ele>
        <time>2022-07-07T06:12:17Z</time>
      </trkpt>
      <trkpt lat="46.5795" lon="5.25098">
        <ele>187.8</ele>
        <time>2022-07-07T06:12:20Z</time>
      </trkpt>
      <trkpt lat="46.57983" lon="5.25096">
        <ele>186.8</ele>
        <time>2022-07-07T06:12:24Z</time>
      </trkpt>
      <trkpt lat="46.58008" lon="5.25094">
        <ele>186</ele>
        <time>2022-07-07T06:12:27Z</time>
      </trkpt>
      <trkpt lat="46.58024" lon="5.25094">
        <ele>185.4</ele>
        <time>2022-07-07T06:12:29Z</time>
      </trkpt>
      <trkpt lat="46.58086" lon="5.25095">
        <ele>184.6</ele>
        <time>2022-07-07T06:12:37Z</time>
      </trkpt>
      <trkpt lat="46.58132" lon="5.25098">
        <ele>184.6</ele>
        <time>2022-07-07T06:12:44Z</time>
      </trkpt>
      <trkpt lat="46.58178" lon="5.25093">
        <ele>185</ele>
        <time>2022-07-07T06:12:51Z</time>
      </trkpt>
      <trkpt lat="46.58229" lon="5.25074">
        <ele>185</ele>
        <time>2022-07-07T06:12:59Z</time>
      </trkpt>
      <trkpt lat="46.58283" lon="5.25052">
        <ele>184.4</ele>
        <time>2022-07-07T06:13:07Z</time>
      </trkpt>
      <trkpt lat="46.5829" lon="5.25049">
        <ele>184.4</ele>
        <time>2022-07-07T06:13:08Z</time>
      </trkpt>
      <trkpt lat="46.58297" lon="5.25046">
        <ele>184.2</ele>
        <time>2022-07-07T06:13:09Z</time>
      </trkpt>
      <trkpt lat="46.58353" lon="5.25021">
        <ele>183.4</ele>
        <time>2022-07-07T06:13:17Z</time>
      </trkpt>
      <trkpt lat="46.58381" lon="5.2501">
        <ele>183.2</ele>
        <time>2022-07-07T06:13:21Z</time>
      </trkpt>
      <trkpt lat="46.5843" lon="5.2499">
        <ele>183.6</ele>
        <time>2022-07-07T06:13:29Z</time>
      </trkpt>
      <trkpt lat="46.58462" lon="5.24977">
        <ele>184.4</ele>
        <time>2022-07-07T06:13:35Z</time>
      </trkpt>
      <trkpt lat="46.58471" lon="5.24973">
        <ele>184.8</ele>
        <time>2022-07-07T06:13:37Z</time>
      </trkpt>
      <trkpt lat="46.58476" lon="5.24971">
        <ele>185.2</ele>
        <time>2022-07-07T06:13:38Z</time>
      </trkpt>
      <trkpt lat="46.58491" lon="5.24965">
        <ele>185.6</ele>
        <time>2022-07-07T06:13:41Z</time>
      </trkpt>
      <trkpt lat="46.58509" lon="5.24957">
        <ele>186</ele>
        <time>2022-07-07T06:13:45Z</time>
      </trkpt>
      <trkpt lat="46.58528" lon="5.24949">
        <ele>187.2</ele>
        <time>2022-07-07T06:13:49Z</time>
      </trkpt>
      <trkpt lat="46.58548" lon="5.2494">
        <ele>187.8</ele>
        <time>2022-07-07T06:13:53Z</time>
      </trkpt>
      <trkpt lat="46.5856" lon="5.24936">
        <ele>188.2</ele>
        <time>2022-07-07T06:13:56Z</time>
      </trkpt>
      <trkpt lat="46.58574" lon="5.24931">
        <ele>189.2</ele>
        <time>2022-07-07T06:13:59Z</time>
      </trkpt>
      <trkpt lat="46.58596" lon="5.24923">
        <ele>190.4</ele>
        <time>2022-07-07T06:14:04Z</time>
      </trkpt>
      <trkpt lat="46.58605" lon="5.24919">
        <ele>191</ele>
        <time>2022-07-07T06:14:06Z</time>
      </trkpt>
      <trkpt lat="46.58613" lon="5.24916">
        <ele>191.6</ele>
        <time>2022-07-07T06:14:08Z</time>
      </trkpt>
      <trkpt lat="46.5863" lon="5.2491">
        <ele>192.8</ele>
        <time>2022-07-07T06:14:12Z</time>
      </trkpt>
      <trkpt lat="46.58647" lon="5.24903">
        <ele>193.4</ele>
        <time>2022-07-07T06:14:16Z</time>
      </trkpt>
      <trkpt lat="46.58651" lon="5.24902">
        <ele>193.8</ele>
        <time>2022-07-07T06:14:17Z</time>
      </trkpt>
      <trkpt lat="46.58672" lon="5.24892">
        <ele>195</ele>
        <time>2022-07-07T06:14:22Z</time>
      </trkpt>
      <trkpt lat="46.58684" lon="5.24887">
        <ele>195.6</ele>
        <time>2022-07-07T06:14:25Z</time>
      </trkpt>
      <trkpt lat="46.58691" lon="5.24882">
        <ele>196</ele>
        <time>2022-07-07T06:14:27Z</time>
      </trkpt>
      <trkpt lat="46.58712" lon="5.24873">
        <ele>197</ele>
        <time>2022-07-07T06:14:32Z</time>
      </trkpt>
      <trkpt lat="46.58729" lon="5.24867">
        <ele>198</ele>
        <time>2022-07-07T06:14:36Z</time>
      </trkpt>
      <trkpt lat="46.58747" lon="5.24862">
        <ele>199</ele>
        <time>2022-07-07T06:14:40Z</time>
      </trkpt>
      <trkpt lat="46.5875" lon="5.24861">
        <ele>199</ele>
        <time>2022-07-07T06:14:41Z</time>
      </trkpt>
      <trkpt lat="46.58757" lon="5.24858">
        <ele>199.6</ele>
        <time>2022-07-07T06:14:43Z</time>
      </trkpt>
      <trkpt lat="46.5877" lon="5.24852">
        <ele>200</ele>
        <time>2022-07-07T06:14:46Z</time>
      </trkpt>
      <trkpt lat="46.58774" lon="5.2485">
        <ele>200.4</ele>
        <time>2022-07-07T06:14:47Z</time>
      </trkpt>
      <trkpt lat="46.58788" lon="5.24844">
        <ele>200.8</ele>
        <time>2022-07-07T06:14:50Z</time>
      </trkpt>
      <trkpt lat="46.58797" lon="5.2484">
        <ele>201.4</ele>
        <time>2022-07-07T06:14:52Z</time>
      </trkpt>
      <trkpt lat="46.58825" lon="5.24828">
        <ele>202.4</ele>
        <time>2022-07-07T06:14:58Z</time>
      </trkpt>
      <trkpt lat="46.5883" lon="5.24826">
        <ele>202.6</ele>
        <time>2022-07-07T06:14:59Z</time>
      </trkpt>
      <trkpt lat="46.58873" lon="5.24807">
        <ele>203.4</ele>
        <time>2022-07-07T06:15:08Z</time>
      </trkpt>
      <trkpt lat="46.58883" lon="5.24802">
        <ele>203.6</ele>
        <time>2022-07-07T06:15:10Z</time>
      </trkpt>
      <trkpt lat="46.58933" lon="5.24781">
        <ele>203.8</ele>
        <time>2022-07-07T06:15:19Z</time>
      </trkpt>
      <trkpt lat="46.58967" lon="5.24765">
        <ele>203.8</ele>
        <time>2022-07-07T06:15:25Z</time>
      </trkpt>
      <trkpt lat="46.58997" lon="5.24751">
        <ele>203.8</ele>
        <time>2022-07-07T06:15:30Z</time>
      </trkpt>
      <trkpt lat="46.59001" lon="5.24745">
        <ele>203.8</ele>
        <time>2022-07-07T06:15:31Z</time>
      </trkpt>
      <trkpt lat="46.59005" lon="5.24738">
        <ele>203.8</ele>
        <time>2022-07-07T06:15:32Z</time>
      </trkpt>
      <trkpt lat="46.59009" lon="5.2472">
        <ele>203.6</ele>
        <time>2022-07-07T06:15:34Z</time>
      </trkpt>
      <trkpt lat="46.59009" lon="5.24671">
        <ele>203.4</ele>
        <time>2022-07-07T06:15:39Z</time>
      </trkpt>
      <trkpt lat="46.59" lon="5.24591">
        <ele>203.2</ele>
        <time>2022-07-07T06:15:47Z</time>
      </trkpt>
      <trkpt lat="46.5898" lon="5.24512">
        <ele>203</ele>
        <time>2022-07-07T06:15:55Z</time>
      </trkpt>
      <trkpt lat="46.58977" lon="5.24502">
        <ele>202.8</ele>
        <time>2022-07-07T06:15:56Z</time>
      </trkpt>
      <trkpt lat="46.58964" lon="5.2446">
        <ele>202.4</ele>
        <time>2022-07-07T06:16:00Z</time>
      </trkpt>
      <trkpt lat="46.58962" lon="5.24449">
        <ele>202.4</ele>
        <time>2022-07-07T06:16:01Z</time>
      </trkpt>
      <trkpt lat="46.58961" lon="5.24437">
        <ele>202.2</ele>
        <time>2022-07-07T06:16:02Z</time>
      </trkpt>
      <trkpt lat="46.58963" lon="5.24401">
        <ele>201.4</ele>
        <time>2022-07-07T06:16:05Z</time>
      </trkpt>
      <trkpt lat="46.58966" lon="5.24364">
        <ele>200.8</ele>
        <time>2022-07-07T06:16:08Z</time>
      </trkpt>
      <trkpt lat="46.58967" lon="5.2434">
        <ele>200.4</ele>
        <time>2022-07-07T06:16:10Z</time>
      </trkpt>
      <trkpt lat="46.58968" lon="5.24316">
        <ele>199.8</ele>
        <time>2022-07-07T06:16:12Z</time>
      </trkpt>
      <trkpt lat="46.58965" lon="5.24293">
        <ele>199.4</ele>
        <time>2022-07-07T06:16:14Z</time>
      </trkpt>
      <trkpt lat="46.58948" lon="5.24219">
        <ele>199.4</ele>
        <time>2022-07-07T06:16:21Z</time>
      </trkpt>
      <trkpt lat="46.58933" lon="5.24143">
        <ele>200.4</ele>
        <time>2022-07-07T06:16:29Z</time>
      </trkpt>
      <trkpt lat="46.58934" lon="5.24124">
        <ele>200.8</ele>
        <time>2022-07-07T06:16:31Z</time>
      </trkpt>
      <trkpt lat="46.58938" lon="5.24104">
        <ele>200.8</ele>
        <time>2022-07-07T06:16:33Z</time>
      </trkpt>
      <trkpt lat="46.58954" lon="5.2405">
        <ele>200.8</ele>
        <time>2022-07-07T06:16:38Z</time>
      </trkpt>
      <trkpt lat="46.58971" lon="5.24003">
        <ele>199.4</ele>
        <time>2022-07-07T06:16:42Z</time>
      </trkpt>
      <trkpt lat="46.58979" lon="5.23994">
        <ele>199.2</ele>
        <time>2022-07-07T06:16:43Z</time>
      </trkpt>
      <trkpt lat="46.58988" lon="5.2399">
        <ele>198.4</ele>
        <time>2022-07-07T06:16:44Z</time>
      </trkpt>
      <trkpt lat="46.58998" lon="5.23988">
        <ele>198</ele>
        <time>2022-07-07T06:16:45Z</time>
      </trkpt>
      <trkpt lat="46.59017" lon="5.23987">
        <ele>197</ele>
        <time>2022-07-07T06:16:47Z</time>
      </trkpt>
      <trkpt lat="46.59027" lon="5.23987">
        <ele>196.6</ele>
        <time>2022-07-07T06:16:48Z</time>
      </trkpt>
      <trkpt lat="46.59078" lon="5.23984">
        <ele>195.6</ele>
        <time>2022-07-07T06:16:54Z</time>
      </trkpt>
      <trkpt lat="46.59138" lon="5.2398">
        <ele>196</ele>
        <time>2022-07-07T06:17:02Z</time>
      </trkpt>
      <trkpt lat="46.59196" lon="5.23976">
        <ele>195.8</ele>
        <time>2022-07-07T06:17:10Z</time>
      </trkpt>
      <trkpt lat="46.59204" lon="5.23976">
        <ele>195.8</ele>
        <time>2022-07-07T06:17:11Z</time>
      </trkpt>
      <trkpt lat="46.59226" lon="5.23979">
        <ele>195.4</ele>
        <time>2022-07-07T06:17:14Z</time>
      </trkpt>
      <trkpt lat="46.59247" lon="5.23985">
        <ele>195</ele>
        <time>2022-07-07T06:17:16Z</time>
      </trkpt>
      <trkpt lat="46.59264" lon="5.23992">
        <ele>194.2</ele>
        <time>2022-07-07T06:17:18Z</time>
      </trkpt>
      <trkpt lat="46.59282" lon="5.24001">
        <ele>192.8</ele>
        <time>2022-07-07T06:17:20Z</time>
      </trkpt>
      <trkpt lat="46.59298" lon="5.24009">
        <ele>191.8</ele>
        <time>2022-07-07T06:17:22Z</time>
      </trkpt>
      <trkpt lat="46.59306" lon="5.24012">
        <ele>190.8</ele>
        <time>2022-07-07T06:17:23Z</time>
      </trkpt>
      <trkpt lat="46.59327" lon="5.24017">
        <ele>190.2</ele>
        <time>2022-07-07T06:17:26Z</time>
      </trkpt>
      <trkpt lat="46.5935" lon="5.24018">
        <ele>190</ele>
        <time>2022-07-07T06:17:30Z</time>
      </trkpt>
      <trkpt lat="46.59354" lon="5.24017">
        <ele>190</ele>
        <time>2022-07-07T06:17:31Z</time>
      </trkpt>
      <trkpt lat="46.59357" lon="5.24013">
        <ele>190.2</ele>
        <time>2022-07-07T06:17:32Z</time>
      </trkpt>
      <trkpt lat="46.59361" lon="5.23999">
        <ele>190.4</ele>
        <time>2022-07-07T06:17:34Z</time>
      </trkpt>
      <trkpt lat="46.59362" lon="5.23967">
        <ele>190.6</ele>
        <time>2022-07-07T06:17:37Z</time>
      </trkpt>
      <trkpt lat="46.59361" lon="5.23944">
        <ele>190.6</ele>
        <time>2022-07-07T06:17:39Z</time>
      </trkpt>
      <trkpt lat="46.5936" lon="5.2392">
        <ele>190.6</ele>
        <time>2022-07-07T06:17:41Z</time>
      </trkpt>
      <trkpt lat="46.59361" lon="5.23857">
        <ele>189.8</ele>
        <time>2022-07-07T06:17:46Z</time>
      </trkpt>
      <trkpt lat="46.59362" lon="5.23831">
        <ele>189.6</ele>
        <time>2022-07-07T06:17:48Z</time>
      </trkpt>
      <trkpt lat="46.59359" lon="5.23792">
        <ele>189.2</ele>
        <time>2022-07-07T06:17:51Z</time>
      </trkpt>
      <trkpt lat="46.59357" lon="5.23779">
        <ele>189</ele>
        <time>2022-07-07T06:17:52Z</time>
      </trkpt>
      <trkpt lat="46.59351" lon="5.23754">
        <ele>188.8</ele>
        <time>2022-07-07T06:17:54Z</time>
      </trkpt>
      <trkpt lat="46.5934" lon="5.23717">
        <ele>187.4</ele>
        <time>2022-07-07T06:17:57Z</time>
      </trkpt>
      <trkpt lat="46.59336" lon="5.23704">
        <ele>187</ele>
        <time>2022-07-07T06:17:58Z</time>
      </trkpt>
      <trkpt lat="46.5933" lon="5.2368">
        <ele>186</ele>
        <time>2022-07-07T06:18:00Z</time>
      </trkpt>
      <trkpt lat="46.59328" lon="5.23656">
        <ele>185.4</ele>
        <time>2022-07-07T06:18:02Z</time>
      </trkpt>
      <trkpt lat="46.59329" lon="5.23644">
        <ele>185</ele>
        <time>2022-07-07T06:18:03Z</time>
      </trkpt>
      <trkpt lat="46.59333" lon="5.23634">
        <ele>184.4</ele>
        <time>2022-07-07T06:18:04Z</time>
      </trkpt>
      <trkpt lat="46.59344" lon="5.23621">
        <ele>184.2</ele>
        <time>2022-07-07T06:18:06Z</time>
      </trkpt>
      <trkpt lat="46.59351" lon="5.23617">
        <ele>184.2</ele>
        <time>2022-07-07T06:18:07Z</time>
      </trkpt>
      <trkpt lat="46.59376" lon="5.23601">
        <ele>184.4</ele>
        <time>2022-07-07T06:18:12Z</time>
      </trkpt>
      <trkpt lat="46.59391" lon="5.23591">
        <ele>186.4</ele>
        <time>2022-07-07T06:18:16Z</time>
      </trkpt>
      <trkpt lat="46.59395" lon="5.23589">
        <ele>186.8</ele>
        <time>2022-07-07T06:18:17Z</time>
      </trkpt>
      <trkpt lat="46.59401" lon="5.23585">
        <ele>187.4</ele>
        <time>2022-07-07T06:18:19Z</time>
      </trkpt>
      <trkpt lat="46.59413" lon="5.23581">
        <ele>188.6</ele>
        <time>2022-07-07T06:18:23Z</time>
      </trkpt>
      <trkpt lat="46.59427" lon="5.2358">
        <ele>190</ele>
        <time>2022-07-07T06:18:27Z</time>
      </trkpt>
      <trkpt lat="46.59434" lon="5.23579">
        <ele>190.8</ele>
        <time>2022-07-07T06:18:29Z</time>
      </trkpt>
      <trkpt lat="46.59438" lon="5.23578">
        <ele>191.2</ele>
        <time>2022-07-07T06:18:30Z</time>
      </trkpt>
      <trkpt lat="46.5945" lon="5.23578">
        <ele>192.2</ele>
        <time>2022-07-07T06:18:33Z</time>
      </trkpt>
      <trkpt lat="46.5946" lon="5.23576">
        <ele>192.6</ele>
        <time>2022-07-07T06:18:35Z</time>
      </trkpt>
      <trkpt lat="46.59469" lon="5.23573">
        <ele>193.6</ele>
        <time>2022-07-07T06:18:37Z</time>
      </trkpt>
      <trkpt lat="46.59489" lon="5.23564">
        <ele>194.8</ele>
        <time>2022-07-07T06:18:41Z</time>
      </trkpt>
      <trkpt lat="46.59492" lon="5.23561">
        <ele>195.2</ele>
        <time>2022-07-07T06:18:42Z</time>
      </trkpt>
      <trkpt lat="46.595" lon="5.23554">
        <ele>195.8</ele>
        <time>2022-07-07T06:18:44Z</time>
      </trkpt>
      <trkpt lat="46.59504" lon="5.23551">
        <ele>195.8</ele>
        <time>2022-07-07T06:18:45Z</time>
      </trkpt>
      <trkpt lat="46.59519" lon="5.23542">
        <ele>197.2</ele>
        <time>2022-07-07T06:18:48Z</time>
      </trkpt>
      <trkpt lat="46.59533" lon="5.2353">
        <ele>197.8</ele>
        <time>2022-07-07T06:18:51Z</time>
      </trkpt>
      <trkpt lat="46.5954" lon="5.23527">
        <ele>198.6</ele>
        <time>2022-07-07T06:18:53Z</time>
      </trkpt>
      <trkpt lat="46.59547" lon="5.23523">
        <ele>199</ele>
        <time>2022-07-07T06:18:55Z</time>
      </trkpt>
      <trkpt lat="46.59559" lon="5.23519">
        <ele>199.6</ele>
        <time>2022-07-07T06:18:58Z</time>
      </trkpt>
      <trkpt lat="46.59569" lon="5.23511">
        <ele>200</ele>
        <time>2022-07-07T06:19:01Z</time>
      </trkpt>
      <trkpt lat="46.59578" lon="5.23504">
        <ele>200.8</ele>
        <time>2022-07-07T06:19:03Z</time>
      </trkpt>
      <trkpt lat="46.59597" lon="5.23484">
        <ele>201.6</ele>
        <time>2022-07-07T06:19:08Z</time>
      </trkpt>
      <trkpt lat="46.59623" lon="5.23451">
        <ele>202</ele>
        <time>2022-07-07T06:19:14Z</time>
      </trkpt>
      <trkpt lat="46.59663" lon="5.23397">
        <ele>201.6</ele>
        <time>2022-07-07T06:19:22Z</time>
      </trkpt>
      <trkpt lat="46.59705" lon="5.23343">
        <ele>201</ele>
        <time>2022-07-07T06:19:30Z</time>
      </trkpt>
      <trkpt lat="46.59709" lon="5.23336">
        <ele>201</ele>
        <time>2022-07-07T06:19:31Z</time>
      </trkpt>
      <trkpt lat="46.59737" lon="5.23297">
        <ele>200.6</ele>
        <time>2022-07-07T06:19:36Z</time>
      </trkpt>
      <trkpt lat="46.59747" lon="5.23279">
        <ele>200.2</ele>
        <time>2022-07-07T06:19:38Z</time>
      </trkpt>
      <trkpt lat="46.59785" lon="5.23228">
        <ele>199.8</ele>
        <time>2022-07-07T06:19:45Z</time>
      </trkpt>
      <trkpt lat="46.59822" lon="5.23173">
        <ele>199.4</ele>
        <time>2022-07-07T06:19:52Z</time>
      </trkpt>
      <trkpt lat="46.59838" lon="5.23129">
        <ele>199.2</ele>
        <time>2022-07-07T06:19:57Z</time>
      </trkpt>
      <trkpt lat="46.5985" lon="5.23055">
        <ele>198.8</ele>
        <time>2022-07-07T06:20:04Z</time>
      </trkpt>
      <trkpt lat="46.59854" lon="5.23034">
        <ele>198.4</ele>
        <time>2022-07-07T06:20:06Z</time>
      </trkpt>
      <trkpt lat="46.59856" lon="5.23024">
        <ele>198.4</ele>
        <time>2022-07-07T06:20:07Z</time>
      </trkpt>
      <trkpt lat="46.59866" lon="5.22994">
        <ele>197.8</ele>
        <time>2022-07-07T06:20:10Z</time>
      </trkpt>
      <trkpt lat="46.59887" lon="5.22953">
        <ele>197.6</ele>
        <time>2022-07-07T06:20:15Z</time>
      </trkpt>
      <trkpt lat="46.59916" lon="5.22904">
        <ele>198.2</ele>
        <time>2022-07-07T06:20:22Z</time>
      </trkpt>
      <trkpt lat="46.59942" lon="5.22858">
        <ele>199.8</ele>
        <time>2022-07-07T06:20:29Z</time>
      </trkpt>
      <trkpt lat="46.59968" lon="5.22809">
        <ele>200.4</ele>
        <time>2022-07-07T06:20:36Z</time>
      </trkpt>
      <trkpt lat="46.59985" lon="5.22765">
        <ele>200.8</ele>
        <time>2022-07-07T06:20:41Z</time>
      </trkpt>
      <trkpt lat="46.59988" lon="5.22755">
        <ele>200.8</ele>
        <time>2022-07-07T06:20:42Z</time>
      </trkpt>
      <trkpt lat="46.60008" lon="5.22696">
        <ele>200.4</ele>
        <time>2022-07-07T06:20:48Z</time>
      </trkpt>
      <trkpt lat="46.6002" lon="5.22635">
        <ele>199.8</ele>
        <time>2022-07-07T06:20:54Z</time>
      </trkpt>
      <trkpt lat="46.60038" lon="5.22562">
        <ele>200</ele>
        <time>2022-07-07T06:21:02Z</time>
      </trkpt>
      <trkpt lat="46.60059" lon="5.22493">
        <ele>201</ele>
        <time>2022-07-07T06:21:10Z</time>
      </trkpt>
      <trkpt lat="46.60082" lon="5.22413">
        <ele>200.6</ele>
        <time>2022-07-07T06:21:19Z</time>
      </trkpt>
      <trkpt lat="46.60097" lon="5.22339">
        <ele>200.6</ele>
        <time>2022-07-07T06:21:27Z</time>
      </trkpt>
      <trkpt lat="46.60102" lon="5.2226">
        <ele>200.6</ele>
        <time>2022-07-07T06:21:35Z</time>
      </trkpt>
      <trkpt lat="46.60102" lon="5.2225">
        <ele>200.4</ele>
        <time>2022-07-07T06:21:36Z</time>
      </trkpt>
      <trkpt lat="46.60104" lon="5.22171">
        <ele>200.8</ele>
        <time>2022-07-07T06:21:44Z</time>
      </trkpt>
      <trkpt lat="46.60114" lon="5.22114">
        <ele>201.2</ele>
        <time>2022-07-07T06:21:50Z</time>
      </trkpt>
      <trkpt lat="46.60117" lon="5.22105">
        <ele>201</ele>
        <time>2022-07-07T06:21:51Z</time>
      </trkpt>
      <trkpt lat="46.60131" lon="5.22082">
        <ele>201</ele>
        <time>2022-07-07T06:21:54Z</time>
      </trkpt>
      <trkpt lat="46.60148" lon="5.22065">
        <ele>200.6</ele>
        <time>2022-07-07T06:21:57Z</time>
      </trkpt>
      <trkpt lat="46.6016" lon="5.22056">
        <ele>200.6</ele>
        <time>2022-07-07T06:21:59Z</time>
      </trkpt>
      <trkpt lat="46.60211" lon="5.22024">
        <ele>200.6</ele>
        <time>2022-07-07T06:22:07Z</time>
      </trkpt>
      <trkpt lat="46.60218" lon="5.22021">
        <ele>200.6</ele>
        <time>2022-07-07T06:22:08Z</time>
      </trkpt>
      <trkpt lat="46.60244" lon="5.22018">
        <ele>200.4</ele>
        <time>2022-07-07T06:22:12Z</time>
      </trkpt>
      <trkpt lat="46.60282" lon="5.22026">
        <ele>200.2</ele>
        <time>2022-07-07T06:22:18Z</time>
      </trkpt>
      <trkpt lat="46.60313" lon="5.22034">
        <ele>200.8</ele>
        <time>2022-07-07T06:22:23Z</time>
      </trkpt>
      <trkpt lat="46.60326" lon="5.22032">
        <ele>201</ele>
        <time>2022-07-07T06:22:25Z</time>
      </trkpt>
      <trkpt lat="46.60376" lon="5.22012">
        <ele>201.4</ele>
        <time>2022-07-07T06:22:33Z</time>
      </trkpt>
      <trkpt lat="46.60416" lon="5.21997">
        <ele>201.2</ele>
        <time>2022-07-07T06:22:39Z</time>
      </trkpt>
      <trkpt lat="46.60431" lon="5.21995">
        <ele>201</ele>
        <time>2022-07-07T06:22:41Z</time>
      </trkpt>
      <trkpt lat="46.60477" lon="5.21998">
        <ele>200.6</ele>
        <time>2022-07-07T06:22:48Z</time>
      </trkpt>
      <trkpt lat="46.60537" lon="5.22004">
        <ele>200.8</ele>
        <time>2022-07-07T06:22:57Z</time>
      </trkpt>
      <trkpt lat="46.60543" lon="5.22004">
        <ele>200.8</ele>
        <time>2022-07-07T06:22:58Z</time>
      </trkpt>
      <trkpt lat="46.6059" lon="5.21996">
        <ele>200.8</ele>
        <time>2022-07-07T06:23:05Z</time>
      </trkpt>
      <trkpt lat="46.60649" lon="5.21981">
        <ele>200.4</ele>
        <time>2022-07-07T06:23:14Z</time>
      </trkpt>
      <trkpt lat="46.60666" lon="5.21979">
        <ele>200.2</ele>
        <time>2022-07-07T06:23:16Z</time>
      </trkpt>
      <trkpt lat="46.60725" lon="5.21979">
        <ele>199.6</ele>
        <time>2022-07-07T06:23:24Z</time>
      </trkpt>
      <trkpt lat="46.60782" lon="5.21986">
        <ele>199</ele>
        <time>2022-07-07T06:23:32Z</time>
      </trkpt>
      <trkpt lat="46.60828" lon="5.21992">
        <ele>198.8</ele>
        <time>2022-07-07T06:23:38Z</time>
      </trkpt>
      <trkpt lat="46.60858" lon="5.21995">
        <ele>198.6</ele>
        <time>2022-07-07T06:23:42Z</time>
      </trkpt>
      <trkpt lat="46.60886" lon="5.22003">
        <ele>198.2</ele>
        <time>2022-07-07T06:23:46Z</time>
      </trkpt>
      <trkpt lat="46.60895" lon="5.22007">
        <ele>198.2</ele>
        <time>2022-07-07T06:23:47Z</time>
      </trkpt>
      <trkpt lat="46.60921" lon="5.22028">
        <ele>197.8</ele>
        <time>2022-07-07T06:23:51Z</time>
      </trkpt>
      <trkpt lat="46.60952" lon="5.2207">
        <ele>197.6</ele>
        <time>2022-07-07T06:23:57Z</time>
      </trkpt>
      <trkpt lat="46.60962" lon="5.22085">
        <ele>197.4</ele>
        <time>2022-07-07T06:23:59Z</time>
      </trkpt>
      <trkpt lat="46.60993" lon="5.22129">
        <ele>197.2</ele>
        <time>2022-07-07T06:24:05Z</time>
      </trkpt>
      <trkpt lat="46.6103" lon="5.22162">
        <ele>196.8</ele>
        <time>2022-07-07T06:24:11Z</time>
      </trkpt>
      <trkpt lat="46.61071" lon="5.2218">
        <ele>196.8</ele>
        <time>2022-07-07T06:24:17Z</time>
      </trkpt>
      <trkpt lat="46.61092" lon="5.22184">
        <ele>196.6</ele>
        <time>2022-07-07T06:24:20Z</time>
      </trkpt>
      <trkpt lat="46.61134" lon="5.22189">
        <ele>196.2</ele>
        <time>2022-07-07T06:24:26Z</time>
      </trkpt>
      <trkpt lat="46.6119" lon="5.22198">
        <ele>195.8</ele>
        <time>2022-07-07T06:24:34Z</time>
      </trkpt>
      <trkpt lat="46.61197" lon="5.222">
        <ele>195.8</ele>
        <time>2022-07-07T06:24:35Z</time>
      </trkpt>
      <trkpt lat="46.61233" lon="5.2221">
        <ele>195.4</ele>
        <time>2022-07-07T06:24:40Z</time>
      </trkpt>
      <trkpt lat="46.61247" lon="5.22216">
        <ele>195.4</ele>
        <time>2022-07-07T06:24:42Z</time>
      </trkpt>
      <trkpt lat="46.61293" lon="5.2225">
        <ele>194.8</ele>
        <time>2022-07-07T06:24:49Z</time>
      </trkpt>
      <trkpt lat="46.61313" lon="5.22267">
        <ele>194.4</ele>
        <time>2022-07-07T06:24:52Z</time>
      </trkpt>
      <trkpt lat="46.61346" lon="5.22297">
        <ele>193.4</ele>
        <time>2022-07-07T06:24:57Z</time>
      </trkpt>
      <trkpt lat="46.61353" lon="5.22303">
        <ele>193.2</ele>
        <time>2022-07-07T06:24:58Z</time>
      </trkpt>
      <trkpt lat="46.61396" lon="5.22343">
        <ele>192</ele>
        <time>2022-07-07T06:25:04Z</time>
      </trkpt>
      <trkpt lat="46.61404" lon="5.22349">
        <ele>191.8</ele>
        <time>2022-07-07T06:25:05Z</time>
      </trkpt>
      <trkpt lat="46.6142" lon="5.22361">
        <ele>191.4</ele>
        <time>2022-07-07T06:25:07Z</time>
      </trkpt>
      <trkpt lat="46.61437" lon="5.22367">
        <ele>190.4</ele>
        <time>2022-07-07T06:25:09Z</time>
      </trkpt>
      <trkpt lat="46.61455" lon="5.22364">
        <ele>189.4</ele>
        <time>2022-07-07T06:25:11Z</time>
      </trkpt>
      <trkpt lat="46.61464" lon="5.2236">
        <ele>189.2</ele>
        <time>2022-07-07T06:25:12Z</time>
      </trkpt>
      <trkpt lat="46.61489" lon="5.22348">
        <ele>188</ele>
        <time>2022-07-07T06:25:15Z</time>
      </trkpt>
      <trkpt lat="46.61513" lon="5.22331">
        <ele>187.4</ele>
        <time>2022-07-07T06:25:18Z</time>
      </trkpt>
      <trkpt lat="46.61528" lon="5.22315">
        <ele>186.6</ele>
        <time>2022-07-07T06:25:20Z</time>
      </trkpt>
      <trkpt lat="46.61559" lon="5.22282">
        <ele>185.2</ele>
        <time>2022-07-07T06:25:24Z</time>
      </trkpt>
      <trkpt lat="46.61567" lon="5.22275">
        <ele>184.8</ele>
        <time>2022-07-07T06:25:25Z</time>
      </trkpt>
      <trkpt lat="46.61586" lon="5.22266">
        <ele>184</ele>
        <time>2022-07-07T06:25:27Z</time>
      </trkpt>
      <trkpt lat="46.61604" lon="5.22273">
        <ele>182.8</ele>
        <time>2022-07-07T06:25:29Z</time>
      </trkpt>
      <trkpt lat="46.61613" lon="5.22296">
        <ele>181.6</ele>
        <time>2022-07-07T06:25:31Z</time>
      </trkpt>
      <trkpt lat="46.61618" lon="5.2232">
        <ele>180.8</ele>
        <time>2022-07-07T06:25:33Z</time>
      </trkpt>
      <trkpt lat="46.61619" lon="5.22333">
        <ele>180.6</ele>
        <time>2022-07-07T06:25:34Z</time>
      </trkpt>
      <trkpt lat="46.61619" lon="5.22345">
        <ele>180</ele>
        <time>2022-07-07T06:25:35Z</time>
      </trkpt>
      <trkpt lat="46.61618" lon="5.22368">
        <ele>179.8</ele>
        <time>2022-07-07T06:25:37Z</time>
      </trkpt>
      <trkpt lat="46.61612" lon="5.22391">
        <ele>179.8</ele>
        <time>2022-07-07T06:25:39Z</time>
      </trkpt>
      <trkpt lat="46.61598" lon="5.22423">
        <ele>179.4</ele>
        <time>2022-07-07T06:25:42Z</time>
      </trkpt>
      <trkpt lat="46.61593" lon="5.22438">
        <ele>179.4</ele>
        <time>2022-07-07T06:25:44Z</time>
      </trkpt>
      <trkpt lat="46.61589" lon="5.22458">
        <ele>179.2</ele>
        <time>2022-07-07T06:25:45Z</time>
      </trkpt>
      <trkpt lat="46.61583" lon="5.22515">
        <ele>179.2</ele>
        <time>2022-07-07T06:25:50Z</time>
      </trkpt>
      <trkpt lat="46.61583" lon="5.22537">
        <ele>179</ele>
        <time>2022-07-07T06:25:52Z</time>
      </trkpt>
      <trkpt lat="46.61585" lon="5.22548">
        <ele>179</ele>
        <time>2022-07-07T06:25:53Z</time>
      </trkpt>
      <trkpt lat="46.61588" lon="5.22558">
        <ele>179.2</ele>
        <time>2022-07-07T06:25:54Z</time>
      </trkpt>
      <trkpt lat="46.61597" lon="5.22574">
        <ele>179</ele>
        <time>2022-07-07T06:25:56Z</time>
      </trkpt>
      <trkpt lat="46.61602" lon="5.22586">
        <ele>179</ele>
        <time>2022-07-07T06:25:58Z</time>
      </trkpt>
      <trkpt lat="46.61603" lon="5.2259">
        <ele>179</ele>
        <time>2022-07-07T06:25:59Z</time>
      </trkpt>
      <trkpt lat="46.61602" lon="5.22594">
        <ele>178.6</ele>
        <time>2022-07-07T06:26:02Z</time>
      </trkpt>
      <trkpt lat="46.616" lon="5.22594">
        <ele>178.4</ele>
        <time>2022-07-07T06:26:03Z</time>
      </trkpt>
      <trkpt lat="46.6159" lon="5.22596">
        <ele>178.4</ele>
        <time>2022-07-07T06:26:06Z</time>
      </trkpt>
      <trkpt lat="46.61564" lon="5.22599">
        <ele>178.4</ele>
        <time>2022-07-07T06:26:11Z</time>
      </trkpt>
      <trkpt lat="46.61539" lon="5.22605">
        <ele>178.4</ele>
        <time>2022-07-07T06:26:15Z</time>
      </trkpt>
      <trkpt lat="46.61533" lon="5.22608">
        <ele>178.4</ele>
        <time>2022-07-07T06:26:16Z</time>
      </trkpt>
      <trkpt lat="46.61497" lon="5.22629">
        <ele>178.6</ele>
        <time>2022-07-07T06:26:22Z</time>
      </trkpt>
      <trkpt lat="46.61465" lon="5.22661">
        <ele>179</ele>
        <time>2022-07-07T06:26:28Z</time>
      </trkpt>
      <trkpt lat="46.6144" lon="5.22695">
        <ele>179.4</ele>
        <time>2022-07-07T06:26:33Z</time>
      </trkpt>
      <trkpt lat="46.61411" lon="5.22735">
        <ele>180</ele>
        <time>2022-07-07T06:26:39Z</time>
      </trkpt>
      <trkpt lat="46.61368" lon="5.22793">
        <ele>180.4</ele>
        <time>2022-07-07T06:26:48Z</time>
      </trkpt>
      <trkpt lat="46.61353" lon="5.22814">
        <ele>180.6</ele>
        <time>2022-07-07T06:26:51Z</time>
      </trkpt>
      <trkpt lat="46.6132" lon="5.22862">
        <ele>180.4</ele>
        <time>2022-07-07T06:26:58Z</time>
      </trkpt>
      <trkpt lat="46.61277" lon="5.22922">
        <ele>180.8</ele>
        <time>2022-07-07T06:27:07Z</time>
      </trkpt>
      <trkpt lat="46.61268" lon="5.22934">
        <ele>180.8</ele>
        <time>2022-07-07T06:27:09Z</time>
      </trkpt>
      <trkpt lat="46.61236" lon="5.22983">
        <ele>181.2</ele>
        <time>2022-07-07T06:27:17Z</time>
      </trkpt>
      <trkpt lat="46.61234" lon="5.23001">
        <ele>181.4</ele>
        <time>2022-07-07T06:27:19Z</time>
      </trkpt>
      <trkpt lat="46.61235" lon="5.23011">
        <ele>181.4</ele>
        <time>2022-07-07T06:27:20Z</time>
      </trkpt>
      <trkpt lat="46.61238" lon="5.2302">
        <ele>181.4</ele>
        <time>2022-07-07T06:27:21Z</time>
      </trkpt>
      <trkpt lat="46.6125" lon="5.23045">
        <ele>181.2</ele>
        <time>2022-07-07T06:27:24Z</time>
      </trkpt>
      <trkpt lat="46.61282" lon="5.23112">
        <ele>180.8</ele>
        <time>2022-07-07T06:27:32Z</time>
      </trkpt>
      <trkpt lat="46.61286" lon="5.23121">
        <ele>180.8</ele>
        <time>2022-07-07T06:27:33Z</time>
      </trkpt>
      <trkpt lat="46.61292" lon="5.23142">
        <ele>180.6</ele>
        <time>2022-07-07T06:27:35Z</time>
      </trkpt>
      <trkpt lat="46.61293" lon="5.23153">
        <ele>180.6</ele>
        <time>2022-07-07T06:27:36Z</time>
      </trkpt>
      <trkpt lat="46.61299" lon="5.23187">
        <ele>180.2</ele>
        <time>2022-07-07T06:27:39Z</time>
      </trkpt>
      <trkpt lat="46.61303" lon="5.23197">
        <ele>180</ele>
        <time>2022-07-07T06:27:40Z</time>
      </trkpt>
      <trkpt lat="46.61308" lon="5.23206">
        <ele>180</ele>
        <time>2022-07-07T06:27:41Z</time>
      </trkpt>
      <trkpt lat="46.61323" lon="5.23227">
        <ele>179.4</ele>
        <time>2022-07-07T06:27:44Z</time>
      </trkpt>
      <trkpt lat="46.61359" lon="5.23277">
        <ele>179.2</ele>
        <time>2022-07-07T06:27:50Z</time>
      </trkpt>
      <trkpt lat="46.61369" lon="5.23293">
        <ele>179</ele>
        <time>2022-07-07T06:27:52Z</time>
      </trkpt>
      <trkpt lat="46.61376" lon="5.23311">
        <ele>179</ele>
        <time>2022-07-07T06:27:54Z</time>
      </trkpt>
      <trkpt lat="46.61377" lon="5.23322">
        <ele>179</ele>
        <time>2022-07-07T06:27:55Z</time>
      </trkpt>
      <trkpt lat="46.61377" lon="5.23332">
        <ele>179</ele>
        <time>2022-07-07T06:27:56Z</time>
      </trkpt>
      <trkpt lat="46.61372" lon="5.23351">
        <ele>179</ele>
        <time>2022-07-07T06:27:58Z</time>
      </trkpt>
      <trkpt lat="46.61351" lon="5.23418">
        <ele>179.2</ele>
        <time>2022-07-07T06:28:05Z</time>
      </trkpt>
      <trkpt lat="46.6134" lon="5.23479">
        <ele>179.4</ele>
        <time>2022-07-07T06:28:11Z</time>
      </trkpt>
      <trkpt lat="46.61336" lon="5.23553">
        <ele>179.6</ele>
        <time>2022-07-07T06:28:18Z</time>
      </trkpt>
      <trkpt lat="46.61336" lon="5.23564">
        <ele>179.6</ele>
        <time>2022-07-07T06:28:19Z</time>
      </trkpt>
      <trkpt lat="46.61333" lon="5.23605">
        <ele>179.6</ele>
        <time>2022-07-07T06:28:23Z</time>
      </trkpt>
      <trkpt lat="46.61329" lon="5.23688">
        <ele>179.8</ele>
        <time>2022-07-07T06:28:31Z</time>
      </trkpt>
      <trkpt lat="46.61326" lon="5.23719">
        <ele>180.2</ele>
        <time>2022-07-07T06:28:34Z</time>
      </trkpt>
      <trkpt lat="46.61323" lon="5.23748">
        <ele>180.2</ele>
        <time>2022-07-07T06:28:37Z</time>
      </trkpt>
      <trkpt lat="46.61324" lon="5.23813">
        <ele>180.4</ele>
        <time>2022-07-07T06:28:43Z</time>
      </trkpt>
      <trkpt lat="46.61329" lon="5.23883">
        <ele>180.8</ele>
        <time>2022-07-07T06:28:51Z</time>
      </trkpt>
      <trkpt lat="46.61334" lon="5.23946">
        <ele>181.4</ele>
        <time>2022-07-07T06:28:58Z</time>
      </trkpt>
      <trkpt lat="46.61337" lon="5.23972">
        <ele>181.8</ele>
        <time>2022-07-07T06:29:01Z</time>
      </trkpt>
      <trkpt lat="46.6134" lon="5.24024">
        <ele>182.4</ele>
        <time>2022-07-07T06:29:07Z</time>
      </trkpt>
      <trkpt lat="46.61341" lon="5.24041">
        <ele>182.6</ele>
        <time>2022-07-07T06:29:09Z</time>
      </trkpt>
      <trkpt lat="46.61343" lon="5.24058">
        <ele>182.8</ele>
        <time>2022-07-07T06:29:11Z</time>
      </trkpt>
      <trkpt lat="46.61348" lon="5.24128">
        <ele>183.6</ele>
        <time>2022-07-07T06:29:19Z</time>
      </trkpt>
      <trkpt lat="46.61349" lon="5.24147">
        <ele>183.8</ele>
        <time>2022-07-07T06:29:21Z</time>
      </trkpt>
      <trkpt lat="46.61349" lon="5.24222">
        <ele>184</ele>
        <time>2022-07-07T06:29:29Z</time>
      </trkpt>
      <trkpt lat="46.61344" lon="5.24261">
        <ele>184</ele>
        <time>2022-07-07T06:29:33Z</time>
      </trkpt>
      <trkpt lat="46.61342" lon="5.24268">
        <ele>184</ele>
        <time>2022-07-07T06:29:34Z</time>
      </trkpt>
      <trkpt lat="46.61327" lon="5.2432">
        <ele>184</ele>
        <time>2022-07-07T06:29:40Z</time>
      </trkpt>
      <trkpt lat="46.61314" lon="5.24375">
        <ele>183.8</ele>
        <time>2022-07-07T06:29:46Z</time>
      </trkpt>
      <trkpt lat="46.61311" lon="5.24383">
        <ele>183.6</ele>
        <time>2022-07-07T06:29:47Z</time>
      </trkpt>
      <trkpt lat="46.61284" lon="5.24441">
        <ele>182.8</ele>
        <time>2022-07-07T06:29:53Z</time>
      </trkpt>
      <trkpt lat="46.61275" lon="5.24471">
        <ele>182.6</ele>
        <time>2022-07-07T06:29:56Z</time>
      </trkpt>
      <trkpt lat="46.61265" lon="5.24506">
        <ele>182</ele>
        <time>2022-07-07T06:29:59Z</time>
      </trkpt>
      <trkpt lat="46.6126" lon="5.24528">
        <ele>181.6</ele>
        <time>2022-07-07T06:30:01Z</time>
      </trkpt>
      <trkpt lat="46.61254" lon="5.24572">
        <ele>181</ele>
        <time>2022-07-07T06:30:05Z</time>
      </trkpt>
      <trkpt lat="46.61243" lon="5.24646">
        <ele>180.8</ele>
        <time>2022-07-07T06:30:12Z</time>
      </trkpt>
      <trkpt lat="46.61224" lon="5.24726">
        <ele>180.8</ele>
        <time>2022-07-07T06:30:20Z</time>
      </trkpt>
      <trkpt lat="46.6122" lon="5.24745">
        <ele>181</ele>
        <time>2022-07-07T06:30:22Z</time>
      </trkpt>
      <trkpt lat="46.61209" lon="5.2479">
        <ele>181</ele>
        <time>2022-07-07T06:30:27Z</time>
      </trkpt>
      <trkpt lat="46.61187" lon="5.24866">
        <ele>181</ele>
        <time>2022-07-07T06:30:35Z</time>
      </trkpt>
      <trkpt lat="46.61158" lon="5.24933">
        <ele>180.8</ele>
        <time>2022-07-07T06:30:42Z</time>
      </trkpt>
      <trkpt lat="46.61154" lon="5.24942">
        <ele>180.6</ele>
        <time>2022-07-07T06:30:44Z</time>
      </trkpt>
      <trkpt lat="46.61138" lon="5.24995">
        <ele>180.6</ele>
        <time>2022-07-07T06:30:49Z</time>
      </trkpt>
      <trkpt lat="46.61129" lon="5.25048">
        <ele>180.6</ele>
        <time>2022-07-07T06:30:54Z</time>
      </trkpt>
      <trkpt lat="46.61122" lon="5.25066">
        <ele>180.6</ele>
        <time>2022-07-07T06:30:56Z</time>
      </trkpt>
      <trkpt lat="46.61103" lon="5.251">
        <ele>180.6</ele>
        <time>2022-07-07T06:31:00Z</time>
      </trkpt>
      <trkpt lat="46.61094" lon="5.25114">
        <ele>180.6</ele>
        <time>2022-07-07T06:31:02Z</time>
      </trkpt>
      <trkpt lat="46.61053" lon="5.25174">
        <ele>180.6</ele>
        <time>2022-07-07T06:31:10Z</time>
      </trkpt>
      <trkpt lat="46.61044" lon="5.2519">
        <ele>180.6</ele>
        <time>2022-07-07T06:31:12Z</time>
      </trkpt>
      <trkpt lat="46.61007" lon="5.25253">
        <ele>181.2</ele>
        <time>2022-07-07T06:31:20Z</time>
      </trkpt>
      <trkpt lat="46.60995" lon="5.25277">
        <ele>181.4</ele>
        <time>2022-07-07T06:31:23Z</time>
      </trkpt>
      <trkpt lat="46.60984" lon="5.25304">
        <ele>181.6</ele>
        <time>2022-07-07T06:31:26Z</time>
      </trkpt>
      <trkpt lat="46.60976" lon="5.25329">
        <ele>181.6</ele>
        <time>2022-07-07T06:31:29Z</time>
      </trkpt>
      <trkpt lat="46.60961" lon="5.25389">
        <ele>181.6</ele>
        <time>2022-07-07T06:31:35Z</time>
      </trkpt>
      <trkpt lat="46.60961" lon="5.2541">
        <ele>181.6</ele>
        <time>2022-07-07T06:31:37Z</time>
      </trkpt>
      <trkpt lat="46.60964" lon="5.25431">
        <ele>181.4</ele>
        <time>2022-07-07T06:31:39Z</time>
      </trkpt>
      <trkpt lat="46.60971" lon="5.25469">
        <ele>181.4</ele>
        <time>2022-07-07T06:31:42Z</time>
      </trkpt>
      <trkpt lat="46.60972" lon="5.25491">
        <ele>181.2</ele>
        <time>2022-07-07T06:31:45Z</time>
      </trkpt>
      <trkpt lat="46.60972" lon="5.25506">
        <ele>181.2</ele>
        <time>2022-07-07T06:31:46Z</time>
      </trkpt>
      <trkpt lat="46.60967" lon="5.25546">
        <ele>181</ele>
        <time>2022-07-07T06:31:50Z</time>
      </trkpt>
      <trkpt lat="46.6095" lon="5.25617">
        <ele>181</ele>
        <time>2022-07-07T06:31:57Z</time>
      </trkpt>
      <trkpt lat="46.60945" lon="5.25628">
        <ele>180.8</ele>
        <time>2022-07-07T06:31:58Z</time>
      </trkpt>
      <trkpt lat="46.60927" lon="5.25662">
        <ele>180.8</ele>
        <time>2022-07-07T06:32:02Z</time>
      </trkpt>
      <trkpt lat="46.60901" lon="5.25701">
        <ele>180.6</ele>
        <time>2022-07-07T06:32:07Z</time>
      </trkpt>
      <trkpt lat="46.60884" lon="5.25723">
        <ele>180.6</ele>
        <time>2022-07-07T06:32:10Z</time>
      </trkpt>
      <trkpt lat="46.60842" lon="5.25782">
        <ele>180.6</ele>
        <time>2022-07-07T06:32:18Z</time>
      </trkpt>
      <trkpt lat="46.60836" lon="5.25789">
        <ele>180.6</ele>
        <time>2022-07-07T06:32:19Z</time>
      </trkpt>
      <trkpt lat="46.60796" lon="5.25843">
        <ele>181.2</ele>
        <time>2022-07-07T06:32:27Z</time>
      </trkpt>
      <trkpt lat="46.60785" lon="5.25857">
        <ele>181.4</ele>
        <time>2022-07-07T06:32:29Z</time>
      </trkpt>
      <trkpt lat="46.6078" lon="5.25863">
        <ele>181.6</ele>
        <time>2022-07-07T06:32:30Z</time>
      </trkpt>
      <trkpt lat="46.60745" lon="5.259">
        <ele>181.8</ele>
        <time>2022-07-07T06:32:36Z</time>
      </trkpt>
      <trkpt lat="46.60708" lon="5.25955">
        <ele>182</ele>
        <time>2022-07-07T06:32:43Z</time>
      </trkpt>
      <trkpt lat="46.607" lon="5.25973">
        <ele>182</ele>
        <time>2022-07-07T06:32:46Z</time>
      </trkpt>
      <trkpt lat="46.60685" lon="5.26009">
        <ele>181.6</ele>
        <time>2022-07-07T06:32:50Z</time>
      </trkpt>
      <trkpt lat="46.60683" lon="5.26015">
        <ele>181.6</ele>
        <time>2022-07-07T06:32:51Z</time>
      </trkpt>
      <trkpt lat="46.60676" lon="5.26029">
        <ele>181.6</ele>
        <time>2022-07-07T06:32:53Z</time>
      </trkpt>
      <trkpt lat="46.60673" lon="5.26038">
        <ele>181.6</ele>
        <time>2022-07-07T06:32:54Z</time>
      </trkpt>
      <trkpt lat="46.6067" lon="5.26046">
        <ele>181.6</ele>
        <time>2022-07-07T06:32:55Z</time>
      </trkpt>
      <trkpt lat="46.60667" lon="5.26065">
        <ele>181.4</ele>
        <time>2022-07-07T06:32:57Z</time>
      </trkpt>
      <trkpt lat="46.60666" lon="5.26075">
        <ele>181.2</ele>
        <time>2022-07-07T06:32:58Z</time>
      </trkpt>
      <trkpt lat="46.60663" lon="5.26127">
        <ele>181.2</ele>
        <time>2022-07-07T06:33:03Z</time>
      </trkpt>
      <trkpt lat="46.60669" lon="5.26202">
        <ele>181.4</ele>
        <time>2022-07-07T06:33:10Z</time>
      </trkpt>
      <trkpt lat="46.60671" lon="5.26215">
        <ele>181.4</ele>
        <time>2022-07-07T06:33:11Z</time>
      </trkpt>
      <trkpt lat="46.60681" lon="5.26254">
        <ele>181.6</ele>
        <time>2022-07-07T06:33:15Z</time>
      </trkpt>
      <trkpt lat="46.60705" lon="5.26325">
        <ele>181.8</ele>
        <time>2022-07-07T06:33:22Z</time>
      </trkpt>
      <trkpt lat="46.60711" lon="5.26344">
        <ele>181.8</ele>
        <time>2022-07-07T06:33:24Z</time>
      </trkpt>
      <trkpt lat="46.60737" lon="5.2642">
        <ele>181.4</ele>
        <time>2022-07-07T06:33:32Z</time>
      </trkpt>
      <trkpt lat="46.6074" lon="5.26429">
        <ele>181.4</ele>
        <time>2022-07-07T06:33:33Z</time>
      </trkpt>
      <trkpt lat="46.60758" lon="5.26503">
        <ele>182.2</ele>
        <time>2022-07-07T06:33:41Z</time>
      </trkpt>
      <trkpt lat="46.6076" lon="5.26512">
        <ele>182.2</ele>
        <time>2022-07-07T06:33:42Z</time>
      </trkpt>
      <trkpt lat="46.60764" lon="5.26529">
        <ele>182.6</ele>
        <time>2022-07-07T06:33:44Z</time>
      </trkpt>
      <trkpt lat="46.60766" lon="5.26536">
        <ele>182.6</ele>
        <time>2022-07-07T06:33:45Z</time>
      </trkpt>
      <trkpt lat="46.6077" lon="5.26551">
        <ele>182.8</ele>
        <time>2022-07-07T06:33:47Z</time>
      </trkpt>
      <trkpt lat="46.60783" lon="5.26575">
        <ele>183.8</ele>
        <time>2022-07-07T06:33:51Z</time>
      </trkpt>
      <trkpt lat="46.60786" lon="5.2658">
        <ele>184</ele>
        <time>2022-07-07T06:33:52Z</time>
      </trkpt>
      <trkpt lat="46.60789" lon="5.26584">
        <ele>184.2</ele>
        <time>2022-07-07T06:33:53Z</time>
      </trkpt>
      <trkpt lat="46.60796" lon="5.26594">
        <ele>184.8</ele>
        <time>2022-07-07T06:33:55Z</time>
      </trkpt>
      <trkpt lat="46.608" lon="5.26598">
        <ele>185</ele>
        <time>2022-07-07T06:33:56Z</time>
      </trkpt>
      <trkpt lat="46.60811" lon="5.2661">
        <ele>186.2</ele>
        <time>2022-07-07T06:33:59Z</time>
      </trkpt>
      <trkpt lat="46.60826" lon="5.26625">
        <ele>187.2</ele>
        <time>2022-07-07T06:34:03Z</time>
      </trkpt>
      <trkpt lat="46.60841" lon="5.26635">
        <ele>187.8</ele>
        <time>2022-07-07T06:34:06Z</time>
      </trkpt>
      <trkpt lat="46.60856" lon="5.26647">
        <ele>188.4</ele>
        <time>2022-07-07T06:34:09Z</time>
      </trkpt>
      <trkpt lat="46.60868" lon="5.26653">
        <ele>188.4</ele>
        <time>2022-07-07T06:34:11Z</time>
      </trkpt>
      <trkpt lat="46.60881" lon="5.26656">
        <ele>188.6</ele>
        <time>2022-07-07T06:34:13Z</time>
      </trkpt>
      <trkpt lat="46.60894" lon="5.26654">
        <ele>188.6</ele>
        <time>2022-07-07T06:34:15Z</time>
      </trkpt>
      <trkpt lat="46.6091" lon="5.2665">
        <ele>188.6</ele>
        <time>2022-07-07T06:34:17Z</time>
      </trkpt>
      <trkpt lat="46.60927" lon="5.26653">
        <ele>188.4</ele>
        <time>2022-07-07T06:34:19Z</time>
      </trkpt>
      <trkpt lat="46.60939" lon="5.26667">
        <ele>187.4</ele>
        <time>2022-07-07T06:34:21Z</time>
      </trkpt>
      <trkpt lat="46.60948" lon="5.26679">
        <ele>186.8</ele>
        <time>2022-07-07T06:34:22Z</time>
      </trkpt>
      <trkpt lat="46.60962" lon="5.26697">
        <ele>186</ele>
        <time>2022-07-07T06:34:24Z</time>
      </trkpt>
      <trkpt lat="46.60968" lon="5.26703">
        <ele>185.4</ele>
        <time>2022-07-07T06:34:25Z</time>
      </trkpt>
      <trkpt lat="46.60977" lon="5.26712">
        <ele>185</ele>
        <time>2022-07-07T06:34:26Z</time>
      </trkpt>
      <trkpt lat="46.60985" lon="5.2672">
        <ele>184.2</ele>
        <time>2022-07-07T06:34:27Z</time>
      </trkpt>
      <trkpt lat="46.61008" lon="5.26741">
        <ele>182.8</ele>
        <time>2022-07-07T06:34:30Z</time>
      </trkpt>
      <trkpt lat="46.61043" lon="5.2678">
        <ele>181.6</ele>
        <time>2022-07-07T06:34:35Z</time>
      </trkpt>
      <trkpt lat="46.6105" lon="5.26788">
        <ele>181.4</ele>
        <time>2022-07-07T06:34:36Z</time>
      </trkpt>
      <trkpt lat="46.61061" lon="5.26805">
        <ele>181</ele>
        <time>2022-07-07T06:34:38Z</time>
      </trkpt>
      <trkpt lat="46.6107" lon="5.26825">
        <ele>180.8</ele>
        <time>2022-07-07T06:34:40Z</time>
      </trkpt>
      <trkpt lat="46.61087" lon="5.26874">
        <ele>180.8</ele>
        <time>2022-07-07T06:34:45Z</time>
      </trkpt>
      <trkpt lat="46.61102" lon="5.26909">
        <ele>181</ele>
        <time>2022-07-07T06:34:49Z</time>
      </trkpt>
      <trkpt lat="46.61112" lon="5.26929">
        <ele>181</ele>
        <time>2022-07-07T06:34:51Z</time>
      </trkpt>
      <trkpt lat="46.61127" lon="5.26954">
        <ele>181</ele>
        <time>2022-07-07T06:34:54Z</time>
      </trkpt>
      <trkpt lat="46.61139" lon="5.26966">
        <ele>180.8</ele>
        <time>2022-07-07T06:34:56Z</time>
      </trkpt>
      <trkpt lat="46.61157" lon="5.26981">
        <ele>180.6</ele>
        <time>2022-07-07T06:34:59Z</time>
      </trkpt>
      <trkpt lat="46.61168" lon="5.26995">
        <ele>180.6</ele>
        <time>2022-07-07T06:35:01Z</time>
      </trkpt>
      <trkpt lat="46.61173" lon="5.27003">
        <ele>180.6</ele>
        <time>2022-07-07T06:35:02Z</time>
      </trkpt>
      <trkpt lat="46.61191" lon="5.27035">
        <ele>180.4</ele>
        <time>2022-07-07T06:35:06Z</time>
      </trkpt>
      <trkpt lat="46.61217" lon="5.27072">
        <ele>180.6</ele>
        <time>2022-07-07T06:35:12Z</time>
      </trkpt>
      <trkpt lat="46.61223" lon="5.27079">
        <ele>180.6</ele>
        <time>2022-07-07T06:35:14Z</time>
      </trkpt>
      <trkpt lat="46.61226" lon="5.27079">
        <ele>180.8</ele>
        <time>2022-07-07T06:35:15Z</time>
      </trkpt>
      <trkpt lat="46.61229" lon="5.27078">
        <ele>181</ele>
        <time>2022-07-07T06:35:16Z</time>
      </trkpt>
      <trkpt lat="46.61234" lon="5.27067">
        <ele>181</ele>
        <time>2022-07-07T06:35:18Z</time>
      </trkpt>
      <trkpt lat="46.61245" lon="5.27041">
        <ele>181</ele>
        <time>2022-07-07T06:35:22Z</time>
      </trkpt>
      <trkpt lat="46.61248" lon="5.27033">
        <ele>181.2</ele>
        <time>2022-07-07T06:35:23Z</time>
      </trkpt>
      <trkpt lat="46.6126" lon="5.27001">
        <ele>181.6</ele>
        <time>2022-07-07T06:35:27Z</time>
      </trkpt>
      <trkpt lat="46.61264" lon="5.26993">
        <ele>181.6</ele>
        <time>2022-07-07T06:35:28Z</time>
      </trkpt>
      <trkpt lat="46.61273" lon="5.26978">
        <ele>181.8</ele>
        <time>2022-07-07T06:35:30Z</time>
      </trkpt>
      <trkpt lat="46.61287" lon="5.26959">
        <ele>182</ele>
        <time>2022-07-07T06:35:33Z</time>
      </trkpt>
      <trkpt lat="46.6131" lon="5.26933">
        <ele>182</ele>
        <time>2022-07-07T06:35:37Z</time>
      </trkpt>
      <trkpt lat="46.61316" lon="5.2693">
        <ele>182</ele>
        <time>2022-07-07T06:35:38Z</time>
      </trkpt>
      <trkpt lat="46.61322" lon="5.26929">
        <ele>182</ele>
        <time>2022-07-07T06:35:39Z</time>
      </trkpt>
      <trkpt lat="46.61336" lon="5.26934">
        <ele>182</ele>
        <time>2022-07-07T06:35:41Z</time>
      </trkpt>
      <trkpt lat="46.61375" lon="5.26961">
        <ele>181.8</ele>
        <time>2022-07-07T06:35:47Z</time>
      </trkpt>
      <trkpt lat="46.61382" lon="5.26964">
        <ele>181.8</ele>
        <time>2022-07-07T06:35:48Z</time>
      </trkpt>
      <trkpt lat="46.6143" lon="5.2698">
        <ele>181.6</ele>
        <time>2022-07-07T06:35:55Z</time>
      </trkpt>
      <trkpt lat="46.61484" lon="5.26994">
        <ele>181.4</ele>
        <time>2022-07-07T06:36:03Z</time>
      </trkpt>
      <trkpt lat="46.61492" lon="5.26997">
        <ele>181.4</ele>
        <time>2022-07-07T06:36:04Z</time>
      </trkpt>
      <trkpt lat="46.61524" lon="5.27002">
        <ele>181.4</ele>
        <time>2022-07-07T06:36:08Z</time>
      </trkpt>
      <trkpt lat="46.61531" lon="5.27001">
        <ele>181.4</ele>
        <time>2022-07-07T06:36:10Z</time>
      </trkpt>
      <trkpt lat="46.61537" lon="5.26997">
        <ele>181.4</ele>
        <time>2022-07-07T06:36:11Z</time>
      </trkpt>
      <trkpt lat="46.61549" lon="5.26985">
        <ele>181.6</ele>
        <time>2022-07-07T06:36:13Z</time>
      </trkpt>
      <trkpt lat="46.6158" lon="5.26933">
        <ele>181.8</ele>
        <time>2022-07-07T06:36:20Z</time>
      </trkpt>
      <trkpt lat="46.61604" lon="5.26887">
        <ele>182.6</ele>
        <time>2022-07-07T06:36:26Z</time>
      </trkpt>
      <trkpt lat="46.61611" lon="5.26874">
        <ele>182.8</ele>
        <time>2022-07-07T06:36:28Z</time>
      </trkpt>
      <trkpt lat="46.61616" lon="5.26868">
        <ele>183</ele>
        <time>2022-07-07T06:36:29Z</time>
      </trkpt>
      <trkpt lat="46.61633" lon="5.26851">
        <ele>183.2</ele>
        <time>2022-07-07T06:36:32Z</time>
      </trkpt>
      <trkpt lat="46.6166" lon="5.26832">
        <ele>183.6</ele>
        <time>2022-07-07T06:36:37Z</time>
      </trkpt>
      <trkpt lat="46.61667" lon="5.2683">
        <ele>183.6</ele>
        <time>2022-07-07T06:36:38Z</time>
      </trkpt>
      <trkpt lat="46.61673" lon="5.2683">
        <ele>183.6</ele>
        <time>2022-07-07T06:36:39Z</time>
      </trkpt>
      <trkpt lat="46.61687" lon="5.26836">
        <ele>183.6</ele>
        <time>2022-07-07T06:36:41Z</time>
      </trkpt>
      <trkpt lat="46.6172" lon="5.26867">
        <ele>183.6</ele>
        <time>2022-07-07T06:36:47Z</time>
      </trkpt>
      <trkpt lat="46.61751" lon="5.26909">
        <ele>183.6</ele>
        <time>2022-07-07T06:36:54Z</time>
      </trkpt>
      <trkpt lat="46.61756" lon="5.26916">
        <ele>183.8</ele>
        <time>2022-07-07T06:36:55Z</time>
      </trkpt>
      <trkpt lat="46.61788" lon="5.26972">
        <ele>184.2</ele>
        <time>2022-07-07T06:37:03Z</time>
      </trkpt>
      <trkpt lat="46.61818" lon="5.27024">
        <ele>184.6</ele>
        <time>2022-07-07T06:37:11Z</time>
      </trkpt>
      <trkpt lat="46.6182" lon="5.27038">
        <ele>184.6</ele>
        <time>2022-07-07T06:37:13Z</time>
      </trkpt>
      <trkpt lat="46.6182" lon="5.27038">
        <ele>184.8</ele>
        <time>2022-07-07T06:37:14Z</time>
      </trkpt>
      <trkpt lat="46.61819" lon="5.2705">
        <ele>184.8</ele>
        <time>2022-07-07T06:37:15Z</time>
      </trkpt>
      <trkpt lat="46.61815" lon="5.27075">
        <ele>185</ele>
        <time>2022-07-07T06:37:18Z</time>
      </trkpt>
      <trkpt lat="46.61807" lon="5.27137">
        <ele>185.4</ele>
        <time>2022-07-07T06:37:24Z</time>
      </trkpt>
      <trkpt lat="46.61796" lon="5.27217">
        <ele>185.6</ele>
        <time>2022-07-07T06:37:32Z</time>
      </trkpt>
      <trkpt lat="46.61795" lon="5.27227">
        <ele>185.8</ele>
        <time>2022-07-07T06:37:33Z</time>
      </trkpt>
      <trkpt lat="46.61792" lon="5.27256">
        <ele>186.2</ele>
        <time>2022-07-07T06:37:36Z</time>
      </trkpt>
      <trkpt lat="46.61786" lon="5.27292">
        <ele>186</ele>
        <time>2022-07-07T06:37:40Z</time>
      </trkpt>
      <trkpt lat="46.61776" lon="5.27375">
        <ele>186.4</ele>
        <time>2022-07-07T06:37:49Z</time>
      </trkpt>
      <trkpt lat="46.61774" lon="5.27386">
        <ele>186.6</ele>
        <time>2022-07-07T06:37:50Z</time>
      </trkpt>
      <trkpt lat="46.61769" lon="5.27422">
        <ele>186.8</ele>
        <time>2022-07-07T06:37:54Z</time>
      </trkpt>
      <trkpt lat="46.61767" lon="5.27447">
        <ele>187.2</ele>
        <time>2022-07-07T06:37:57Z</time>
      </trkpt>
      <trkpt lat="46.61767" lon="5.27527">
        <ele>187.8</ele>
        <time>2022-07-07T06:38:06Z</time>
      </trkpt>
      <trkpt lat="46.61775" lon="5.27596">
        <ele>188.2</ele>
        <time>2022-07-07T06:38:14Z</time>
      </trkpt>
      <trkpt lat="46.61788" lon="5.27655">
        <ele>187.8</ele>
        <time>2022-07-07T06:38:19Z</time>
      </trkpt>
      <trkpt lat="46.618" lon="5.27704">
        <ele>186.8</ele>
        <time>2022-07-07T06:38:23Z</time>
      </trkpt>
      <trkpt lat="46.61808" lon="5.27738">
        <ele>186.4</ele>
        <time>2022-07-07T06:38:26Z</time>
      </trkpt>
      <trkpt lat="46.61821" lon="5.27793">
        <ele>185.8</ele>
        <time>2022-07-07T06:38:31Z</time>
      </trkpt>
      <trkpt lat="46.61831" lon="5.27835">
        <ele>185.6</ele>
        <time>2022-07-07T06:38:35Z</time>
      </trkpt>
      <trkpt lat="46.61842" lon="5.27906">
        <ele>185.4</ele>
        <time>2022-07-07T06:38:42Z</time>
      </trkpt>
      <trkpt lat="46.61841" lon="5.27983">
        <ele>185.4</ele>
        <time>2022-07-07T06:38:49Z</time>
      </trkpt>
      <trkpt lat="46.61834" lon="5.28049">
        <ele>184.8</ele>
        <time>2022-07-07T06:38:55Z</time>
      </trkpt>
      <trkpt lat="46.61832" lon="5.2806">
        <ele>184.4</ele>
        <time>2022-07-07T06:38:56Z</time>
      </trkpt>
      <trkpt lat="46.61819" lon="5.28114">
        <ele>183.6</ele>
        <time>2022-07-07T06:39:01Z</time>
      </trkpt>
      <trkpt lat="46.61794" lon="5.28185">
        <ele>183.2</ele>
        <time>2022-07-07T06:39:08Z</time>
      </trkpt>
      <trkpt lat="46.61787" lon="5.28205">
        <ele>183.2</ele>
        <time>2022-07-07T06:39:10Z</time>
      </trkpt>
      <trkpt lat="46.61761" lon="5.28278">
        <ele>183.2</ele>
        <time>2022-07-07T06:39:18Z</time>
      </trkpt>
      <trkpt lat="46.61754" lon="5.28298">
        <ele>183.2</ele>
        <time>2022-07-07T06:39:20Z</time>
      </trkpt>
      <trkpt lat="46.6173" lon="5.28369">
        <ele>183</ele>
        <time>2022-07-07T06:39:28Z</time>
      </trkpt>
      <trkpt lat="46.61724" lon="5.28387">
        <ele>183</ele>
        <time>2022-07-07T06:39:30Z</time>
      </trkpt>
      <trkpt lat="46.61699" lon="5.28459">
        <ele>183.4</ele>
        <time>2022-07-07T06:39:38Z</time>
      </trkpt>
      <trkpt lat="46.61697" lon="5.28466">
        <ele>183.4</ele>
        <time>2022-07-07T06:39:39Z</time>
      </trkpt>
      <trkpt lat="46.6167" lon="5.28543">
        <ele>183.6</ele>
        <time>2022-07-07T06:39:48Z</time>
      </trkpt>
      <trkpt lat="46.61668" lon="5.28551">
        <ele>183.6</ele>
        <time>2022-07-07T06:39:49Z</time>
      </trkpt>
      <trkpt lat="46.61641" lon="5.28629">
        <ele>183.8</ele>
        <time>2022-07-07T06:39:58Z</time>
      </trkpt>
      <trkpt lat="46.61615" lon="5.28703">
        <ele>184.6</ele>
        <time>2022-07-07T06:40:07Z</time>
      </trkpt>
      <trkpt lat="46.61612" lon="5.28711">
        <ele>184.6</ele>
        <time>2022-07-07T06:40:08Z</time>
      </trkpt>
      <trkpt lat="46.61593" lon="5.28765">
        <ele>185.8</ele>
        <time>2022-07-07T06:40:15Z</time>
      </trkpt>
      <trkpt lat="46.61583" lon="5.28795">
        <ele>186.2</ele>
        <time>2022-07-07T06:40:19Z</time>
      </trkpt>
      <trkpt lat="46.61566" lon="5.28844">
        <ele>186.8</ele>
        <time>2022-07-07T06:40:26Z</time>
      </trkpt>
      <trkpt lat="46.61562" lon="5.28856">
        <ele>187.6</ele>
        <time>2022-07-07T06:40:28Z</time>
      </trkpt>
      <trkpt lat="46.6156" lon="5.28862">
        <ele>188</ele>
        <time>2022-07-07T06:40:29Z</time>
      </trkpt>
      <trkpt lat="46.61549" lon="5.28893">
        <ele>189</ele>
        <time>2022-07-07T06:40:34Z</time>
      </trkpt>
      <trkpt lat="46.61542" lon="5.28911">
        <ele>190</ele>
        <time>2022-07-07T06:40:37Z</time>
      </trkpt>
      <trkpt lat="46.6154" lon="5.28917">
        <ele>190.4</ele>
        <time>2022-07-07T06:40:38Z</time>
      </trkpt>
      <trkpt lat="46.61533" lon="5.28942">
        <ele>191.6</ele>
        <time>2022-07-07T06:40:42Z</time>
      </trkpt>
      <trkpt lat="46.61526" lon="5.2896">
        <ele>192.6</ele>
        <time>2022-07-07T06:40:45Z</time>
      </trkpt>
      <trkpt lat="46.6152" lon="5.28979">
        <ele>193.2</ele>
        <time>2022-07-07T06:40:48Z</time>
      </trkpt>
      <trkpt lat="46.61515" lon="5.28991">
        <ele>193.8</ele>
        <time>2022-07-07T06:40:50Z</time>
      </trkpt>
      <trkpt lat="46.61506" lon="5.29014">
        <ele>195</ele>
        <time>2022-07-07T06:40:54Z</time>
      </trkpt>
      <trkpt lat="46.61504" lon="5.29021">
        <ele>195.2</ele>
        <time>2022-07-07T06:40:55Z</time>
      </trkpt>
      <trkpt lat="46.61502" lon="5.29027">
        <ele>195.8</ele>
        <time>2022-07-07T06:40:56Z</time>
      </trkpt>
      <trkpt lat="46.61497" lon="5.2904">
        <ele>196.2</ele>
        <time>2022-07-07T06:40:58Z</time>
      </trkpt>
      <trkpt lat="46.61489" lon="5.29064">
        <ele>197.2</ele>
        <time>2022-07-07T06:41:02Z</time>
      </trkpt>
      <trkpt lat="46.61481" lon="5.29083">
        <ele>198</ele>
        <time>2022-07-07T06:41:05Z</time>
      </trkpt>
      <trkpt lat="46.6148" lon="5.29089">
        <ele>198.4</ele>
        <time>2022-07-07T06:41:06Z</time>
      </trkpt>
      <trkpt lat="46.6147" lon="5.29119">
        <ele>199.6</ele>
        <time>2022-07-07T06:41:10Z</time>
      </trkpt>
      <trkpt lat="46.6146" lon="5.29147">
        <ele>200.4</ele>
        <time>2022-07-07T06:41:14Z</time>
      </trkpt>
      <trkpt lat="46.61458" lon="5.29154">
        <ele>200.6</ele>
        <time>2022-07-07T06:41:15Z</time>
      </trkpt>
      <trkpt lat="46.6144" lon="5.2921">
        <ele>200.8</ele>
        <time>2022-07-07T06:41:23Z</time>
      </trkpt>
      <trkpt lat="46.6143" lon="5.2926">
        <ele>200.6</ele>
        <time>2022-07-07T06:41:28Z</time>
      </trkpt>
      <trkpt lat="46.61424" lon="5.29322">
        <ele>199.8</ele>
        <time>2022-07-07T06:41:33Z</time>
      </trkpt>
      <trkpt lat="46.61422" lon="5.29346">
        <ele>199.2</ele>
        <time>2022-07-07T06:41:35Z</time>
      </trkpt>
      <trkpt lat="46.61416" lon="5.29375">
        <ele>198.2</ele>
        <time>2022-07-07T06:41:37Z</time>
      </trkpt>
      <trkpt lat="46.61413" lon="5.29386">
        <ele>197.4</ele>
        <time>2022-07-07T06:41:38Z</time>
      </trkpt>
      <trkpt lat="46.61402" lon="5.29414">
        <ele>196.6</ele>
        <time>2022-07-07T06:41:40Z</time>
      </trkpt>
      <trkpt lat="46.61387" lon="5.29449">
        <ele>195.4</ele>
        <time>2022-07-07T06:41:43Z</time>
      </trkpt>
      <trkpt lat="46.61381" lon="5.29462">
        <ele>195</ele>
        <time>2022-07-07T06:41:44Z</time>
      </trkpt>
      <trkpt lat="46.61374" lon="5.29477">
        <ele>194.4</ele>
        <time>2022-07-07T06:41:45Z</time>
      </trkpt>
      <trkpt lat="46.61357" lon="5.29512">
        <ele>193.2</ele>
        <time>2022-07-07T06:41:48Z</time>
      </trkpt>
      <trkpt lat="46.61339" lon="5.29553">
        <ele>191.8</ele>
        <time>2022-07-07T06:41:51Z</time>
      </trkpt>
      <trkpt lat="46.61324" lon="5.29589">
        <ele>190.8</ele>
        <time>2022-07-07T06:41:54Z</time>
      </trkpt>
      <trkpt lat="46.61307" lon="5.29624">
        <ele>190.2</ele>
        <time>2022-07-07T06:41:57Z</time>
      </trkpt>
      <trkpt lat="46.613" lon="5.29637">
        <ele>189.8</ele>
        <time>2022-07-07T06:41:58Z</time>
      </trkpt>
      <trkpt lat="46.61276" lon="5.29687">
        <ele>189.2</ele>
        <time>2022-07-07T06:42:03Z</time>
      </trkpt>
      <trkpt lat="46.61251" lon="5.2974">
        <ele>188.8</ele>
        <time>2022-07-07T06:42:08Z</time>
      </trkpt>
      <trkpt lat="46.61241" lon="5.2976">
        <ele>188.6</ele>
        <time>2022-07-07T06:42:10Z</time>
      </trkpt>
      <trkpt lat="46.61219" lon="5.29808">
        <ele>188.2</ele>
        <time>2022-07-07T06:42:15Z</time>
      </trkpt>
      <trkpt lat="46.61188" lon="5.29876">
        <ele>188.4</ele>
        <time>2022-07-07T06:42:22Z</time>
      </trkpt>
      <trkpt lat="46.61172" lon="5.29911">
        <ele>188.4</ele>
        <time>2022-07-07T06:42:26Z</time>
      </trkpt>
      <trkpt lat="46.61136" lon="5.29976">
        <ele>189.2</ele>
        <time>2022-07-07T06:42:34Z</time>
      </trkpt>
      <trkpt lat="46.61099" lon="5.3002">
        <ele>189.6</ele>
        <time>2022-07-07T06:42:41Z</time>
      </trkpt>
      <trkpt lat="46.61049" lon="5.30064">
        <ele>189.8</ele>
        <time>2022-07-07T06:42:49Z</time>
      </trkpt>
      <trkpt lat="46.61043" lon="5.30069">
        <ele>189.8</ele>
        <time>2022-07-07T06:42:50Z</time>
      </trkpt>
      <trkpt lat="46.60996" lon="5.30108">
        <ele>189.4</ele>
        <time>2022-07-07T06:42:57Z</time>
      </trkpt>
      <trkpt lat="46.60984" lon="5.30118">
        <ele>189.4</ele>
        <time>2022-07-07T06:42:59Z</time>
      </trkpt>
      <trkpt lat="46.60935" lon="5.30159">
        <ele>189.4</ele>
        <time>2022-07-07T06:43:07Z</time>
      </trkpt>
      <trkpt lat="46.60912" lon="5.30178">
        <ele>190</ele>
        <time>2022-07-07T06:43:11Z</time>
      </trkpt>
      <trkpt lat="46.60863" lon="5.30219">
        <ele>190.6</ele>
        <time>2022-07-07T06:43:20Z</time>
      </trkpt>
      <trkpt lat="46.60852" lon="5.30229">
        <ele>191</ele>
        <time>2022-07-07T06:43:22Z</time>
      </trkpt>
      <trkpt lat="46.60821" lon="5.30253">
        <ele>191.6</ele>
        <time>2022-07-07T06:43:28Z</time>
      </trkpt>
      <trkpt lat="46.60807" lon="5.30264">
        <ele>192.2</ele>
        <time>2022-07-07T06:43:31Z</time>
      </trkpt>
      <trkpt lat="46.60783" lon="5.30284">
        <ele>193.4</ele>
        <time>2022-07-07T06:43:36Z</time>
      </trkpt>
      <trkpt lat="46.60778" lon="5.30288">
        <ele>193.6</ele>
        <time>2022-07-07T06:43:37Z</time>
      </trkpt>
      <trkpt lat="46.60761" lon="5.30304">
        <ele>194.6</ele>
        <time>2022-07-07T06:43:41Z</time>
      </trkpt>
      <trkpt lat="46.60746" lon="5.30316">
        <ele>195.8</ele>
        <time>2022-07-07T06:43:45Z</time>
      </trkpt>
      <trkpt lat="46.6074" lon="5.30321">
        <ele>196</ele>
        <time>2022-07-07T06:43:46Z</time>
      </trkpt>
      <trkpt lat="46.60727" lon="5.30332">
        <ele>197</ele>
        <time>2022-07-07T06:43:49Z</time>
      </trkpt>
      <trkpt lat="46.60711" lon="5.30346">
        <ele>197.6</ele>
        <time>2022-07-07T06:43:53Z</time>
      </trkpt>
      <trkpt lat="46.60698" lon="5.30358">
        <ele>198.2</ele>
        <time>2022-07-07T06:43:56Z</time>
      </trkpt>
      <trkpt lat="46.60675" lon="5.30376">
        <ele>199.4</ele>
        <time>2022-07-07T06:44:01Z</time>
      </trkpt>
      <trkpt lat="46.60657" lon="5.30392">
        <ele>199.6</ele>
        <time>2022-07-07T06:44:05Z</time>
      </trkpt>
      <trkpt lat="46.60638" lon="5.30406">
        <ele>200.4</ele>
        <time>2022-07-07T06:44:09Z</time>
      </trkpt>
      <trkpt lat="46.6062" lon="5.30421">
        <ele>200.6</ele>
        <time>2022-07-07T06:44:13Z</time>
      </trkpt>
      <trkpt lat="46.60592" lon="5.30443">
        <ele>201.6</ele>
        <time>2022-07-07T06:44:19Z</time>
      </trkpt>
      <trkpt lat="46.60572" lon="5.30459">
        <ele>202</ele>
        <time>2022-07-07T06:44:23Z</time>
      </trkpt>
      <trkpt lat="46.60536" lon="5.30488">
        <ele>202.6</ele>
        <time>2022-07-07T06:44:30Z</time>
      </trkpt>
      <trkpt lat="46.60526" lon="5.30497">
        <ele>202.8</ele>
        <time>2022-07-07T06:44:32Z</time>
      </trkpt>
      <trkpt lat="46.60479" lon="5.30537">
        <ele>203.2</ele>
        <time>2022-07-07T06:44:41Z</time>
      </trkpt>
      <trkpt lat="46.6047" lon="5.30545">
        <ele>203.2</ele>
        <time>2022-07-07T06:44:42Z</time>
      </trkpt>
      <trkpt lat="46.60424" lon="5.30582">
        <ele>203.4</ele>
        <time>2022-07-07T06:44:51Z</time>
      </trkpt>
      <trkpt lat="46.60385" lon="5.30615">
        <ele>203.6</ele>
        <time>2022-07-07T06:44:58Z</time>
      </trkpt>
      <trkpt lat="46.60345" lon="5.30648">
        <ele>204</ele>
        <time>2022-07-07T06:45:05Z</time>
      </trkpt>
      <trkpt lat="46.60315" lon="5.30673">
        <ele>203.8</ele>
        <time>2022-07-07T06:45:10Z</time>
      </trkpt>
      <trkpt lat="46.60303" lon="5.30683">
        <ele>203.8</ele>
        <time>2022-07-07T06:45:12Z</time>
      </trkpt>
      <trkpt lat="46.60263" lon="5.30728">
        <ele>203.6</ele>
        <time>2022-07-07T06:45:19Z</time>
      </trkpt>
      <trkpt lat="46.60227" lon="5.30792">
        <ele>203.2</ele>
        <time>2022-07-07T06:45:27Z</time>
      </trkpt>
      <trkpt lat="46.60221" lon="5.30802">
        <ele>203</ele>
        <time>2022-07-07T06:45:28Z</time>
      </trkpt>
      <trkpt lat="46.60188" lon="5.30864">
        <ele>203</ele>
        <time>2022-07-07T06:45:36Z</time>
      </trkpt>
      <trkpt lat="46.60183" lon="5.30873">
        <ele>203</ele>
        <time>2022-07-07T06:45:37Z</time>
      </trkpt>
      <trkpt lat="46.60148" lon="5.30935">
        <ele>203.2</ele>
        <time>2022-07-07T06:45:45Z</time>
      </trkpt>
      <trkpt lat="46.6014" lon="5.30951">
        <ele>203.2</ele>
        <time>2022-07-07T06:45:47Z</time>
      </trkpt>
      <trkpt lat="46.60118" lon="5.30989">
        <ele>203</ele>
        <time>2022-07-07T06:45:52Z</time>
      </trkpt>
      <trkpt lat="46.60113" lon="5.30994">
        <ele>203</ele>
        <time>2022-07-07T06:45:53Z</time>
      </trkpt>
      <trkpt lat="46.60107" lon="5.30996">
        <ele>203</ele>
        <time>2022-07-07T06:45:54Z</time>
      </trkpt>
      <trkpt lat="46.60096" lon="5.30991">
        <ele>203</ele>
        <time>2022-07-07T06:45:56Z</time>
      </trkpt>
      <trkpt lat="46.6007" lon="5.3096">
        <ele>202.6</ele>
        <time>2022-07-07T06:46:01Z</time>
      </trkpt>
      <trkpt lat="46.60039" lon="5.30924">
        <ele>202.6</ele>
        <time>2022-07-07T06:46:06Z</time>
      </trkpt>
      <trkpt lat="46.60033" lon="5.30917">
        <ele>202.4</ele>
        <time>2022-07-07T06:46:07Z</time>
      </trkpt>
      <trkpt lat="46.59992" lon="5.3087">
        <ele>201.4</ele>
        <time>2022-07-07T06:46:13Z</time>
      </trkpt>
      <trkpt lat="46.59992" lon="5.3087">
        <ele>201.2</ele>
        <time>2022-07-07T06:46:14Z</time>
      </trkpt>
      <trkpt lat="46.59967" lon="5.30844">
        <ele>200.8</ele>
        <time>2022-07-07T06:46:17Z</time>
      </trkpt>
      <trkpt lat="46.59951" lon="5.30834">
        <ele>200.6</ele>
        <time>2022-07-07T06:46:19Z</time>
      </trkpt>
      <trkpt lat="46.59934" lon="5.3083">
        <ele>199.8</ele>
        <time>2022-07-07T06:46:21Z</time>
      </trkpt>
      <trkpt lat="46.59907" lon="5.30825">
        <ele>198.8</ele>
        <time>2022-07-07T06:46:24Z</time>
      </trkpt>
      <trkpt lat="46.59864" lon="5.30816">
        <ele>197.8</ele>
        <time>2022-07-07T06:46:29Z</time>
      </trkpt>
      <trkpt lat="46.59829" lon="5.30806">
        <ele>196.6</ele>
        <time>2022-07-07T06:46:33Z</time>
      </trkpt>
      <trkpt lat="46.59821" lon="5.30803">
        <ele>196.4</ele>
        <time>2022-07-07T06:46:34Z</time>
      </trkpt>
      <trkpt lat="46.59788" lon="5.30788">
        <ele>195.6</ele>
        <time>2022-07-07T06:46:38Z</time>
      </trkpt>
      <trkpt lat="46.59761" lon="5.30784">
        <ele>195</ele>
        <time>2022-07-07T06:46:41Z</time>
      </trkpt>
      <trkpt lat="46.59732" lon="5.30786">
        <ele>194.4</ele>
        <time>2022-07-07T06:46:44Z</time>
      </trkpt>
      <trkpt lat="46.59702" lon="5.30788">
        <ele>193.4</ele>
        <time>2022-07-07T06:46:47Z</time>
      </trkpt>
      <trkpt lat="46.59691" lon="5.30789">
        <ele>193.2</ele>
        <time>2022-07-07T06:46:48Z</time>
      </trkpt>
      <trkpt lat="46.5966" lon="5.30791">
        <ele>191.8</ele>
        <time>2022-07-07T06:46:51Z</time>
      </trkpt>
      <trkpt lat="46.59638" lon="5.30793">
        <ele>190.6</ele>
        <time>2022-07-07T06:46:53Z</time>
      </trkpt>
      <trkpt lat="46.59628" lon="5.30794">
        <ele>190.4</ele>
        <time>2022-07-07T06:46:54Z</time>
      </trkpt>
      <trkpt lat="46.59618" lon="5.30796">
        <ele>189.8</ele>
        <time>2022-07-07T06:46:55Z</time>
      </trkpt>
      <trkpt lat="46.59589" lon="5.308">
        <ele>188.4</ele>
        <time>2022-07-07T06:46:58Z</time>
      </trkpt>
      <trkpt lat="46.59561" lon="5.30804">
        <ele>188</ele>
        <time>2022-07-07T06:47:01Z</time>
      </trkpt>
      <trkpt lat="46.59519" lon="5.30809">
        <ele>187.4</ele>
        <time>2022-07-07T06:47:06Z</time>
      </trkpt>
      <trkpt lat="46.59502" lon="5.30811">
        <ele>187.2</ele>
        <time>2022-07-07T06:47:08Z</time>
      </trkpt>
      <trkpt lat="46.59448" lon="5.30818">
        <ele>186.6</ele>
        <time>2022-07-07T06:47:15Z</time>
      </trkpt>
      <trkpt lat="46.59437" lon="5.3082">
        <ele>186.6</ele>
        <time>2022-07-07T06:47:16Z</time>
      </trkpt>
      <trkpt lat="46.59379" lon="5.30827">
        <ele>186.8</ele>
        <time>2022-07-07T06:47:24Z</time>
      </trkpt>
      <trkpt lat="46.59348" lon="5.30832">
        <ele>187.4</ele>
        <time>2022-07-07T06:47:29Z</time>
      </trkpt>
      <trkpt lat="46.59336" lon="5.30833">
        <ele>187.8</ele>
        <time>2022-07-07T06:47:31Z</time>
      </trkpt>
      <trkpt lat="46.59313" lon="5.30836">
        <ele>188.6</ele>
        <time>2022-07-07T06:47:35Z</time>
      </trkpt>
      <trkpt lat="46.59296" lon="5.30839">
        <ele>189.4</ele>
        <time>2022-07-07T06:47:38Z</time>
      </trkpt>
      <trkpt lat="46.59286" lon="5.3084">
        <ele>189.8</ele>
        <time>2022-07-07T06:47:40Z</time>
      </trkpt>
      <trkpt lat="46.59248" lon="5.30845">
        <ele>190.8</ele>
        <time>2022-07-07T06:47:47Z</time>
      </trkpt>
      <trkpt lat="46.59243" lon="5.30845">
        <ele>191</ele>
        <time>2022-07-07T06:47:48Z</time>
      </trkpt>
      <trkpt lat="46.59217" lon="5.30848">
        <ele>191.8</ele>
        <time>2022-07-07T06:47:53Z</time>
      </trkpt>
      <trkpt lat="46.59195" lon="5.30851">
        <ele>193</ele>
        <time>2022-07-07T06:47:57Z</time>
      </trkpt>
      <trkpt lat="46.5919" lon="5.30851">
        <ele>193.2</ele>
        <time>2022-07-07T06:47:58Z</time>
      </trkpt>
      <trkpt lat="46.59163" lon="5.30856">
        <ele>194</ele>
        <time>2022-07-07T06:48:03Z</time>
      </trkpt>
      <trkpt lat="46.59147" lon="5.30859">
        <ele>194.4</ele>
        <time>2022-07-07T06:48:06Z</time>
      </trkpt>
      <trkpt lat="46.59124" lon="5.30861">
        <ele>195.2</ele>
        <time>2022-07-07T06:48:10Z</time>
      </trkpt>
      <trkpt lat="46.59099" lon="5.30865">
        <ele>196</ele>
        <time>2022-07-07T06:48:15Z</time>
      </trkpt>
      <trkpt lat="46.59086" lon="5.30866">
        <ele>196.6</ele>
        <time>2022-07-07T06:48:17Z</time>
      </trkpt>
      <trkpt lat="46.59061" lon="5.30869">
        <ele>197.8</ele>
        <time>2022-07-07T06:48:22Z</time>
      </trkpt>
      <trkpt lat="46.59047" lon="5.30873">
        <ele>198.2</ele>
        <time>2022-07-07T06:48:25Z</time>
      </trkpt>
      <trkpt lat="46.59042" lon="5.30873">
        <ele>198.4</ele>
        <time>2022-07-07T06:48:26Z</time>
      </trkpt>
      <trkpt lat="46.59033" lon="5.30873">
        <ele>198.8</ele>
        <time>2022-07-07T06:48:28Z</time>
      </trkpt>
      <trkpt lat="46.59023" lon="5.30873">
        <ele>199.4</ele>
        <time>2022-07-07T06:48:30Z</time>
      </trkpt>
      <trkpt lat="46.59009" lon="5.30875">
        <ele>200.2</ele>
        <time>2022-07-07T06:48:33Z</time>
      </trkpt>
      <trkpt lat="46.5899" lon="5.30878">
        <ele>201.2</ele>
        <time>2022-07-07T06:48:37Z</time>
      </trkpt>
      <trkpt lat="46.58981" lon="5.3088">
        <ele>201.6</ele>
        <time>2022-07-07T06:48:39Z</time>
      </trkpt>
      <trkpt lat="46.58972" lon="5.30883">
        <ele>202</ele>
        <time>2022-07-07T06:48:41Z</time>
      </trkpt>
      <trkpt lat="46.58967" lon="5.30883">
        <ele>202.4</ele>
        <time>2022-07-07T06:48:42Z</time>
      </trkpt>
      <trkpt lat="46.58962" lon="5.30882">
        <ele>202.6</ele>
        <time>2022-07-07T06:48:43Z</time>
      </trkpt>
      <trkpt lat="46.58943" lon="5.30885">
        <ele>203.4</ele>
        <time>2022-07-07T06:48:47Z</time>
      </trkpt>
      <trkpt lat="46.58922" lon="5.30888">
        <ele>204.2</ele>
        <time>2022-07-07T06:48:51Z</time>
      </trkpt>
      <trkpt lat="46.58912" lon="5.30889">
        <ele>204.4</ele>
        <time>2022-07-07T06:48:53Z</time>
      </trkpt>
      <trkpt lat="46.58906" lon="5.3089">
        <ele>204.6</ele>
        <time>2022-07-07T06:48:54Z</time>
      </trkpt>
      <trkpt lat="46.58867" lon="5.30895">
        <ele>205.4</ele>
        <time>2022-07-07T06:49:01Z</time>
      </trkpt>
      <trkpt lat="46.58855" lon="5.30897">
        <ele>205.4</ele>
        <time>2022-07-07T06:49:03Z</time>
      </trkpt>
      <trkpt lat="46.58815" lon="5.30906">
        <ele>205.8</ele>
        <time>2022-07-07T06:49:10Z</time>
      </trkpt>
      <trkpt lat="46.58809" lon="5.30909">
        <ele>205.6</ele>
        <time>2022-07-07T06:49:11Z</time>
      </trkpt>
      <trkpt lat="46.58794" lon="5.30919">
        <ele>205.6</ele>
        <time>2022-07-07T06:49:13Z</time>
      </trkpt>
      <trkpt lat="46.58788" lon="5.30925">
        <ele>205.6</ele>
        <time>2022-07-07T06:49:15Z</time>
      </trkpt>
      <trkpt lat="46.58749" lon="5.30966">
        <ele>205</ele>
        <time>2022-07-07T06:49:21Z</time>
      </trkpt>
      <trkpt lat="46.58714" lon="5.31002">
        <ele>204.2</ele>
        <time>2022-07-07T06:49:26Z</time>
      </trkpt>
      <trkpt lat="46.58707" lon="5.3101">
        <ele>204.2</ele>
        <time>2022-07-07T06:49:27Z</time>
      </trkpt>
      <trkpt lat="46.58665" lon="5.31053">
        <ele>203</ele>
        <time>2022-07-07T06:49:33Z</time>
      </trkpt>
      <trkpt lat="46.58653" lon="5.31066">
        <ele>202.6</ele>
        <time>2022-07-07T06:49:35Z</time>
      </trkpt>
      <trkpt lat="46.58632" lon="5.31088">
        <ele>202</ele>
        <time>2022-07-07T06:49:38Z</time>
      </trkpt>
      <trkpt lat="46.58607" lon="5.31114">
        <ele>201.8</ele>
        <time>2022-07-07T06:49:42Z</time>
      </trkpt>
      <trkpt lat="46.58559" lon="5.3116">
        <ele>201.8</ele>
        <time>2022-07-07T06:49:50Z</time>
      </trkpt>
      <trkpt lat="46.58553" lon="5.31165">
        <ele>201.8</ele>
        <time>2022-07-07T06:49:51Z</time>
      </trkpt>
      <trkpt lat="46.58515" lon="5.3119">
        <ele>202.8</ele>
        <time>2022-07-07T06:49:57Z</time>
      </trkpt>
      <trkpt lat="46.58467" lon="5.31211">
        <ele>203.2</ele>
        <time>2022-07-07T06:50:04Z</time>
      </trkpt>
      <trkpt lat="46.58446" lon="5.3122">
        <ele>203.4</ele>
        <time>2022-07-07T06:50:07Z</time>
      </trkpt>
      <trkpt lat="46.58392" lon="5.31243">
        <ele>203.6</ele>
        <time>2022-07-07T06:50:15Z</time>
      </trkpt>
      <trkpt lat="46.58361" lon="5.31256">
        <ele>203.6</ele>
        <time>2022-07-07T06:50:19Z</time>
      </trkpt>
      <trkpt lat="46.58315" lon="5.31283">
        <ele>203.6</ele>
        <time>2022-07-07T06:50:26Z</time>
      </trkpt>
      <trkpt lat="46.58274" lon="5.31316">
        <ele>203.6</ele>
        <time>2022-07-07T06:50:33Z</time>
      </trkpt>
      <trkpt lat="46.58223" lon="5.31357">
        <ele>204</ele>
        <time>2022-07-07T06:50:42Z</time>
      </trkpt>
      <trkpt lat="46.58218" lon="5.31362">
        <ele>204.2</ele>
        <time>2022-07-07T06:50:43Z</time>
      </trkpt>
      <trkpt lat="46.58169" lon="5.314">
        <ele>205</ele>
        <time>2022-07-07T06:50:52Z</time>
      </trkpt>
      <trkpt lat="46.58164" lon="5.31404">
        <ele>205.2</ele>
        <time>2022-07-07T06:50:53Z</time>
      </trkpt>
      <trkpt lat="46.58159" lon="5.31409">
        <ele>205.4</ele>
        <time>2022-07-07T06:50:54Z</time>
      </trkpt>
      <trkpt lat="46.5813" lon="5.31427">
        <ele>205.8</ele>
        <time>2022-07-07T06:50:59Z</time>
      </trkpt>
      <trkpt lat="46.58118" lon="5.3143">
        <ele>206</ele>
        <time>2022-07-07T06:51:01Z</time>
      </trkpt>
      <trkpt lat="46.58085" lon="5.31428">
        <ele>206.2</ele>
        <time>2022-07-07T06:51:06Z</time>
      </trkpt>
      <trkpt lat="46.58049" lon="5.31424">
        <ele>206.2</ele>
        <time>2022-07-07T06:51:11Z</time>
      </trkpt>
      <trkpt lat="46.58031" lon="5.31426">
        <ele>206.2</ele>
        <time>2022-07-07T06:51:13Z</time>
      </trkpt>
      <trkpt lat="46.57979" lon="5.3144">
        <ele>206.4</ele>
        <time>2022-07-07T06:51:21Z</time>
      </trkpt>
      <trkpt lat="46.57938" lon="5.31454">
        <ele>206.8</ele>
        <time>2022-07-07T06:51:27Z</time>
      </trkpt>
      <trkpt lat="46.57931" lon="5.31456">
        <ele>206.8</ele>
        <time>2022-07-07T06:51:28Z</time>
      </trkpt>
      <trkpt lat="46.57885" lon="5.31469">
        <ele>206.8</ele>
        <time>2022-07-07T06:51:35Z</time>
      </trkpt>
      <trkpt lat="46.57841" lon="5.31483">
        <ele>207.2</ele>
        <time>2022-07-07T06:51:42Z</time>
      </trkpt>
      <trkpt lat="46.57835" lon="5.31485">
        <ele>207.4</ele>
        <time>2022-07-07T06:51:43Z</time>
      </trkpt>
      <trkpt lat="46.57791" lon="5.31509">
        <ele>207.8</ele>
        <time>2022-07-07T06:51:50Z</time>
      </trkpt>
      <trkpt lat="46.57773" lon="5.31523">
        <ele>208.4</ele>
        <time>2022-07-07T06:51:54Z</time>
      </trkpt>
      <trkpt lat="46.5777" lon="5.31525">
        <ele>208.4</ele>
        <time>2022-07-07T06:51:55Z</time>
      </trkpt>
      <trkpt lat="46.57752" lon="5.31542">
        <ele>209.2</ele>
        <time>2022-07-07T06:52:01Z</time>
      </trkpt>
      <trkpt lat="46.57731" lon="5.31557">
        <ele>209.2</ele>
        <time>2022-07-07T06:52:05Z</time>
      </trkpt>
      <trkpt lat="46.57695" lon="5.31576">
        <ele>209.4</ele>
        <time>2022-07-07T06:52:11Z</time>
      </trkpt>
      <trkpt lat="46.57645" lon="5.31588">
        <ele>210.2</ele>
        <time>2022-07-07T06:52:19Z</time>
      </trkpt>
      <trkpt lat="46.57619" lon="5.31591">
        <ele>210.4</ele>
        <time>2022-07-07T06:52:23Z</time>
      </trkpt>
      <trkpt lat="46.57598" lon="5.31594">
        <ele>210.6</ele>
        <time>2022-07-07T06:52:26Z</time>
      </trkpt>
      <trkpt lat="46.57544" lon="5.31602">
        <ele>211</ele>
        <time>2022-07-07T06:52:34Z</time>
      </trkpt>
      <trkpt lat="46.5749" lon="5.3161">
        <ele>210.8</ele>
        <time>2022-07-07T06:52:42Z</time>
      </trkpt>
      <trkpt lat="46.57484" lon="5.3161">
        <ele>210.8</ele>
        <time>2022-07-07T06:52:43Z</time>
      </trkpt>
      <trkpt lat="46.57456" lon="5.31612">
        <ele>210.8</ele>
        <time>2022-07-07T06:52:47Z</time>
      </trkpt>
      <trkpt lat="46.57434" lon="5.31613">
        <ele>210.6</ele>
        <time>2022-07-07T06:52:50Z</time>
      </trkpt>
      <trkpt lat="46.5739" lon="5.31618">
        <ele>210.6</ele>
        <time>2022-07-07T06:52:56Z</time>
      </trkpt>
      <trkpt lat="46.57383" lon="5.31622">
        <ele>210.6</ele>
        <time>2022-07-07T06:52:57Z</time>
      </trkpt>
      <trkpt lat="46.57376" lon="5.31625">
        <ele>210.6</ele>
        <time>2022-07-07T06:52:58Z</time>
      </trkpt>
      <trkpt lat="46.57354" lon="5.3163">
        <ele>210.6</ele>
        <time>2022-07-07T06:53:01Z</time>
      </trkpt>
      <trkpt lat="46.57304" lon="5.31643">
        <ele>210.2</ele>
        <time>2022-07-07T06:53:08Z</time>
      </trkpt>
      <trkpt lat="46.57252" lon="5.31652">
        <ele>210.4</ele>
        <time>2022-07-07T06:53:15Z</time>
      </trkpt>
      <trkpt lat="46.57194" lon="5.31655">
        <ele>211</ele>
        <time>2022-07-07T06:53:23Z</time>
      </trkpt>
      <trkpt lat="46.57133" lon="5.31657">
        <ele>210.8</ele>
        <time>2022-07-07T06:53:31Z</time>
      </trkpt>
      <trkpt lat="46.57126" lon="5.31658">
        <ele>210.6</ele>
        <time>2022-07-07T06:53:32Z</time>
      </trkpt>
      <trkpt lat="46.57071" lon="5.31662">
        <ele>210.2</ele>
        <time>2022-07-07T06:53:39Z</time>
      </trkpt>
      <trkpt lat="46.57045" lon="5.31666">
        <ele>210.2</ele>
        <time>2022-07-07T06:53:42Z</time>
      </trkpt>
      <trkpt lat="46.56986" lon="5.31675">
        <ele>209.8</ele>
        <time>2022-07-07T06:53:50Z</time>
      </trkpt>
      <trkpt lat="46.56955" lon="5.31681">
        <ele>209.8</ele>
        <time>2022-07-07T06:53:54Z</time>
      </trkpt>
      <trkpt lat="46.56902" lon="5.31682">
        <ele>209.8</ele>
        <time>2022-07-07T06:54:01Z</time>
      </trkpt>
      <trkpt lat="46.56851" lon="5.31685">
        <ele>210</ele>
        <time>2022-07-07T06:54:08Z</time>
      </trkpt>
      <trkpt lat="46.56825" lon="5.31704">
        <ele>210.2</ele>
        <time>2022-07-07T06:54:12Z</time>
      </trkpt>
      <trkpt lat="46.56777" lon="5.3175">
        <ele>210.2</ele>
        <time>2022-07-07T06:54:20Z</time>
      </trkpt>
      <trkpt lat="46.5676" lon="5.31767">
        <ele>210.4</ele>
        <time>2022-07-07T06:54:23Z</time>
      </trkpt>
      <trkpt lat="46.56712" lon="5.31813">
        <ele>210.8</ele>
        <time>2022-07-07T06:54:31Z</time>
      </trkpt>
      <trkpt lat="46.56692" lon="5.31833">
        <ele>210.8</ele>
        <time>2022-07-07T06:54:34Z</time>
      </trkpt>
      <trkpt lat="46.56646" lon="5.31878">
        <ele>210.2</ele>
        <time>2022-07-07T06:54:41Z</time>
      </trkpt>
      <trkpt lat="46.56595" lon="5.31926">
        <ele>209.6</ele>
        <time>2022-07-07T06:54:49Z</time>
      </trkpt>
      <trkpt lat="46.56582" lon="5.31936">
        <ele>209.6</ele>
        <time>2022-07-07T06:54:51Z</time>
      </trkpt>
      <trkpt lat="46.56576" lon="5.31939">
        <ele>209.6</ele>
        <time>2022-07-07T06:54:52Z</time>
      </trkpt>
      <trkpt lat="46.56555" lon="5.31946">
        <ele>209.8</ele>
        <time>2022-07-07T06:54:55Z</time>
      </trkpt>
      <trkpt lat="46.56521" lon="5.31951">
        <ele>210.2</ele>
        <time>2022-07-07T06:55:00Z</time>
      </trkpt>
      <trkpt lat="46.56471" lon="5.31955">
        <ele>210.4</ele>
        <time>2022-07-07T06:55:07Z</time>
      </trkpt>
      <trkpt lat="46.56414" lon="5.31958">
        <ele>210.6</ele>
        <time>2022-07-07T06:55:15Z</time>
      </trkpt>
      <trkpt lat="46.56384" lon="5.31968">
        <ele>210.6</ele>
        <time>2022-07-07T06:55:19Z</time>
      </trkpt>
      <trkpt lat="46.56377" lon="5.31972">
        <ele>210.6</ele>
        <time>2022-07-07T06:55:20Z</time>
      </trkpt>
      <trkpt lat="46.56322" lon="5.32011">
        <ele>210.2</ele>
        <time>2022-07-07T06:55:28Z</time>
      </trkpt>
      <trkpt lat="46.56315" lon="5.32017">
        <ele>210.2</ele>
        <time>2022-07-07T06:55:29Z</time>
      </trkpt>
      <trkpt lat="46.56271" lon="5.3205">
        <ele>210.6</ele>
        <time>2022-07-07T06:55:36Z</time>
      </trkpt>
      <trkpt lat="46.56237" lon="5.32086">
        <ele>211</ele>
        <time>2022-07-07T06:55:42Z</time>
      </trkpt>
      <trkpt lat="46.56193" lon="5.32144">
        <ele>211</ele>
        <time>2022-07-07T06:55:50Z</time>
      </trkpt>
      <trkpt lat="46.56176" lon="5.32167">
        <ele>211</ele>
        <time>2022-07-07T06:55:53Z</time>
      </trkpt>
      <trkpt lat="46.56133" lon="5.32221">
        <ele>210.4</ele>
        <time>2022-07-07T06:56:00Z</time>
      </trkpt>
      <trkpt lat="46.56121" lon="5.32237">
        <ele>210.2</ele>
        <time>2022-07-07T06:56:02Z</time>
      </trkpt>
      <trkpt lat="46.56079" lon="5.32285">
        <ele>209.2</ele>
        <time>2022-07-07T06:56:08Z</time>
      </trkpt>
      <trkpt lat="46.56058" lon="5.32311">
        <ele>208.8</ele>
        <time>2022-07-07T06:56:11Z</time>
      </trkpt>
      <trkpt lat="46.56051" lon="5.3232">
        <ele>208.2</ele>
        <time>2022-07-07T06:56:12Z</time>
      </trkpt>
      <trkpt lat="46.56022" lon="5.32357">
        <ele>207</ele>
        <time>2022-07-07T06:56:16Z</time>
      </trkpt>
      <trkpt lat="46.56015" lon="5.32368">
        <ele>206.6</ele>
        <time>2022-07-07T06:56:17Z</time>
      </trkpt>
      <trkpt lat="46.56003" lon="5.3239">
        <ele>205.8</ele>
        <time>2022-07-07T06:56:19Z</time>
      </trkpt>
      <trkpt lat="46.55987" lon="5.32426">
        <ele>205.2</ele>
        <time>2022-07-07T06:56:22Z</time>
      </trkpt>
      <trkpt lat="46.55972" lon="5.32461">
        <ele>204.8</ele>
        <time>2022-07-07T06:56:25Z</time>
      </trkpt>
      <trkpt lat="46.55944" lon="5.32528">
        <ele>204.2</ele>
        <time>2022-07-07T06:56:31Z</time>
      </trkpt>
      <trkpt lat="46.55935" lon="5.3255">
        <ele>204</ele>
        <time>2022-07-07T06:56:33Z</time>
      </trkpt>
      <trkpt lat="46.55922" lon="5.3258">
        <ele>203.8</ele>
        <time>2022-07-07T06:56:36Z</time>
      </trkpt>
      <trkpt lat="46.55901" lon="5.32622">
        <ele>203.6</ele>
        <time>2022-07-07T06:56:40Z</time>
      </trkpt>
      <trkpt lat="46.55887" lon="5.32637">
        <ele>203.4</ele>
        <time>2022-07-07T06:56:42Z</time>
      </trkpt>
      <trkpt lat="46.55873" lon="5.32649">
        <ele>203.2</ele>
        <time>2022-07-07T06:56:44Z</time>
      </trkpt>
      <trkpt lat="46.5584" lon="5.3266">
        <ele>202.8</ele>
        <time>2022-07-07T06:56:48Z</time>
      </trkpt>
      <trkpt lat="46.55832" lon="5.32661">
        <ele>202.8</ele>
        <time>2022-07-07T06:56:49Z</time>
      </trkpt>
      <trkpt lat="46.55792" lon="5.32664">
        <ele>202.8</ele>
        <time>2022-07-07T06:56:54Z</time>
      </trkpt>
      <trkpt lat="46.55762" lon="5.32683">
        <ele>202.6</ele>
        <time>2022-07-07T06:56:58Z</time>
      </trkpt>
      <trkpt lat="46.55751" lon="5.327">
        <ele>202.6</ele>
        <time>2022-07-07T06:57:00Z</time>
      </trkpt>
      <trkpt lat="46.55747" lon="5.3271">
        <ele>202.6</ele>
        <time>2022-07-07T06:57:01Z</time>
      </trkpt>
      <trkpt lat="46.55744" lon="5.3272">
        <ele>202.8</ele>
        <time>2022-07-07T06:57:02Z</time>
      </trkpt>
      <trkpt lat="46.55734" lon="5.32763">
        <ele>202.8</ele>
        <time>2022-07-07T06:57:06Z</time>
      </trkpt>
      <trkpt lat="46.55718" lon="5.32838">
        <ele>203.2</ele>
        <time>2022-07-07T06:57:13Z</time>
      </trkpt>
      <trkpt lat="46.55705" lon="5.32914">
        <ele>203.4</ele>
        <time>2022-07-07T06:57:20Z</time>
      </trkpt>
      <trkpt lat="46.557" lon="5.32948">
        <ele>203.4</ele>
        <time>2022-07-07T06:57:23Z</time>
      </trkpt>
      <trkpt lat="46.55687" lon="5.33026">
        <ele>202.6</ele>
        <time>2022-07-07T06:57:30Z</time>
      </trkpt>
      <trkpt lat="46.55677" lon="5.33073">
        <ele>202.2</ele>
        <time>2022-07-07T06:57:34Z</time>
      </trkpt>
      <trkpt lat="46.55658" lon="5.33157">
        <ele>202</ele>
        <time>2022-07-07T06:57:42Z</time>
      </trkpt>
      <trkpt lat="46.55655" lon="5.33167">
        <ele>202</ele>
        <time>2022-07-07T06:57:43Z</time>
      </trkpt>
      <trkpt lat="46.55632" lon="5.33247">
        <ele>202.2</ele>
        <time>2022-07-07T06:57:51Z</time>
      </trkpt>
      <trkpt lat="46.55624" lon="5.33276">
        <ele>202.4</ele>
        <time>2022-07-07T06:57:54Z</time>
      </trkpt>
      <trkpt lat="46.556" lon="5.33352">
        <ele>202.4</ele>
        <time>2022-07-07T06:58:02Z</time>
      </trkpt>
      <trkpt lat="46.55594" lon="5.33409">
        <ele>202.6</ele>
        <time>2022-07-07T06:58:08Z</time>
      </trkpt>
      <trkpt lat="46.55589" lon="5.33461">
        <ele>203.2</ele>
        <time>2022-07-07T06:58:14Z</time>
      </trkpt>
      <trkpt lat="46.55583" lon="5.33485">
        <ele>203.8</ele>
        <time>2022-07-07T06:58:17Z</time>
      </trkpt>
      <trkpt lat="46.55578" lon="5.33499">
        <ele>204.2</ele>
        <time>2022-07-07T06:58:19Z</time>
      </trkpt>
      <trkpt lat="46.55574" lon="5.33505">
        <ele>204.4</ele>
        <time>2022-07-07T06:58:20Z</time>
      </trkpt>
      <trkpt lat="46.55565" lon="5.33521">
        <ele>205.2</ele>
        <time>2022-07-07T06:58:23Z</time>
      </trkpt>
      <trkpt lat="46.55562" lon="5.33525">
        <ele>205.4</ele>
        <time>2022-07-07T06:58:24Z</time>
      </trkpt>
      <trkpt lat="46.55546" lon="5.33546">
        <ele>206.2</ele>
        <time>2022-07-07T06:58:28Z</time>
      </trkpt>
      <trkpt lat="46.5553" lon="5.33568">
        <ele>207.2</ele>
        <time>2022-07-07T06:58:32Z</time>
      </trkpt>
      <trkpt lat="46.55526" lon="5.33573">
        <ele>207.4</ele>
        <time>2022-07-07T06:58:33Z</time>
      </trkpt>
      <trkpt lat="46.55504" lon="5.33604">
        <ele>208.6</ele>
        <time>2022-07-07T06:58:39Z</time>
      </trkpt>
      <trkpt lat="46.55485" lon="5.3363">
        <ele>209.8</ele>
        <time>2022-07-07T06:58:44Z</time>
      </trkpt>
      <trkpt lat="46.55473" lon="5.33647">
        <ele>210.2</ele>
        <time>2022-07-07T06:58:47Z</time>
      </trkpt>
      <trkpt lat="46.55446" lon="5.33684">
        <ele>210.8</ele>
        <time>2022-07-07T06:58:54Z</time>
      </trkpt>
      <trkpt lat="46.55442" lon="5.33689">
        <ele>211</ele>
        <time>2022-07-07T06:58:55Z</time>
      </trkpt>
      <trkpt lat="46.55405" lon="5.33738">
        <ele>211.2</ele>
        <time>2022-07-07T06:59:04Z</time>
      </trkpt>
      <trkpt lat="46.55367" lon="5.33767">
        <ele>211.8</ele>
        <time>2022-07-07T06:59:12Z</time>
      </trkpt>
      <trkpt lat="46.55361" lon="5.3377">
        <ele>211.8</ele>
        <time>2022-07-07T06:59:16Z</time>
      </trkpt>
      <trkpt lat="46.55361" lon="5.3377">
        <ele>211.8</ele>
        <time>2022-07-07T06:59:17Z</time>
      </trkpt>
      <trkpt lat="46.55359" lon="5.33773">
        <ele>211</ele>
        <time>2022-07-07T07:00:07Z</time>
      </trkpt>
      <trkpt lat="46.55353" lon="5.33779">
        <ele>211</ele>
        <time>2022-07-07T07:00:09Z</time>
      </trkpt>
      <trkpt lat="46.55345" lon="5.33786">
        <ele>211</ele>
        <time>2022-07-07T07:00:11Z</time>
      </trkpt>
      <trkpt lat="46.55333" lon="5.338">
        <ele>211</ele>
        <time>2022-07-07T07:00:13Z</time>
      </trkpt>
      <trkpt lat="46.55299" lon="5.33837">
        <ele>211.4</ele>
        <time>2022-07-07T07:00:20Z</time>
      </trkpt>
      <trkpt lat="46.55289" lon="5.3385">
        <ele>211.4</ele>
        <time>2022-07-07T07:00:22Z</time>
      </trkpt>
      <trkpt lat="46.55273" lon="5.33877">
        <ele>212</ele>
        <time>2022-07-07T07:00:26Z</time>
      </trkpt>
      <trkpt lat="46.55257" lon="5.33907">
        <ele>212.6</ele>
        <time>2022-07-07T07:00:30Z</time>
      </trkpt>
      <trkpt lat="46.55239" lon="5.33935">
        <ele>212.6</ele>
        <time>2022-07-07T07:00:34Z</time>
      </trkpt>
      <trkpt lat="46.55204" lon="5.33981">
        <ele>212.6</ele>
        <time>2022-07-07T07:00:41Z</time>
      </trkpt>
      <trkpt lat="46.55187" lon="5.34002">
        <ele>212.4</ele>
        <time>2022-07-07T07:00:45Z</time>
      </trkpt>
      <trkpt lat="46.55186" lon="5.34006">
        <ele>212.4</ele>
        <time>2022-07-07T07:00:46Z</time>
      </trkpt>
      <trkpt lat="46.55183" lon="5.34024">
        <ele>212.2</ele>
        <time>2022-07-07T07:00:49Z</time>
      </trkpt>
      <trkpt lat="46.55183" lon="5.34032">
        <ele>212.2</ele>
        <time>2022-07-07T07:00:50Z</time>
      </trkpt>
      <trkpt lat="46.55183" lon="5.34039">
        <ele>212.2</ele>
        <time>2022-07-07T07:00:51Z</time>
      </trkpt>
      <trkpt lat="46.5518" lon="5.34052">
        <ele>212.2</ele>
        <time>2022-07-07T07:00:53Z</time>
      </trkpt>
      <trkpt lat="46.55177" lon="5.34059">
        <ele>212.2</ele>
        <time>2022-07-07T07:00:54Z</time>
      </trkpt>
      <trkpt lat="46.55159" lon="5.34084">
        <ele>213</ele>
        <time>2022-07-07T07:00:58Z</time>
      </trkpt>
      <trkpt lat="46.5513" lon="5.3412">
        <ele>213.6</ele>
        <time>2022-07-07T07:01:03Z</time>
      </trkpt>
      <trkpt lat="46.55089" lon="5.3417">
        <ele>214</ele>
        <time>2022-07-07T07:01:10Z</time>
      </trkpt>
      <trkpt lat="46.55041" lon="5.34219">
        <ele>214.6</ele>
        <time>2022-07-07T07:01:18Z</time>
      </trkpt>
      <trkpt lat="46.55035" lon="5.34226">
        <ele>214.6</ele>
        <time>2022-07-07T07:01:19Z</time>
      </trkpt>
      <trkpt lat="46.5503" lon="5.34232">
        <ele>214.6</ele>
        <time>2022-07-07T07:01:20Z</time>
      </trkpt>
      <trkpt lat="46.54987" lon="5.34288">
        <ele>214.8</ele>
        <time>2022-07-07T07:01:28Z</time>
      </trkpt>
      <trkpt lat="46.54977" lon="5.34301">
        <ele>214.6</ele>
        <time>2022-07-07T07:01:30Z</time>
      </trkpt>
      <trkpt lat="46.5494" lon="5.34342">
        <ele>214.8</ele>
        <time>2022-07-07T07:01:37Z</time>
      </trkpt>
      <trkpt lat="46.54895" lon="5.34383">
        <ele>215.4</ele>
        <time>2022-07-07T07:01:45Z</time>
      </trkpt>
      <trkpt lat="46.54862" lon="5.34409">
        <ele>215.6</ele>
        <time>2022-07-07T07:01:50Z</time>
      </trkpt>
      <trkpt lat="46.54815" lon="5.34435">
        <ele>215.2</ele>
        <time>2022-07-07T07:01:56Z</time>
      </trkpt>
      <trkpt lat="46.54767" lon="5.34455">
        <ele>214.8</ele>
        <time>2022-07-07T07:02:02Z</time>
      </trkpt>
      <trkpt lat="46.54722" lon="5.34466">
        <ele>214.4</ele>
        <time>2022-07-07T07:02:08Z</time>
      </trkpt>
      <trkpt lat="46.54688" lon="5.34477">
        <ele>214.6</ele>
        <time>2022-07-07T07:02:13Z</time>
      </trkpt>
      <trkpt lat="46.54681" lon="5.34481">
        <ele>214.6</ele>
        <time>2022-07-07T07:02:14Z</time>
      </trkpt>
      <trkpt lat="46.54632" lon="5.34519">
        <ele>215</ele>
        <time>2022-07-07T07:02:21Z</time>
      </trkpt>
      <trkpt lat="46.54581" lon="5.34563">
        <ele>214.6</ele>
        <time>2022-07-07T07:02:29Z</time>
      </trkpt>
      <trkpt lat="46.54573" lon="5.34569">
        <ele>214.4</ele>
        <time>2022-07-07T07:02:30Z</time>
      </trkpt>
      <trkpt lat="46.54541" lon="5.34598">
        <ele>213.2</ele>
        <time>2022-07-07T07:02:34Z</time>
      </trkpt>
      <trkpt lat="46.54522" lon="5.34616">
        <ele>212</ele>
        <time>2022-07-07T07:02:36Z</time>
      </trkpt>
      <trkpt lat="46.54515" lon="5.34626">
        <ele>211.4</ele>
        <time>2022-07-07T07:02:37Z</time>
      </trkpt>
      <trkpt lat="46.54508" lon="5.34636">
        <ele>211</ele>
        <time>2022-07-07T07:02:38Z</time>
      </trkpt>
      <trkpt lat="46.54502" lon="5.34646">
        <ele>210.6</ele>
        <time>2022-07-07T07:02:39Z</time>
      </trkpt>
      <trkpt lat="46.54483" lon="5.34674">
        <ele>209.6</ele>
        <time>2022-07-07T07:02:42Z</time>
      </trkpt>
      <trkpt lat="46.54475" lon="5.34682">
        <ele>209.4</ele>
        <time>2022-07-07T07:02:43Z</time>
      </trkpt>
      <trkpt lat="46.54468" lon="5.34688">
        <ele>209.2</ele>
        <time>2022-07-07T07:02:44Z</time>
      </trkpt>
      <trkpt lat="46.54444" lon="5.34703">
        <ele>208.6</ele>
        <time>2022-07-07T07:02:47Z</time>
      </trkpt>
      <trkpt lat="46.54436" lon="5.34708">
        <ele>208.4</ele>
        <time>2022-07-07T07:02:48Z</time>
      </trkpt>
      <trkpt lat="46.54389" lon="5.34733">
        <ele>208.2</ele>
        <time>2022-07-07T07:02:54Z</time>
      </trkpt>
      <trkpt lat="46.5434" lon="5.34748">
        <ele>208.2</ele>
        <time>2022-07-07T07:03:00Z</time>
      </trkpt>
      <trkpt lat="46.54332" lon="5.34753">
        <ele>208.2</ele>
        <time>2022-07-07T07:03:01Z</time>
      </trkpt>
      <trkpt lat="46.54296" lon="5.34788">
        <ele>207.8</ele>
        <time>2022-07-07T07:03:06Z</time>
      </trkpt>
      <trkpt lat="46.54257" lon="5.34834">
        <ele>207.6</ele>
        <time>2022-07-07T07:03:12Z</time>
      </trkpt>
      <trkpt lat="46.54238" lon="5.34868">
        <ele>207.4</ele>
        <time>2022-07-07T07:03:16Z</time>
      </trkpt>
      <trkpt lat="46.54233" lon="5.34877">
        <ele>207.2</ele>
        <time>2022-07-07T07:03:17Z</time>
      </trkpt>
      <trkpt lat="46.54228" lon="5.34885">
        <ele>207.4</ele>
        <time>2022-07-07T07:03:18Z</time>
      </trkpt>
      <trkpt lat="46.54216" lon="5.34898">
        <ele>207.4</ele>
        <time>2022-07-07T07:03:20Z</time>
      </trkpt>
      <trkpt lat="46.54168" lon="5.34946">
        <ele>208.2</ele>
        <time>2022-07-07T07:03:28Z</time>
      </trkpt>
      <trkpt lat="46.54163" lon="5.34953">
        <ele>208.4</ele>
        <time>2022-07-07T07:03:29Z</time>
      </trkpt>
      <trkpt lat="46.54143" lon="5.34978">
        <ele>208.8</ele>
        <time>2022-07-07T07:03:33Z</time>
      </trkpt>
      <trkpt lat="46.54131" lon="5.34987">
        <ele>209</ele>
        <time>2022-07-07T07:03:35Z</time>
      </trkpt>
      <trkpt lat="46.5412" lon="5.34994">
        <ele>209.4</ele>
        <time>2022-07-07T07:03:37Z</time>
      </trkpt>
      <trkpt lat="46.54079" lon="5.35012">
        <ele>210.4</ele>
        <time>2022-07-07T07:03:43Z</time>
      </trkpt>
      <trkpt lat="46.54048" lon="5.35027">
        <ele>211.2</ele>
        <time>2022-07-07T07:03:49Z</time>
      </trkpt>
      <trkpt lat="46.54042" lon="5.3503">
        <ele>211.6</ele>
        <time>2022-07-07T07:03:50Z</time>
      </trkpt>
      <trkpt lat="46.54032" lon="5.35038">
        <ele>212</ele>
        <time>2022-07-07T07:03:52Z</time>
      </trkpt>
      <trkpt lat="46.54016" lon="5.3505">
        <ele>212.8</ele>
        <time>2022-07-07T07:03:55Z</time>
      </trkpt>
      <trkpt lat="46.54002" lon="5.35065">
        <ele>213.6</ele>
        <time>2022-07-07T07:03:58Z</time>
      </trkpt>
      <trkpt lat="46.53997" lon="5.35071">
        <ele>213.8</ele>
        <time>2022-07-07T07:03:59Z</time>
      </trkpt>
      <trkpt lat="46.53964" lon="5.35111">
        <ele>214.6</ele>
        <time>2022-07-07T07:04:06Z</time>
      </trkpt>
      <trkpt lat="46.53959" lon="5.35117">
        <ele>214.8</ele>
        <time>2022-07-07T07:04:07Z</time>
      </trkpt>
      <trkpt lat="46.53922" lon="5.35152">
        <ele>215.2</ele>
        <time>2022-07-07T07:04:14Z</time>
      </trkpt>
      <trkpt lat="46.53875" lon="5.35186">
        <ele>215.8</ele>
        <time>2022-07-07T07:04:22Z</time>
      </trkpt>
      <trkpt lat="46.53869" lon="5.3519">
        <ele>216</ele>
        <time>2022-07-07T07:04:23Z</time>
      </trkpt>
      <trkpt lat="46.53824" lon="5.35221">
        <ele>216.6</ele>
        <time>2022-07-07T07:04:31Z</time>
      </trkpt>
      <trkpt lat="46.53813" lon="5.35229">
        <ele>217</ele>
        <time>2022-07-07T07:04:33Z</time>
      </trkpt>
      <trkpt lat="46.53808" lon="5.35234">
        <ele>217</ele>
        <time>2022-07-07T07:04:34Z</time>
      </trkpt>
      <trkpt lat="46.53793" lon="5.35251">
        <ele>217.4</ele>
        <time>2022-07-07T07:04:37Z</time>
      </trkpt>
      <trkpt lat="46.53759" lon="5.353">
        <ele>218</ele>
        <time>2022-07-07T07:04:45Z</time>
      </trkpt>
      <trkpt lat="46.53748" lon="5.35321">
        <ele>218</ele>
        <time>2022-07-07T07:04:47Z</time>
      </trkpt>
      <trkpt lat="46.53741" lon="5.3534">
        <ele>218.2</ele>
        <time>2022-07-07T07:04:49Z</time>
      </trkpt>
      <trkpt lat="46.5373" lon="5.35396">
        <ele>217.6</ele>
        <time>2022-07-07T07:04:54Z</time>
      </trkpt>
      <trkpt lat="46.53727" lon="5.35421">
        <ele>217</ele>
        <time>2022-07-07T07:04:56Z</time>
      </trkpt>
      <trkpt lat="46.53724" lon="5.35459">
        <ele>215.8</ele>
        <time>2022-07-07T07:04:59Z</time>
      </trkpt>
      <trkpt lat="46.53724" lon="5.35472">
        <ele>215.2</ele>
        <time>2022-07-07T07:05:00Z</time>
      </trkpt>
      <trkpt lat="46.53725" lon="5.35496">
        <ele>214.6</ele>
        <time>2022-07-07T07:05:02Z</time>
      </trkpt>
      <trkpt lat="46.53734" lon="5.35545">
        <ele>213.8</ele>
        <time>2022-07-07T07:05:06Z</time>
      </trkpt>
      <trkpt lat="46.53743" lon="5.35579">
        <ele>213.6</ele>
        <time>2022-07-07T07:05:09Z</time>
      </trkpt>
      <trkpt lat="46.53754" lon="5.35621">
        <ele>213</ele>
        <time>2022-07-07T07:05:13Z</time>
      </trkpt>
      <trkpt lat="46.53755" lon="5.35643">
        <ele>213</ele>
        <time>2022-07-07T07:05:15Z</time>
      </trkpt>
      <trkpt lat="46.53753" lon="5.35666">
        <ele>213</ele>
        <time>2022-07-07T07:05:17Z</time>
      </trkpt>
      <trkpt lat="46.53746" lon="5.3571">
        <ele>212.8</ele>
        <time>2022-07-07T07:05:21Z</time>
      </trkpt>
      <trkpt lat="46.53743" lon="5.3572">
        <ele>212.8</ele>
        <time>2022-07-07T07:05:22Z</time>
      </trkpt>
      <trkpt lat="46.53714" lon="5.35785">
        <ele>212.8</ele>
        <time>2022-07-07T07:05:29Z</time>
      </trkpt>
      <trkpt lat="46.53675" lon="5.35841">
        <ele>213.4</ele>
        <time>2022-07-07T07:05:37Z</time>
      </trkpt>
      <trkpt lat="46.53648" lon="5.35877">
        <ele>215</ele>
        <time>2022-07-07T07:05:43Z</time>
      </trkpt>
      <trkpt lat="46.53643" lon="5.3588">
        <ele>215.6</ele>
        <time>2022-07-07T07:05:46Z</time>
      </trkpt>
      <trkpt lat="46.53636" lon="5.35882">
        <ele>216</ele>
        <time>2022-07-07T07:05:47Z</time>
      </trkpt>
      <trkpt lat="46.5363" lon="5.3588">
        <ele>216.4</ele>
        <time>2022-07-07T07:05:48Z</time>
      </trkpt>
      <trkpt lat="46.53613" lon="5.35873">
        <ele>217.6</ele>
        <time>2022-07-07T07:05:51Z</time>
      </trkpt>
      <trkpt lat="46.53596" lon="5.35867">
        <ele>218.8</ele>
        <time>2022-07-07T07:05:54Z</time>
      </trkpt>
      <trkpt lat="46.53583" lon="5.35862">
        <ele>219</ele>
        <time>2022-07-07T07:05:56Z</time>
      </trkpt>
      <trkpt lat="46.53559" lon="5.35855">
        <ele>219.8</ele>
        <time>2022-07-07T07:06:00Z</time>
      </trkpt>
      <trkpt lat="46.53534" lon="5.35849">
        <ele>220.4</ele>
        <time>2022-07-07T07:06:04Z</time>
      </trkpt>
      <trkpt lat="46.53508" lon="5.35847">
        <ele>220.8</ele>
        <time>2022-07-07T07:06:08Z</time>
      </trkpt>
      <trkpt lat="46.53496" lon="5.35849">
        <ele>220.8</ele>
        <time>2022-07-07T07:06:10Z</time>
      </trkpt>
      <trkpt lat="46.53471" lon="5.35863">
        <ele>221</ele>
        <time>2022-07-07T07:06:14Z</time>
      </trkpt>
      <trkpt lat="46.53464" lon="5.35865">
        <ele>221</ele>
        <time>2022-07-07T07:06:15Z</time>
      </trkpt>
      <trkpt lat="46.53458" lon="5.35867">
        <ele>221</ele>
        <time>2022-07-07T07:06:16Z</time>
      </trkpt>
      <trkpt lat="46.53442" lon="5.35867">
        <ele>220.8</ele>
        <time>2022-07-07T07:06:18Z</time>
      </trkpt>
      <trkpt lat="46.53434" lon="5.35866">
        <ele>220.6</ele>
        <time>2022-07-07T07:06:19Z</time>
      </trkpt>
      <trkpt lat="46.53391" lon="5.35862">
        <ele>219.8</ele>
        <time>2022-07-07T07:06:24Z</time>
      </trkpt>
      <trkpt lat="46.53377" lon="5.3586">
        <ele>219.4</ele>
        <time>2022-07-07T07:06:26Z</time>
      </trkpt>
      <trkpt lat="46.5336" lon="5.3586">
        <ele>218.8</ele>
        <time>2022-07-07T07:06:28Z</time>
      </trkpt>
      <trkpt lat="46.53333" lon="5.35865">
        <ele>217.6</ele>
        <time>2022-07-07T07:06:31Z</time>
      </trkpt>
      <trkpt lat="46.533" lon="5.35878">
        <ele>216.6</ele>
        <time>2022-07-07T07:06:35Z</time>
      </trkpt>
      <trkpt lat="46.53274" lon="5.3589">
        <ele>216</ele>
        <time>2022-07-07T07:06:38Z</time>
      </trkpt>
      <trkpt lat="46.53234" lon="5.35909">
        <ele>215.4</ele>
        <time>2022-07-07T07:06:43Z</time>
      </trkpt>
      <trkpt lat="46.5321" lon="5.35917">
        <ele>215.2</ele>
        <time>2022-07-07T07:06:46Z</time>
      </trkpt>
      <trkpt lat="46.53187" lon="5.35929">
        <ele>215.2</ele>
        <time>2022-07-07T07:06:49Z</time>
      </trkpt>
      <trkpt lat="46.53181" lon="5.35935">
        <ele>215.2</ele>
        <time>2022-07-07T07:06:50Z</time>
      </trkpt>
      <trkpt lat="46.53177" lon="5.35941">
        <ele>215.2</ele>
        <time>2022-07-07T07:06:51Z</time>
      </trkpt>
      <trkpt lat="46.53162" lon="5.3597">
        <ele>215.2</ele>
        <time>2022-07-07T07:06:54Z</time>
      </trkpt>
      <trkpt lat="46.53127" lon="5.36033">
        <ele>214.6</ele>
        <time>2022-07-07T07:07:01Z</time>
      </trkpt>
      <trkpt lat="46.53122" lon="5.36041">
        <ele>214.4</ele>
        <time>2022-07-07T07:07:02Z</time>
      </trkpt>
      <trkpt lat="46.53111" lon="5.3606">
        <ele>214</ele>
        <time>2022-07-07T07:07:04Z</time>
      </trkpt>
      <trkpt lat="46.53098" lon="5.36089">
        <ele>213.6</ele>
        <time>2022-07-07T07:07:07Z</time>
      </trkpt>
      <trkpt lat="46.53093" lon="5.36099">
        <ele>213.2</ele>
        <time>2022-07-07T07:07:08Z</time>
      </trkpt>
      <trkpt lat="46.53087" lon="5.36108">
        <ele>213</ele>
        <time>2022-07-07T07:07:09Z</time>
      </trkpt>
      <trkpt lat="46.53074" lon="5.36123">
        <ele>212.6</ele>
        <time>2022-07-07T07:07:11Z</time>
      </trkpt>
      <trkpt lat="46.53057" lon="5.36137">
        <ele>212.2</ele>
        <time>2022-07-07T07:07:13Z</time>
      </trkpt>
      <trkpt lat="46.53047" lon="5.36142">
        <ele>211.4</ele>
        <time>2022-07-07T07:07:15Z</time>
      </trkpt>
      <trkpt lat="46.5304" lon="5.36143">
        <ele>211</ele>
        <time>2022-07-07T07:07:16Z</time>
      </trkpt>
      <trkpt lat="46.53019" lon="5.36143">
        <ele>210.4</ele>
        <time>2022-07-07T07:07:18Z</time>
      </trkpt>
      <trkpt lat="46.53002" lon="5.3614">
        <ele>209.8</ele>
        <time>2022-07-07T07:07:20Z</time>
      </trkpt>
      <trkpt lat="46.52995" lon="5.36139">
        <ele>209.6</ele>
        <time>2022-07-07T07:07:21Z</time>
      </trkpt>
      <trkpt lat="46.52978" lon="5.3613">
        <ele>209.2</ele>
        <time>2022-07-07T07:07:23Z</time>
      </trkpt>
      <trkpt lat="46.52971" lon="5.36123">
        <ele>208.6</ele>
        <time>2022-07-07T07:07:24Z</time>
      </trkpt>
      <trkpt lat="46.52965" lon="5.36113">
        <ele>208.4</ele>
        <time>2022-07-07T07:07:25Z</time>
      </trkpt>
      <trkpt lat="46.5296" lon="5.36103">
        <ele>208.2</ele>
        <time>2022-07-07T07:07:26Z</time>
      </trkpt>
      <trkpt lat="46.52954" lon="5.36093">
        <ele>208.2</ele>
        <time>2022-07-07T07:07:27Z</time>
      </trkpt>
      <trkpt lat="46.52946" lon="5.36083">
        <ele>207.6</ele>
        <time>2022-07-07T07:07:28Z</time>
      </trkpt>
      <trkpt lat="46.52938" lon="5.36077">
        <ele>207.2</ele>
        <time>2022-07-07T07:07:29Z</time>
      </trkpt>
      <trkpt lat="46.52931" lon="5.36074">
        <ele>207.2</ele>
        <time>2022-07-07T07:07:30Z</time>
      </trkpt>
      <trkpt lat="46.52914" lon="5.36069">
        <ele>206.2</ele>
        <time>2022-07-07T07:07:32Z</time>
      </trkpt>
      <trkpt lat="46.52903" lon="5.36067">
        <ele>205.6</ele>
        <time>2022-07-07T07:07:33Z</time>
      </trkpt>
      <trkpt lat="46.52885" lon="5.36065">
        <ele>205</ele>
        <time>2022-07-07T07:07:35Z</time>
      </trkpt>
      <trkpt lat="46.52863" lon="5.36062">
        <ele>204</ele>
        <time>2022-07-07T07:07:38Z</time>
      </trkpt>
      <trkpt lat="46.5285" lon="5.36061">
        <ele>203.6</ele>
        <time>2022-07-07T07:07:40Z</time>
      </trkpt>
      <trkpt lat="46.5284" lon="5.3606">
        <ele>203.2</ele>
        <time>2022-07-07T07:07:42Z</time>
      </trkpt>
      <trkpt lat="46.52838" lon="5.36059">
        <ele>203</ele>
        <time>2022-07-07T07:07:43Z</time>
      </trkpt>
      <trkpt lat="46.52836" lon="5.36058">
        <ele>202.8</ele>
        <time>2022-07-07T07:07:44Z</time>
      </trkpt>
      <trkpt lat="46.52833" lon="5.36057">
        <ele>202.6</ele>
        <time>2022-07-07T07:07:45Z</time>
      </trkpt>
      <trkpt lat="46.52827" lon="5.36058">
        <ele>202.2</ele>
        <time>2022-07-07T07:07:47Z</time>
      </trkpt>
      <trkpt lat="46.52822" lon="5.36057">
        <ele>202.2</ele>
        <time>2022-07-07T07:07:48Z</time>
      </trkpt>
      <trkpt lat="46.52805" lon="5.36052">
        <ele>201.8</ele>
        <time>2022-07-07T07:07:51Z</time>
      </trkpt>
      <trkpt lat="46.52798" lon="5.3605">
        <ele>201.6</ele>
        <time>2022-07-07T07:07:52Z</time>
      </trkpt>
      <trkpt lat="46.52775" lon="5.36044">
        <ele>201.2</ele>
        <time>2022-07-07T07:07:55Z</time>
      </trkpt>
      <trkpt lat="46.5276" lon="5.36048">
        <ele>200.4</ele>
        <time>2022-07-07T07:07:57Z</time>
      </trkpt>
      <trkpt lat="46.52755" lon="5.36055">
        <ele>200</ele>
        <time>2022-07-07T07:07:58Z</time>
      </trkpt>
      <trkpt lat="46.5275" lon="5.36064">
        <ele>199.8</ele>
        <time>2022-07-07T07:07:59Z</time>
      </trkpt>
      <trkpt lat="46.5274" lon="5.36094">
        <ele>199.6</ele>
        <time>2022-07-07T07:08:02Z</time>
      </trkpt>
      <trkpt lat="46.5273" lon="5.36126">
        <ele>199.2</ele>
        <time>2022-07-07T07:08:05Z</time>
      </trkpt>
      <trkpt lat="46.52726" lon="5.36136">
        <ele>198.8</ele>
        <time>2022-07-07T07:08:06Z</time>
      </trkpt>
      <trkpt lat="46.52711" lon="5.36188">
        <ele>198.4</ele>
        <time>2022-07-07T07:08:11Z</time>
      </trkpt>
      <trkpt lat="46.52699" lon="5.36211">
        <ele>198</ele>
        <time>2022-07-07T07:08:13Z</time>
      </trkpt>
      <trkpt lat="46.52687" lon="5.36224">
        <ele>197.4</ele>
        <time>2022-07-07T07:08:15Z</time>
      </trkpt>
      <trkpt lat="46.52678" lon="5.36232">
        <ele>196.8</ele>
        <time>2022-07-07T07:08:17Z</time>
      </trkpt>
      <trkpt lat="46.52653" lon="5.3625">
        <ele>196</ele>
        <time>2022-07-07T07:08:21Z</time>
      </trkpt>
      <trkpt lat="46.52646" lon="5.36254">
        <ele>195.8</ele>
        <time>2022-07-07T07:08:22Z</time>
      </trkpt>
      <trkpt lat="46.52608" lon="5.36279">
        <ele>195.6</ele>
        <time>2022-07-07T07:08:28Z</time>
      </trkpt>
      <trkpt lat="46.52601" lon="5.36284">
        <ele>196</ele>
        <time>2022-07-07T07:08:29Z</time>
      </trkpt>
      <trkpt lat="46.52579" lon="5.36309">
        <ele>196.8</ele>
        <time>2022-07-07T07:08:33Z</time>
      </trkpt>
      <trkpt lat="46.52565" lon="5.36319">
        <ele>197</ele>
        <time>2022-07-07T07:08:35Z</time>
      </trkpt>
      <trkpt lat="46.52559" lon="5.3632">
        <ele>197.2</ele>
        <time>2022-07-07T07:08:36Z</time>
      </trkpt>
      <trkpt lat="46.52546" lon="5.36317">
        <ele>197.4</ele>
        <time>2022-07-07T07:08:38Z</time>
      </trkpt>
      <trkpt lat="46.52531" lon="5.3632">
        <ele>197.4</ele>
        <time>2022-07-07T07:08:40Z</time>
      </trkpt>
      <trkpt lat="46.52519" lon="5.36329">
        <ele>197.4</ele>
        <time>2022-07-07T07:08:42Z</time>
      </trkpt>
      <trkpt lat="46.52507" lon="5.36342">
        <ele>197.4</ele>
        <time>2022-07-07T07:08:44Z</time>
      </trkpt>
      <trkpt lat="46.52501" lon="5.36357">
        <ele>197.4</ele>
        <time>2022-07-07T07:08:46Z</time>
      </trkpt>
      <trkpt lat="46.52498" lon="5.36366">
        <ele>197.2</ele>
        <time>2022-07-07T07:08:47Z</time>
      </trkpt>
      <trkpt lat="46.52489" lon="5.36424">
        <ele>197.2</ele>
        <time>2022-07-07T07:08:53Z</time>
      </trkpt>
      <trkpt lat="46.52482" lon="5.36491">
        <ele>197.8</ele>
        <time>2022-07-07T07:09:00Z</time>
      </trkpt>
      <trkpt lat="46.52477" lon="5.36528">
        <ele>198</ele>
        <time>2022-07-07T07:09:04Z</time>
      </trkpt>
      <trkpt lat="46.52474" lon="5.36573">
        <ele>198.6</ele>
        <time>2022-07-07T07:09:09Z</time>
      </trkpt>
      <trkpt lat="46.5247" lon="5.36657">
        <ele>198.8</ele>
        <time>2022-07-07T07:09:18Z</time>
      </trkpt>
      <trkpt lat="46.52469" lon="5.36665">
        <ele>198.8</ele>
        <time>2022-07-07T07:09:19Z</time>
      </trkpt>
      <trkpt lat="46.52466" lon="5.36721">
        <ele>199.2</ele>
        <time>2022-07-07T07:09:25Z</time>
      </trkpt>
      <trkpt lat="46.52465" lon="5.36747">
        <ele>199.2</ele>
        <time>2022-07-07T07:09:28Z</time>
      </trkpt>
      <trkpt lat="46.5246" lon="5.36834">
        <ele>199.4</ele>
        <time>2022-07-07T07:09:37Z</time>
      </trkpt>
      <trkpt lat="46.52448" lon="5.36916">
        <ele>199.4</ele>
        <time>2022-07-07T07:09:45Z</time>
      </trkpt>
      <trkpt lat="46.52434" lon="5.36993">
        <ele>200</ele>
        <time>2022-07-07T07:09:53Z</time>
      </trkpt>
      <trkpt lat="46.52431" lon="5.37001">
        <ele>200.2</ele>
        <time>2022-07-07T07:09:54Z</time>
      </trkpt>
      <trkpt lat="46.52411" lon="5.3704">
        <ele>200.4</ele>
        <time>2022-07-07T07:09:59Z</time>
      </trkpt>
      <trkpt lat="46.52376" lon="5.37089">
        <ele>200.6</ele>
        <time>2022-07-07T07:10:06Z</time>
      </trkpt>
      <trkpt lat="46.52356" lon="5.3711">
        <ele>201</ele>
        <time>2022-07-07T07:10:10Z</time>
      </trkpt>
      <trkpt lat="46.5233" lon="5.37136">
        <ele>201.4</ele>
        <time>2022-07-07T07:10:15Z</time>
      </trkpt>
      <trkpt lat="46.52315" lon="5.37151">
        <ele>202.2</ele>
        <time>2022-07-07T07:10:19Z</time>
      </trkpt>
      <trkpt lat="46.523" lon="5.37167">
        <ele>203.2</ele>
        <time>2022-07-07T07:10:23Z</time>
      </trkpt>
      <trkpt lat="46.52296" lon="5.37172">
        <ele>203.8</ele>
        <time>2022-07-07T07:10:24Z</time>
      </trkpt>
      <trkpt lat="46.52281" lon="5.37188">
        <ele>204.8</ele>
        <time>2022-07-07T07:10:28Z</time>
      </trkpt>
      <trkpt lat="46.52269" lon="5.37201">
        <ele>205.2</ele>
        <time>2022-07-07T07:10:31Z</time>
      </trkpt>
      <trkpt lat="46.52257" lon="5.37213">
        <ele>205.8</ele>
        <time>2022-07-07T07:10:34Z</time>
      </trkpt>
      <trkpt lat="46.52233" lon="5.37236">
        <ele>206.8</ele>
        <time>2022-07-07T07:10:40Z</time>
      </trkpt>
      <trkpt lat="46.52229" lon="5.3724">
        <ele>207</ele>
        <time>2022-07-07T07:10:41Z</time>
      </trkpt>
      <trkpt lat="46.52208" lon="5.37257">
        <ele>208</ele>
        <time>2022-07-07T07:10:46Z</time>
      </trkpt>
      <trkpt lat="46.52195" lon="5.37268">
        <ele>208.6</ele>
        <time>2022-07-07T07:10:49Z</time>
      </trkpt>
      <trkpt lat="46.52184" lon="5.37276">
        <ele>209.2</ele>
        <time>2022-07-07T07:10:52Z</time>
      </trkpt>
      <trkpt lat="46.52159" lon="5.37292">
        <ele>210.4</ele>
        <time>2022-07-07T07:10:58Z</time>
      </trkpt>
      <trkpt lat="46.52156" lon="5.37295">
        <ele>210.4</ele>
        <time>2022-07-07T07:10:59Z</time>
      </trkpt>
      <trkpt lat="46.5214" lon="5.37307">
        <ele>211.6</ele>
        <time>2022-07-07T07:11:03Z</time>
      </trkpt>
      <trkpt lat="46.52129" lon="5.37316">
        <ele>212.4</ele>
        <time>2022-07-07T07:11:06Z</time>
      </trkpt>
      <trkpt lat="46.52121" lon="5.37322">
        <ele>213</ele>
        <time>2022-07-07T07:11:08Z</time>
      </trkpt>
      <trkpt lat="46.52102" lon="5.37337">
        <ele>214.2</ele>
        <time>2022-07-07T07:11:12Z</time>
      </trkpt>
      <trkpt lat="46.521" lon="5.37338">
        <ele>214</ele>
        <time>2022-07-07T07:11:13Z</time>
      </trkpt>
      <trkpt lat="46.52093" lon="5.37346">
        <ele>214.4</ele>
        <time>2022-07-07T07:11:15Z</time>
      </trkpt>
      <trkpt lat="46.52089" lon="5.37353">
        <ele>215</ele>
        <time>2022-07-07T07:11:17Z</time>
      </trkpt>
      <trkpt lat="46.52085" lon="5.37359">
        <ele>215.4</ele>
        <time>2022-07-07T07:11:18Z</time>
      </trkpt>
      <trkpt lat="46.5208" lon="5.37371">
        <ele>215.6</ele>
        <time>2022-07-07T07:11:20Z</time>
      </trkpt>
      <trkpt lat="46.52078" lon="5.37376">
        <ele>215.8</ele>
        <time>2022-07-07T07:11:21Z</time>
      </trkpt>
      <trkpt lat="46.52077" lon="5.37383">
        <ele>216.2</ele>
        <time>2022-07-07T07:11:22Z</time>
      </trkpt>
      <trkpt lat="46.5207" lon="5.37411">
        <ele>216.8</ele>
        <time>2022-07-07T07:11:26Z</time>
      </trkpt>
      <trkpt lat="46.52068" lon="5.37419">
        <ele>216.8</ele>
        <time>2022-07-07T07:11:27Z</time>
      </trkpt>
      <trkpt lat="46.52061" lon="5.3745">
        <ele>217.6</ele>
        <time>2022-07-07T07:11:31Z</time>
      </trkpt>
      <trkpt lat="46.52055" lon="5.37476">
        <ele>218</ele>
        <time>2022-07-07T07:11:34Z</time>
      </trkpt>
      <trkpt lat="46.52041" lon="5.37539">
        <ele>218</ele>
        <time>2022-07-07T07:11:41Z</time>
      </trkpt>
      <trkpt lat="46.52024" lon="5.3761">
        <ele>217.8</ele>
        <time>2022-07-07T07:11:49Z</time>
      </trkpt>
      <trkpt lat="46.52021" lon="5.37618">
        <ele>217.8</ele>
        <time>2022-07-07T07:11:50Z</time>
      </trkpt>
      <trkpt lat="46.52016" lon="5.37624">
        <ele>218</ele>
        <time>2022-07-07T07:11:51Z</time>
      </trkpt>
      <trkpt lat="46.52005" lon="5.37629">
        <ele>218.4</ele>
        <time>2022-07-07T07:11:53Z</time>
      </trkpt>
      <trkpt lat="46.51986" lon="5.37631">
        <ele>218.6</ele>
        <time>2022-07-07T07:11:56Z</time>
      </trkpt>
      <trkpt lat="46.51957" lon="5.37636">
        <ele>218.6</ele>
        <time>2022-07-07T07:12:00Z</time>
      </trkpt>
      <trkpt lat="46.51903" lon="5.37645">
        <ele>218.6</ele>
        <time>2022-07-07T07:12:08Z</time>
      </trkpt>
      <trkpt lat="46.51848" lon="5.37646">
        <ele>219.2</ele>
        <time>2022-07-07T07:12:16Z</time>
      </trkpt>
      <trkpt lat="46.51798" lon="5.37648">
        <ele>219.2</ele>
        <time>2022-07-07T07:12:23Z</time>
      </trkpt>
      <trkpt lat="46.51758" lon="5.37641">
        <ele>218.4</ele>
        <time>2022-07-07T07:12:28Z</time>
      </trkpt>
      <trkpt lat="46.51708" lon="5.37628">
        <ele>217.4</ele>
        <time>2022-07-07T07:12:34Z</time>
      </trkpt>
      <trkpt lat="46.51699" lon="5.37628">
        <ele>217.2</ele>
        <time>2022-07-07T07:12:35Z</time>
      </trkpt>
      <trkpt lat="46.51683" lon="5.37636">
        <ele>216.6</ele>
        <time>2022-07-07T07:12:37Z</time>
      </trkpt>
      <trkpt lat="46.51676" lon="5.37642">
        <ele>216.4</ele>
        <time>2022-07-07T07:12:38Z</time>
      </trkpt>
      <trkpt lat="46.51669" lon="5.37648">
        <ele>216.2</ele>
        <time>2022-07-07T07:12:39Z</time>
      </trkpt>
      <trkpt lat="46.51662" lon="5.37653">
        <ele>216.2</ele>
        <time>2022-07-07T07:12:40Z</time>
      </trkpt>
      <trkpt lat="46.51639" lon="5.37664">
        <ele>216</ele>
        <time>2022-07-07T07:12:43Z</time>
      </trkpt>
      <trkpt lat="46.51593" lon="5.37679">
        <ele>215.8</ele>
        <time>2022-07-07T07:12:49Z</time>
      </trkpt>
      <trkpt lat="46.51542" lon="5.37686">
        <ele>216.6</ele>
        <time>2022-07-07T07:12:56Z</time>
      </trkpt>
      <trkpt lat="46.5151" lon="5.37694">
        <ele>217</ele>
        <time>2022-07-07T07:13:01Z</time>
      </trkpt>
      <trkpt lat="46.51505" lon="5.37695">
        <ele>217.2</ele>
        <time>2022-07-07T07:13:02Z</time>
      </trkpt>
      <trkpt lat="46.51474" lon="5.37702">
        <ele>218.4</ele>
        <time>2022-07-07T07:13:07Z</time>
      </trkpt>
      <trkpt lat="46.51455" lon="5.37706">
        <ele>219</ele>
        <time>2022-07-07T07:13:10Z</time>
      </trkpt>
      <trkpt lat="46.51435" lon="5.37712">
        <ele>219.4</ele>
        <time>2022-07-07T07:13:13Z</time>
      </trkpt>
      <trkpt lat="46.51411" lon="5.37718">
        <ele>219.8</ele>
        <time>2022-07-07T07:13:17Z</time>
      </trkpt>
      <trkpt lat="46.51379" lon="5.37731">
        <ele>220.4</ele>
        <time>2022-07-07T07:13:22Z</time>
      </trkpt>
      <trkpt lat="46.51357" lon="5.37742">
        <ele>220.8</ele>
        <time>2022-07-07T07:13:26Z</time>
      </trkpt>
      <trkpt lat="46.51323" lon="5.3776">
        <ele>221.8</ele>
        <time>2022-07-07T07:13:32Z</time>
      </trkpt>
      <trkpt lat="46.51295" lon="5.37774">
        <ele>222.6</ele>
        <time>2022-07-07T07:13:37Z</time>
      </trkpt>
      <trkpt lat="46.51289" lon="5.37777">
        <ele>222.8</ele>
        <time>2022-07-07T07:13:38Z</time>
      </trkpt>
      <trkpt lat="46.51251" lon="5.37795">
        <ele>223.8</ele>
        <time>2022-07-07T07:13:44Z</time>
      </trkpt>
      <trkpt lat="46.51244" lon="5.37798">
        <ele>224</ele>
        <time>2022-07-07T07:13:46Z</time>
      </trkpt>
      <trkpt lat="46.51223" lon="5.37802">
        <ele>224.2</ele>
        <time>2022-07-07T07:13:49Z</time>
      </trkpt>
      <trkpt lat="46.51205" lon="5.37804">
        <ele>224.6</ele>
        <time>2022-07-07T07:13:52Z</time>
      </trkpt>
      <trkpt lat="46.51199" lon="5.37806">
        <ele>224.8</ele>
        <time>2022-07-07T07:13:53Z</time>
      </trkpt>
      <trkpt lat="46.51193" lon="5.37807">
        <ele>224.8</ele>
        <time>2022-07-07T07:13:54Z</time>
      </trkpt>
      <trkpt lat="46.51175" lon="5.37811">
        <ele>225.6</ele>
        <time>2022-07-07T07:13:57Z</time>
      </trkpt>
      <trkpt lat="46.5117" lon="5.37814">
        <ele>225.8</ele>
        <time>2022-07-07T07:13:58Z</time>
      </trkpt>
      <trkpt lat="46.51165" lon="5.37817">
        <ele>225.8</ele>
        <time>2022-07-07T07:13:59Z</time>
      </trkpt>
      <trkpt lat="46.5115" lon="5.37829">
        <ele>226.6</ele>
        <time>2022-07-07T07:14:02Z</time>
      </trkpt>
      <trkpt lat="46.51139" lon="5.37837">
        <ele>227</ele>
        <time>2022-07-07T07:14:04Z</time>
      </trkpt>
      <trkpt lat="46.51102" lon="5.37859">
        <ele>227.8</ele>
        <time>2022-07-07T07:14:11Z</time>
      </trkpt>
      <trkpt lat="46.51092" lon="5.37864">
        <ele>228</ele>
        <time>2022-07-07T07:14:13Z</time>
      </trkpt>
      <trkpt lat="46.51074" lon="5.37868">
        <ele>228.2</ele>
        <time>2022-07-07T07:14:16Z</time>
      </trkpt>
      <trkpt lat="46.51044" lon="5.37871">
        <ele>229.2</ele>
        <time>2022-07-07T07:14:21Z</time>
      </trkpt>
      <trkpt lat="46.51033" lon="5.37873">
        <ele>229.6</ele>
        <time>2022-07-07T07:14:23Z</time>
      </trkpt>
      <trkpt lat="46.51021" lon="5.37875">
        <ele>230.2</ele>
        <time>2022-07-07T07:14:25Z</time>
      </trkpt>
      <trkpt lat="46.50983" lon="5.37881">
        <ele>231.2</ele>
        <time>2022-07-07T07:14:32Z</time>
      </trkpt>
      <trkpt lat="46.50943" lon="5.37891">
        <ele>232.4</ele>
        <time>2022-07-07T07:14:39Z</time>
      </trkpt>
      <trkpt lat="46.50918" lon="5.37899">
        <ele>232.6</ele>
        <time>2022-07-07T07:14:42Z</time>
      </trkpt>
      <trkpt lat="46.50883" lon="5.37901">
        <ele>232.6</ele>
        <time>2022-07-07T07:14:48Z</time>
      </trkpt>
      <trkpt lat="46.50832" lon="5.37897">
        <ele>232.6</ele>
        <time>2022-07-07T07:14:55Z</time>
      </trkpt>
      <trkpt lat="46.50818" lon="5.37892">
        <ele>232.6</ele>
        <time>2022-07-07T07:14:57Z</time>
      </trkpt>
      <trkpt lat="46.50805" lon="5.37882">
        <ele>232.6</ele>
        <time>2022-07-07T07:14:59Z</time>
      </trkpt>
      <trkpt lat="46.50778" lon="5.37848">
        <ele>232.6</ele>
        <time>2022-07-07T07:15:04Z</time>
      </trkpt>
      <trkpt lat="46.50774" lon="5.37839">
        <ele>232.6</ele>
        <time>2022-07-07T07:15:05Z</time>
      </trkpt>
      <trkpt lat="46.50754" lon="5.37793">
        <ele>232.6</ele>
        <time>2022-07-07T07:15:10Z</time>
      </trkpt>
      <trkpt lat="46.50752" lon="5.37782">
        <ele>232.6</ele>
        <time>2022-07-07T07:15:11Z</time>
      </trkpt>
      <trkpt lat="46.50743" lon="5.37727">
        <ele>232</ele>
        <time>2022-07-07T07:15:16Z</time>
      </trkpt>
      <trkpt lat="46.5074" lon="5.37683">
        <ele>231.4</ele>
        <time>2022-07-07T07:15:20Z</time>
      </trkpt>
      <trkpt lat="46.50738" lon="5.37645">
        <ele>231.2</ele>
        <time>2022-07-07T07:15:23Z</time>
      </trkpt>
      <trkpt lat="46.50735" lon="5.3762">
        <ele>230.8</ele>
        <time>2022-07-07T07:15:25Z</time>
      </trkpt>
      <trkpt lat="46.50731" lon="5.37608">
        <ele>230.6</ele>
        <time>2022-07-07T07:15:26Z</time>
      </trkpt>
      <trkpt lat="46.50726" lon="5.37596">
        <ele>230.4</ele>
        <time>2022-07-07T07:15:27Z</time>
      </trkpt>
      <trkpt lat="46.5072" lon="5.37587">
        <ele>229.8</ele>
        <time>2022-07-07T07:15:28Z</time>
      </trkpt>
      <trkpt lat="46.50714" lon="5.37579">
        <ele>229.2</ele>
        <time>2022-07-07T07:15:29Z</time>
      </trkpt>
      <trkpt lat="46.50708" lon="5.37573">
        <ele>228.6</ele>
        <time>2022-07-07T07:15:30Z</time>
      </trkpt>
      <trkpt lat="46.50701" lon="5.37564">
        <ele>227.6</ele>
        <time>2022-07-07T07:15:32Z</time>
      </trkpt>
      <trkpt lat="46.50698" lon="5.3756">
        <ele>227.2</ele>
        <time>2022-07-07T07:15:33Z</time>
      </trkpt>
      <trkpt lat="46.50695" lon="5.37558">
        <ele>227</ele>
        <time>2022-07-07T07:15:34Z</time>
      </trkpt>
      <trkpt lat="46.50691" lon="5.37558">
        <ele>226.6</ele>
        <time>2022-07-07T07:15:35Z</time>
      </trkpt>
      <trkpt lat="46.50684" lon="5.37565">
        <ele>226.2</ele>
        <time>2022-07-07T07:15:37Z</time>
      </trkpt>
      <trkpt lat="46.50681" lon="5.3757">
        <ele>226.2</ele>
        <time>2022-07-07T07:15:38Z</time>
      </trkpt>
      <trkpt lat="46.50658" lon="5.37607">
        <ele>226</ele>
        <time>2022-07-07T07:15:43Z</time>
      </trkpt>
      <trkpt lat="46.50621" lon="5.37665">
        <ele>226.4</ele>
        <time>2022-07-07T07:15:52Z</time>
      </trkpt>
      <trkpt lat="46.50617" lon="5.37671">
        <ele>226.6</ele>
        <time>2022-07-07T07:15:53Z</time>
      </trkpt>
      <trkpt lat="46.50588" lon="5.37716">
        <ele>227.2</ele>
        <time>2022-07-07T07:16:00Z</time>
      </trkpt>
      <trkpt lat="46.50584" lon="5.37722">
        <ele>227.4</ele>
        <time>2022-07-07T07:16:01Z</time>
      </trkpt>
      <trkpt lat="46.50561" lon="5.37757">
        <ele>228.4</ele>
        <time>2022-07-07T07:16:07Z</time>
      </trkpt>
      <trkpt lat="46.50547" lon="5.37778">
        <ele>229.6</ele>
        <time>2022-07-07T07:16:11Z</time>
      </trkpt>
      <trkpt lat="46.50526" lon="5.37809">
        <ele>231</ele>
        <time>2022-07-07T07:16:17Z</time>
      </trkpt>
      <trkpt lat="46.50519" lon="5.3782">
        <ele>231.2</ele>
        <time>2022-07-07T07:16:19Z</time>
      </trkpt>
      <trkpt lat="46.505" lon="5.3785">
        <ele>232.2</ele>
        <time>2022-07-07T07:16:24Z</time>
      </trkpt>
      <trkpt lat="46.50483" lon="5.37875">
        <ele>233.2</ele>
        <time>2022-07-07T07:16:29Z</time>
      </trkpt>
      <trkpt lat="46.50463" lon="5.37905">
        <ele>234.4</ele>
        <time>2022-07-07T07:16:35Z</time>
      </trkpt>
      <trkpt lat="46.50449" lon="5.37926">
        <ele>235.2</ele>
        <time>2022-07-07T07:16:39Z</time>
      </trkpt>
      <trkpt lat="46.50446" lon="5.3793">
        <ele>235.6</ele>
        <time>2022-07-07T07:16:40Z</time>
      </trkpt>
      <trkpt lat="46.50432" lon="5.3795">
        <ele>236.6</ele>
        <time>2022-07-07T07:16:45Z</time>
      </trkpt>
      <trkpt lat="46.50416" lon="5.37973">
        <ele>237.6</ele>
        <time>2022-07-07T07:16:50Z</time>
      </trkpt>
      <trkpt lat="46.50413" lon="5.37977">
        <ele>237.8</ele>
        <time>2022-07-07T07:16:51Z</time>
      </trkpt>
      <trkpt lat="46.504" lon="5.37999">
        <ele>238.8</ele>
        <time>2022-07-07T07:16:55Z</time>
      </trkpt>
      <trkpt lat="46.50397" lon="5.38004">
        <ele>239</ele>
        <time>2022-07-07T07:16:56Z</time>
      </trkpt>
      <trkpt lat="46.50385" lon="5.38022">
        <ele>239.6</ele>
        <time>2022-07-07T07:16:59Z</time>
      </trkpt>
      <trkpt lat="46.50376" lon="5.38028">
        <ele>240.2</ele>
        <time>2022-07-07T07:17:01Z</time>
      </trkpt>
      <trkpt lat="46.50364" lon="5.38017">
        <ele>240.6</ele>
        <time>2022-07-07T07:17:04Z</time>
      </trkpt>
      <trkpt lat="46.50362" lon="5.38002">
        <ele>241</ele>
        <time>2022-07-07T07:17:06Z</time>
      </trkpt>
      <trkpt lat="46.50362" lon="5.37994">
        <ele>241.2</ele>
        <time>2022-07-07T07:17:07Z</time>
      </trkpt>
      <trkpt lat="46.50362" lon="5.37986">
        <ele>241.4</ele>
        <time>2022-07-07T07:17:08Z</time>
      </trkpt>
      <trkpt lat="46.50363" lon="5.37971">
        <ele>242.2</ele>
        <time>2022-07-07T07:17:11Z</time>
      </trkpt>
      <trkpt lat="46.50362" lon="5.37942">
        <ele>242.8</ele>
        <time>2022-07-07T07:17:14Z</time>
      </trkpt>
      <trkpt lat="46.50359" lon="5.3792">
        <ele>243.2</ele>
        <time>2022-07-07T07:17:16Z</time>
      </trkpt>
      <trkpt lat="46.50352" lon="5.37903">
        <ele>243.6</ele>
        <time>2022-07-07T07:17:18Z</time>
      </trkpt>
      <trkpt lat="46.50349" lon="5.37895">
        <ele>243.8</ele>
        <time>2022-07-07T07:17:20Z</time>
      </trkpt>
      <trkpt lat="46.50339" lon="5.3788">
        <ele>243.8</ele>
        <time>2022-07-07T07:17:21Z</time>
      </trkpt>
      <trkpt lat="46.50322" lon="5.37862">
        <ele>243.8</ele>
        <time>2022-07-07T07:17:24Z</time>
      </trkpt>
      <trkpt lat="46.50274" lon="5.37816">
        <ele>243.6</ele>
        <time>2022-07-07T07:17:32Z</time>
      </trkpt>
      <trkpt lat="46.50268" lon="5.3781">
        <ele>243.6</ele>
        <time>2022-07-07T07:17:33Z</time>
      </trkpt>
      <trkpt lat="46.50231" lon="5.37776">
        <ele>243.4</ele>
        <time>2022-07-07T07:17:39Z</time>
      </trkpt>
      <trkpt lat="46.5021" lon="5.37761">
        <ele>243.2</ele>
        <time>2022-07-07T07:17:42Z</time>
      </trkpt>
      <trkpt lat="46.50196" lon="5.37753">
        <ele>243</ele>
        <time>2022-07-07T07:17:44Z</time>
      </trkpt>
      <trkpt lat="46.50168" lon="5.37743">
        <ele>242.2</ele>
        <time>2022-07-07T07:17:48Z</time>
      </trkpt>
      <trkpt lat="46.50164" lon="5.37736">
        <ele>242.2</ele>
        <time>2022-07-07T07:17:49Z</time>
      </trkpt>
      <trkpt lat="46.5015" lon="5.37693">
        <ele>241.8</ele>
        <time>2022-07-07T07:17:53Z</time>
      </trkpt>
      <trkpt lat="46.50148" lon="5.3768">
        <ele>241.8</ele>
        <time>2022-07-07T07:17:54Z</time>
      </trkpt>
      <trkpt lat="46.50146" lon="5.37654">
        <ele>241.4</ele>
        <time>2022-07-07T07:17:56Z</time>
      </trkpt>
      <trkpt lat="46.50147" lon="5.37631">
        <ele>240.4</ele>
        <time>2022-07-07T07:17:58Z</time>
      </trkpt>
      <trkpt lat="46.50147" lon="5.37618">
        <ele>240.2</ele>
        <time>2022-07-07T07:17:59Z</time>
      </trkpt>
      <trkpt lat="46.50146" lon="5.37593">
        <ele>239.4</ele>
        <time>2022-07-07T07:18:01Z</time>
      </trkpt>
      <trkpt lat="46.5014" lon="5.37544">
        <ele>238.6</ele>
        <time>2022-07-07T07:18:05Z</time>
      </trkpt>
      <trkpt lat="46.50137" lon="5.37533">
        <ele>238.4</ele>
        <time>2022-07-07T07:18:06Z</time>
      </trkpt>
      <trkpt lat="46.50133" lon="5.37522">
        <ele>238.2</ele>
        <time>2022-07-07T07:18:07Z</time>
      </trkpt>
      <trkpt lat="46.50125" lon="5.37501">
        <ele>237.8</ele>
        <time>2022-07-07T07:18:09Z</time>
      </trkpt>
      <trkpt lat="46.50115" lon="5.37482">
        <ele>237.4</ele>
        <time>2022-07-07T07:18:12Z</time>
      </trkpt>
      <trkpt lat="46.50089" lon="5.37437">
        <ele>237.4</ele>
        <time>2022-07-07T07:18:16Z</time>
      </trkpt>
      <trkpt lat="46.50081" lon="5.37417">
        <ele>237.4</ele>
        <time>2022-07-07T07:18:18Z</time>
      </trkpt>
      <trkpt lat="46.50074" lon="5.37385">
        <ele>237.2</ele>
        <time>2022-07-07T07:18:21Z</time>
      </trkpt>
      <trkpt lat="46.50059" lon="5.37304">
        <ele>236.8</ele>
        <time>2022-07-07T07:18:28Z</time>
      </trkpt>
      <trkpt lat="46.50054" lon="5.37279">
        <ele>236.6</ele>
        <time>2022-07-07T07:18:30Z</time>
      </trkpt>
      <trkpt lat="46.50045" lon="5.37228">
        <ele>236</ele>
        <time>2022-07-07T07:18:34Z</time>
      </trkpt>
      <trkpt lat="46.50038" lon="5.37189">
        <ele>235.4</ele>
        <time>2022-07-07T07:18:37Z</time>
      </trkpt>
      <trkpt lat="46.50035" lon="5.37176">
        <ele>235</ele>
        <time>2022-07-07T07:18:38Z</time>
      </trkpt>
      <trkpt lat="46.5002" lon="5.37096">
        <ele>233.8</ele>
        <time>2022-07-07T07:18:44Z</time>
      </trkpt>
      <trkpt lat="46.50013" lon="5.37057">
        <ele>232.6</ele>
        <time>2022-07-07T07:18:47Z</time>
      </trkpt>
      <trkpt lat="46.50003" lon="5.37004">
        <ele>231.4</ele>
        <time>2022-07-07T07:18:51Z</time>
      </trkpt>
      <trkpt lat="46.4999" lon="5.36939">
        <ele>230.2</ele>
        <time>2022-07-07T07:18:56Z</time>
      </trkpt>
      <trkpt lat="46.49988" lon="5.36926">
        <ele>230</ele>
        <time>2022-07-07T07:18:57Z</time>
      </trkpt>
      <trkpt lat="46.49978" lon="5.36873">
        <ele>229.4</ele>
        <time>2022-07-07T07:19:01Z</time>
      </trkpt>
      <trkpt lat="46.49968" lon="5.36822">
        <ele>228.2</ele>
        <time>2022-07-07T07:19:05Z</time>
      </trkpt>
      <trkpt lat="46.49961" lon="5.36783">
        <ele>227.2</ele>
        <time>2022-07-07T07:19:08Z</time>
      </trkpt>
      <trkpt lat="46.49951" lon="5.36731">
        <ele>226</ele>
        <time>2022-07-07T07:19:12Z</time>
      </trkpt>
      <trkpt lat="46.49939" lon="5.36669">
        <ele>224.8</ele>
        <time>2022-07-07T07:19:17Z</time>
      </trkpt>
      <trkpt lat="46.4993" lon="5.36634">
        <ele>224</ele>
        <time>2022-07-07T07:19:21Z</time>
      </trkpt>
      <trkpt lat="46.49928" lon="5.36628">
        <ele>223.8</ele>
        <time>2022-07-07T07:19:22Z</time>
      </trkpt>
      <trkpt lat="46.49923" lon="5.36617">
        <ele>223.4</ele>
        <time>2022-07-07T07:19:24Z</time>
      </trkpt>
      <trkpt lat="46.49919" lon="5.36608">
        <ele>223.4</ele>
        <time>2022-07-07T07:19:25Z</time>
      </trkpt>
      <trkpt lat="46.49912" lon="5.36588">
        <ele>223.2</ele>
        <time>2022-07-07T07:19:27Z</time>
      </trkpt>
      <trkpt lat="46.49903" lon="5.36568">
        <ele>223</ele>
        <time>2022-07-07T07:19:29Z</time>
      </trkpt>
      <trkpt lat="46.49874" lon="5.36523">
        <ele>222.8</ele>
        <time>2022-07-07T07:19:34Z</time>
      </trkpt>
      <trkpt lat="46.49868" lon="5.36515">
        <ele>222.6</ele>
        <time>2022-07-07T07:19:35Z</time>
      </trkpt>
      <trkpt lat="46.49833" lon="5.36459">
        <ele>221.6</ele>
        <time>2022-07-07T07:19:41Z</time>
      </trkpt>
      <trkpt lat="46.49827" lon="5.36449">
        <ele>221.2</ele>
        <time>2022-07-07T07:19:42Z</time>
      </trkpt>
      <trkpt lat="46.49807" lon="5.36405">
        <ele>220.6</ele>
        <time>2022-07-07T07:19:46Z</time>
      </trkpt>
      <trkpt lat="46.49798" lon="5.36383">
        <ele>220.2</ele>
        <time>2022-07-07T07:19:48Z</time>
      </trkpt>
      <trkpt lat="46.49779" lon="5.36339">
        <ele>219.4</ele>
        <time>2022-07-07T07:19:52Z</time>
      </trkpt>
      <trkpt lat="46.4976" lon="5.36294">
        <ele>218.8</ele>
        <time>2022-07-07T07:19:56Z</time>
      </trkpt>
      <trkpt lat="46.49751" lon="5.36271">
        <ele>218</ele>
        <time>2022-07-07T07:19:58Z</time>
      </trkpt>
      <trkpt lat="46.49725" lon="5.36214">
        <ele>216.8</ele>
        <time>2022-07-07T07:20:03Z</time>
      </trkpt>
      <trkpt lat="46.4972" lon="5.36203">
        <ele>216.4</ele>
        <time>2022-07-07T07:20:04Z</time>
      </trkpt>
      <trkpt lat="46.49714" lon="5.36193">
        <ele>215.8</ele>
        <time>2022-07-07T07:20:05Z</time>
      </trkpt>
      <trkpt lat="46.49685" lon="5.36146">
        <ele>214.4</ele>
        <time>2022-07-07T07:20:10Z</time>
      </trkpt>
      <trkpt lat="46.49671" lon="5.36121">
        <ele>214.2</ele>
        <time>2022-07-07T07:20:13Z</time>
      </trkpt>
      <trkpt lat="46.49662" lon="5.36101">
        <ele>214</ele>
        <time>2022-07-07T07:20:15Z</time>
      </trkpt>
      <trkpt lat="46.49653" lon="5.36075">
        <ele>213.8</ele>
        <time>2022-07-07T07:20:17Z</time>
      </trkpt>
      <trkpt lat="46.49647" lon="5.36029">
        <ele>213.4</ele>
        <time>2022-07-07T07:20:21Z</time>
      </trkpt>
      <trkpt lat="46.49642" lon="5.3594">
        <ele>213.4</ele>
        <time>2022-07-07T07:20:29Z</time>
      </trkpt>
      <trkpt lat="46.49641" lon="5.35919">
        <ele>213.4</ele>
        <time>2022-07-07T07:20:31Z</time>
      </trkpt>
      <trkpt lat="46.4964" lon="5.35838">
        <ele>213.6</ele>
        <time>2022-07-07T07:20:39Z</time>
      </trkpt>
      <trkpt lat="46.49643" lon="5.3582">
        <ele>213.8</ele>
        <time>2022-07-07T07:20:41Z</time>
      </trkpt>
      <trkpt lat="46.49647" lon="5.35806">
        <ele>213.8</ele>
        <time>2022-07-07T07:20:43Z</time>
      </trkpt>
      <trkpt lat="46.49658" lon="5.35776">
        <ele>214.6</ele>
        <time>2022-07-07T07:20:47Z</time>
      </trkpt>
      <trkpt lat="46.49665" lon="5.3576">
        <ele>215</ele>
        <time>2022-07-07T07:20:49Z</time>
      </trkpt>
      <trkpt lat="46.49678" lon="5.35731">
        <ele>215.6</ele>
        <time>2022-07-07T07:20:53Z</time>
      </trkpt>
      <trkpt lat="46.49691" lon="5.35693">
        <ele>216.6</ele>
        <time>2022-07-07T07:20:58Z</time>
      </trkpt>
      <trkpt lat="46.49694" lon="5.35685">
        <ele>216.8</ele>
        <time>2022-07-07T07:20:59Z</time>
      </trkpt>
      <trkpt lat="46.49699" lon="5.35661">
        <ele>217.4</ele>
        <time>2022-07-07T07:21:02Z</time>
      </trkpt>
      <trkpt lat="46.49699" lon="5.35653">
        <ele>217.6</ele>
        <time>2022-07-07T07:21:03Z</time>
      </trkpt>
      <trkpt lat="46.49697" lon="5.35646">
        <ele>217.6</ele>
        <time>2022-07-07T07:21:04Z</time>
      </trkpt>
      <trkpt lat="46.49693" lon="5.35641">
        <ele>217.8</ele>
        <time>2022-07-07T07:21:05Z</time>
      </trkpt>
      <trkpt lat="46.49687" lon="5.35638">
        <ele>218</ele>
        <time>2022-07-07T07:21:06Z</time>
      </trkpt>
      <trkpt lat="46.4967" lon="5.35634">
        <ele>218.8</ele>
        <time>2022-07-07T07:21:09Z</time>
      </trkpt>
      <trkpt lat="46.49664" lon="5.35632">
        <ele>219</ele>
        <time>2022-07-07T07:21:10Z</time>
      </trkpt>
      <trkpt lat="46.49625" lon="5.35621">
        <ele>220.2</ele>
        <time>2022-07-07T07:21:17Z</time>
      </trkpt>
      <trkpt lat="46.49619" lon="5.3562">
        <ele>220.4</ele>
        <time>2022-07-07T07:21:19Z</time>
      </trkpt>
      <trkpt lat="46.49574" lon="5.35604">
        <ele>221.2</ele>
        <time>2022-07-07T07:21:26Z</time>
      </trkpt>
      <trkpt lat="46.49562" lon="5.35601">
        <ele>221.6</ele>
        <time>2022-07-07T07:21:28Z</time>
      </trkpt>
      <trkpt lat="46.49517" lon="5.35583">
        <ele>222.2</ele>
        <time>2022-07-07T07:21:36Z</time>
      </trkpt>
      <trkpt lat="46.49512" lon="5.3558">
        <ele>222.4</ele>
        <time>2022-07-07T07:21:37Z</time>
      </trkpt>
      <trkpt lat="46.49483" lon="5.35568">
        <ele>222.8</ele>
        <time>2022-07-07T07:21:42Z</time>
      </trkpt>
      <trkpt lat="46.49478" lon="5.35565">
        <ele>222.8</ele>
        <time>2022-07-07T07:21:43Z</time>
      </trkpt>
      <trkpt lat="46.49453" lon="5.35555">
        <ele>223.4</ele>
        <time>2022-07-07T07:21:47Z</time>
      </trkpt>
      <trkpt lat="46.49441" lon="5.35549">
        <ele>223.4</ele>
        <time>2022-07-07T07:21:49Z</time>
      </trkpt>
      <trkpt lat="46.49428" lon="5.35543">
        <ele>223.8</ele>
        <time>2022-07-07T07:21:51Z</time>
      </trkpt>
      <trkpt lat="46.49411" lon="5.35536">
        <ele>224</ele>
        <time>2022-07-07T07:21:54Z</time>
      </trkpt>
      <trkpt lat="46.49398" lon="5.35532">
        <ele>224</ele>
        <time>2022-07-07T07:21:56Z</time>
      </trkpt>
      <trkpt lat="46.49384" lon="5.3553">
        <ele>224.4</ele>
        <time>2022-07-07T07:21:58Z</time>
      </trkpt>
      <trkpt lat="46.49377" lon="5.35528">
        <ele>224.6</ele>
        <time>2022-07-07T07:21:59Z</time>
      </trkpt>
      <trkpt lat="46.49372" lon="5.35528">
        <ele>224.8</ele>
        <time>2022-07-07T07:22:00Z</time>
      </trkpt>
      <trkpt lat="46.49339" lon="5.35529">
        <ele>225</ele>
        <time>2022-07-07T07:22:05Z</time>
      </trkpt>
      <trkpt lat="46.49332" lon="5.3553">
        <ele>225</ele>
        <time>2022-07-07T07:22:06Z</time>
      </trkpt>
      <trkpt lat="46.49318" lon="5.35532">
        <ele>225.2</ele>
        <time>2022-07-07T07:22:08Z</time>
      </trkpt>
      <trkpt lat="46.49313" lon="5.35532">
        <ele>225.2</ele>
        <time>2022-07-07T07:22:09Z</time>
      </trkpt>
      <trkpt lat="46.49289" lon="5.35533">
        <ele>225.6</ele>
        <time>2022-07-07T07:22:13Z</time>
      </trkpt>
      <trkpt lat="46.4927" lon="5.35533">
        <ele>226.6</ele>
        <time>2022-07-07T07:22:16Z</time>
      </trkpt>
      <trkpt lat="46.49263" lon="5.35533">
        <ele>226.8</ele>
        <time>2022-07-07T07:22:17Z</time>
      </trkpt>
      <trkpt lat="46.49243" lon="5.35535">
        <ele>227</ele>
        <time>2022-07-07T07:22:20Z</time>
      </trkpt>
      <trkpt lat="46.49239" lon="5.35535">
        <ele>227</ele>
        <time>2022-07-07T07:22:21Z</time>
      </trkpt>
      <trkpt lat="46.49227" lon="5.35536">
        <ele>227.2</ele>
        <time>2022-07-07T07:22:24Z</time>
      </trkpt>
      <trkpt lat="46.49173" lon="5.35538">
        <ele>227.4</ele>
        <time>2022-07-07T07:22:31Z</time>
      </trkpt>
      <trkpt lat="46.49133" lon="5.35541">
        <ele>227</ele>
        <time>2022-07-07T07:22:37Z</time>
      </trkpt>
      <trkpt lat="46.49084" lon="5.35544">
        <ele>226</ele>
        <time>2022-07-07T07:22:42Z</time>
      </trkpt>
      <trkpt lat="46.49057" lon="5.35545">
        <ele>225.6</ele>
        <time>2022-07-07T07:22:45Z</time>
      </trkpt>
      <trkpt lat="46.49027" lon="5.35549">
        <ele>225</ele>
        <time>2022-07-07T07:22:48Z</time>
      </trkpt>
      <trkpt lat="46.49008" lon="5.35549">
        <ele>224.4</ele>
        <time>2022-07-07T07:22:50Z</time>
      </trkpt>
      <trkpt lat="46.48971" lon="5.35552">
        <ele>223.2</ele>
        <time>2022-07-07T07:22:54Z</time>
      </trkpt>
      <trkpt lat="46.48953" lon="5.35554">
        <ele>223</ele>
        <time>2022-07-07T07:22:56Z</time>
      </trkpt>
      <trkpt lat="46.48913" lon="5.35558">
        <ele>223</ele>
        <time>2022-07-07T07:23:01Z</time>
      </trkpt>
      <trkpt lat="46.48891" lon="5.35559">
        <ele>223.8</ele>
        <time>2022-07-07T07:23:05Z</time>
      </trkpt>
      <trkpt lat="46.48878" lon="5.35558">
        <ele>224.2</ele>
        <time>2022-07-07T07:23:07Z</time>
      </trkpt>
      <trkpt lat="46.48873" lon="5.35558">
        <ele>224.4</ele>
        <time>2022-07-07T07:23:08Z</time>
      </trkpt>
      <trkpt lat="46.48856" lon="5.35559">
        <ele>225.2</ele>
        <time>2022-07-07T07:23:12Z</time>
      </trkpt>
      <trkpt lat="46.48848" lon="5.35562">
        <ele>225.4</ele>
        <time>2022-07-07T07:23:13Z</time>
      </trkpt>
      <trkpt lat="46.48843" lon="5.35566">
        <ele>225.4</ele>
        <time>2022-07-07T07:23:14Z</time>
      </trkpt>
      <trkpt lat="46.48831" lon="5.3558">
        <ele>225.6</ele>
        <time>2022-07-07T07:23:16Z</time>
      </trkpt>
      <trkpt lat="46.48824" lon="5.35594">
        <ele>225.6</ele>
        <time>2022-07-07T07:23:18Z</time>
      </trkpt>
      <trkpt lat="46.48816" lon="5.35612">
        <ele>225.6</ele>
        <time>2022-07-07T07:23:20Z</time>
      </trkpt>
      <trkpt lat="46.48786" lon="5.35676">
        <ele>225.8</ele>
        <time>2022-07-07T07:23:27Z</time>
      </trkpt>
      <trkpt lat="46.48755" lon="5.35746">
        <ele>225.8</ele>
        <time>2022-07-07T07:23:34Z</time>
      </trkpt>
      <trkpt lat="46.48752" lon="5.35753">
        <ele>225.8</ele>
        <time>2022-07-07T07:23:35Z</time>
      </trkpt>
      <trkpt lat="46.48725" lon="5.35817">
        <ele>225.4</ele>
        <time>2022-07-07T07:23:42Z</time>
      </trkpt>
      <trkpt lat="46.48706" lon="5.35862">
        <ele>225.6</ele>
        <time>2022-07-07T07:23:48Z</time>
      </trkpt>
      <trkpt lat="46.48688" lon="5.35907">
        <ele>226.2</ele>
        <time>2022-07-07T07:23:54Z</time>
      </trkpt>
      <trkpt lat="46.48685" lon="5.35915">
        <ele>226.4</ele>
        <time>2022-07-07T07:23:55Z</time>
      </trkpt>
      <trkpt lat="46.48682" lon="5.3593">
        <ele>226.6</ele>
        <time>2022-07-07T07:23:57Z</time>
      </trkpt>
      <trkpt lat="46.4868" lon="5.35948">
        <ele>227.2</ele>
        <time>2022-07-07T07:23:59Z</time>
      </trkpt>
      <trkpt lat="46.48679" lon="5.35958">
        <ele>227.6</ele>
        <time>2022-07-07T07:24:00Z</time>
      </trkpt>
      <trkpt lat="46.48674" lon="5.36003">
        <ele>228.4</ele>
        <time>2022-07-07T07:24:05Z</time>
      </trkpt>
      <trkpt lat="46.48663" lon="5.36055">
        <ele>228.6</ele>
        <time>2022-07-07T07:24:10Z</time>
      </trkpt>
      <trkpt lat="46.48645" lon="5.36137">
        <ele>227.6</ele>
        <time>2022-07-07T07:24:17Z</time>
      </trkpt>
      <trkpt lat="46.48638" lon="5.36212">
        <ele>227</ele>
        <time>2022-07-07T07:24:24Z</time>
      </trkpt>
      <trkpt lat="46.48629" lon="5.36287">
        <ele>227.4</ele>
        <time>2022-07-07T07:24:32Z</time>
      </trkpt>
      <trkpt lat="46.48623" lon="5.36303">
        <ele>227.8</ele>
        <time>2022-07-07T07:24:34Z</time>
      </trkpt>
      <trkpt lat="46.48614" lon="5.36315">
        <ele>228</ele>
        <time>2022-07-07T07:24:36Z</time>
      </trkpt>
      <trkpt lat="46.48604" lon="5.36319">
        <ele>228.2</ele>
        <time>2022-07-07T07:24:38Z</time>
      </trkpt>
      <trkpt lat="46.48596" lon="5.3632">
        <ele>228.8</ele>
        <time>2022-07-07T07:24:40Z</time>
      </trkpt>
      <trkpt lat="46.48572" lon="5.36324">
        <ele>230</ele>
        <time>2022-07-07T07:24:44Z</time>
      </trkpt>
      <trkpt lat="46.48556" lon="5.36326">
        <ele>230.8</ele>
        <time>2022-07-07T07:24:47Z</time>
      </trkpt>
      <trkpt lat="46.48545" lon="5.36327">
        <ele>231.2</ele>
        <time>2022-07-07T07:24:49Z</time>
      </trkpt>
      <trkpt lat="46.48516" lon="5.36332">
        <ele>232.2</ele>
        <time>2022-07-07T07:24:54Z</time>
      </trkpt>
      <trkpt lat="46.48504" lon="5.36334">
        <ele>232.6</ele>
        <time>2022-07-07T07:24:56Z</time>
      </trkpt>
      <trkpt lat="46.48481" lon="5.36338">
        <ele>233.2</ele>
        <time>2022-07-07T07:25:00Z</time>
      </trkpt>
      <trkpt lat="46.48451" lon="5.36343">
        <ele>233.6</ele>
        <time>2022-07-07T07:25:05Z</time>
      </trkpt>
      <trkpt lat="46.48416" lon="5.36353">
        <ele>233.8</ele>
        <time>2022-07-07T07:25:11Z</time>
      </trkpt>
      <trkpt lat="46.48406" lon="5.3636">
        <ele>233.8</ele>
        <time>2022-07-07T07:25:13Z</time>
      </trkpt>
      <trkpt lat="46.48385" lon="5.36379">
        <ele>234</ele>
        <time>2022-07-07T07:25:17Z</time>
      </trkpt>
      <trkpt lat="46.4835" lon="5.36418">
        <ele>234.2</ele>
        <time>2022-07-07T07:25:24Z</time>
      </trkpt>
      <trkpt lat="46.48341" lon="5.36428">
        <ele>234.4</ele>
        <time>2022-07-07T07:25:26Z</time>
      </trkpt>
      <trkpt lat="46.48309" lon="5.36462">
        <ele>235.2</ele>
        <time>2022-07-07T07:25:33Z</time>
      </trkpt>
      <trkpt lat="46.48301" lon="5.36472">
        <ele>235.6</ele>
        <time>2022-07-07T07:25:35Z</time>
      </trkpt>
      <trkpt lat="46.48279" lon="5.36496">
        <ele>236.8</ele>
        <time>2022-07-07T07:25:40Z</time>
      </trkpt>
      <trkpt lat="46.48268" lon="5.36509">
        <ele>237.2</ele>
        <time>2022-07-07T07:25:43Z</time>
      </trkpt>
      <trkpt lat="46.48253" lon="5.36525">
        <ele>237.8</ele>
        <time>2022-07-07T07:25:46Z</time>
      </trkpt>
      <trkpt lat="46.48228" lon="5.36553">
        <ele>238.6</ele>
        <time>2022-07-07T07:25:52Z</time>
      </trkpt>
      <trkpt lat="46.48223" lon="5.36556">
        <ele>238.6</ele>
        <time>2022-07-07T07:25:53Z</time>
      </trkpt>
      <trkpt lat="46.48218" lon="5.36558">
        <ele>238.8</ele>
        <time>2022-07-07T07:25:54Z</time>
      </trkpt>
      <trkpt lat="46.48202" lon="5.3656">
        <ele>239.2</ele>
        <time>2022-07-07T07:25:57Z</time>
      </trkpt>
      <trkpt lat="46.48193" lon="5.36567">
        <ele>239.6</ele>
        <time>2022-07-07T07:25:59Z</time>
      </trkpt>
      <trkpt lat="46.48189" lon="5.36574">
        <ele>239.8</ele>
        <time>2022-07-07T07:26:00Z</time>
      </trkpt>
      <trkpt lat="46.48187" lon="5.36581">
        <ele>239.8</ele>
        <time>2022-07-07T07:26:01Z</time>
      </trkpt>
      <trkpt lat="46.48182" lon="5.36597">
        <ele>240</ele>
        <time>2022-07-07T07:26:03Z</time>
      </trkpt>
      <trkpt lat="46.48179" lon="5.36604">
        <ele>240</ele>
        <time>2022-07-07T07:26:04Z</time>
      </trkpt>
      <trkpt lat="46.48175" lon="5.3661">
        <ele>240.2</ele>
        <time>2022-07-07T07:26:05Z</time>
      </trkpt>
      <trkpt lat="46.48161" lon="5.36625">
        <ele>240.2</ele>
        <time>2022-07-07T07:26:08Z</time>
      </trkpt>
      <trkpt lat="46.48149" lon="5.36639">
        <ele>240.8</ele>
        <time>2022-07-07T07:26:11Z</time>
      </trkpt>
      <trkpt lat="46.48146" lon="5.36646">
        <ele>241</ele>
        <time>2022-07-07T07:26:12Z</time>
      </trkpt>
      <trkpt lat="46.48143" lon="5.36651">
        <ele>241</ele>
        <time>2022-07-07T07:26:13Z</time>
      </trkpt>
      <trkpt lat="46.48126" lon="5.36666">
        <ele>241.6</ele>
        <time>2022-07-07T07:26:16Z</time>
      </trkpt>
      <trkpt lat="46.4811" lon="5.36682">
        <ele>242</ele>
        <time>2022-07-07T07:26:20Z</time>
      </trkpt>
      <trkpt lat="46.48105" lon="5.3669">
        <ele>242.2</ele>
        <time>2022-07-07T07:26:22Z</time>
      </trkpt>
      <trkpt lat="46.48103" lon="5.36696">
        <ele>242.4</ele>
        <time>2022-07-07T07:26:23Z</time>
      </trkpt>
      <trkpt lat="46.48107" lon="5.36707">
        <ele>242.6</ele>
        <time>2022-07-07T07:26:25Z</time>
      </trkpt>
      <trkpt lat="46.48128" lon="5.36723">
        <ele>243</ele>
        <time>2022-07-07T07:26:30Z</time>
      </trkpt>
      <trkpt lat="46.48135" lon="5.36729">
        <ele>243.2</ele>
        <time>2022-07-07T07:26:32Z</time>
      </trkpt>
      <trkpt lat="46.48155" lon="5.36745">
        <ele>244.4</ele>
        <time>2022-07-07T07:26:37Z</time>
      </trkpt>
      <trkpt lat="46.4816" lon="5.36749">
        <ele>244.4</ele>
        <time>2022-07-07T07:26:38Z</time>
      </trkpt>
      <trkpt lat="46.48174" lon="5.36762">
        <ele>245.4</ele>
        <time>2022-07-07T07:26:42Z</time>
      </trkpt>
      <trkpt lat="46.4819" lon="5.36774">
        <ele>246</ele>
        <time>2022-07-07T07:26:46Z</time>
      </trkpt>
      <trkpt lat="46.48193" lon="5.36776">
        <ele>246.6</ele>
        <time>2022-07-07T07:26:47Z</time>
      </trkpt>
      <trkpt lat="46.48211" lon="5.3679">
        <ele>247.8</ele>
        <time>2022-07-07T07:26:52Z</time>
      </trkpt>
      <trkpt lat="46.48215" lon="5.36793">
        <ele>248.2</ele>
        <time>2022-07-07T07:26:53Z</time>
      </trkpt>
      <trkpt lat="46.48221" lon="5.36799">
        <ele>248.8</ele>
        <time>2022-07-07T07:26:55Z</time>
      </trkpt>
      <trkpt lat="46.48231" lon="5.36808">
        <ele>249.8</ele>
        <time>2022-07-07T07:26:58Z</time>
      </trkpt>
      <trkpt lat="46.48237" lon="5.36813">
        <ele>250.2</ele>
        <time>2022-07-07T07:27:00Z</time>
      </trkpt>
      <trkpt lat="46.48247" lon="5.36822">
        <ele>250.8</ele>
        <time>2022-07-07T07:27:03Z</time>
      </trkpt>
    </trkseg>
  </trk>
</gpx>